Wetterdaten: Freitag, 13.10.2017
Datum Zeit Temp. A. Pool Temp. Feuchte A. Luftdruck Regen Wind Richtung Richtung Sonnenschein ET UV Solar Taupunkt Windchill Windben Empfang
13.10.2017 00:00 14,1 C 11,7 C 81 % 1025,5 hPa 0,0 l/m 7,4 km/h (2 Bft) SW 222 0 min 0,000 mm 0,0 UV-I 0 W/m 10,9 C 13,5 C 11,3 km/h (2 Bft) 96,43 %
13.10.2017 00:02 14,1 C 11,7 C 81 % 1025,5 hPa 0,0 l/m 7,7 km/h (2 Bft) W-SW 237 0 min 0,000 mm 0,0 UV-I 0 W/m 10,9 C 13,3 C 11,3 km/h (2 Bft) 11,76 %
13.10.2017 00:04 14,2 C 11,7 C 81 % 1025,6 hPa 0,0 l/m 5,7 km/h (1 Bft) SW 219 0 min 0,000 mm 0,0 UV-I 0 W/m 11,0 C 14,2 C 9,7 km/h (2 Bft) 89,36 %
13.10.2017 00:06 14,2 C 11,7 C 81 % 1025,5 hPa 0,0 l/m 6,0 km/h (2 Bft) W-SW 238 0 min 0,000 mm 0,0 UV-I 0 W/m 11,0 C 14,2 C 8,0 km/h (2 Bft) 97,56 %
13.10.2017 00:08 14,2 C 11,7 C 81 % 1025,5 hPa 0,0 l/m 5,9 km/h (2 Bft) W-SW 246 0 min 0,000 mm 0,0 UV-I 0 W/m 11,0 C 14,2 C 9,7 km/h (2 Bft) 98,00 %
13.10.2017 00:10 14,2 C 11,7 C 81 % 1025,6 hPa 0,0 l/m 6,7 km/h (2 Bft) SW 232 0 min 0,000 mm 0,0 UV-I 0 W/m 11,0 C 14,0 C 9,7 km/h (2 Bft) 95,12 %
13.10.2017 00:12 14,2 C 11,7 C 81 % 1025,5 hPa 0,0 l/m 7,3 km/h (2 Bft) W-SW 239 0 min 0,000 mm 0,0 UV-I 0 W/m 11,0 C 13,7 C 11,3 km/h (2 Bft) 92,50 %
13.10.2017 00:14 14,2 C 11,7 C 81 % 1025,6 hPa 0,0 l/m 7,3 km/h (2 Bft) W-SW 241 0 min 0,000 mm 0,0 UV-I 0 W/m 11,0 C 13,7 C 11,3 km/h (2 Bft) 96,72 %
13.10.2017 00:16 14,2 C 11,7 C 81 % 1025,6 hPa 0,0 l/m 8,0 km/h (2 Bft) W-SW 237 0 min 0,000 mm 0,0 UV-I 0 W/m 11,0 C 13,3 C 16,1 km/h (3 Bft) 97,87 %
13.10.2017 00:18 14,2 C 11,7 C 81 % 1025,6 hPa 0,0 l/m 7,9 km/h (2 Bft) SW 233 0 min 0,000 mm 0,0 UV-I 0 W/m 11,0 C 13,3 C 14,5 km/h (3 Bft) 95,12 %
13.10.2017 00:20 14,3 C 11,7 C 81 % 1025,6 hPa 0,0 l/m 7,9 km/h (2 Bft) W 279 0 min 0,000 mm 0,0 UV-I 0 W/m 11,1 C 13,4 C 12,9 km/h (3 Bft) 98,21 %
13.10.2017 00:22 14,3 C 11,7 C 81 % 1025,7 hPa 0,0 l/m 7,6 km/h (2 Bft) W-SW 239 0 min 0,000 mm 0,0 UV-I 0 W/m 11,1 C 13,6 C 11,3 km/h (2 Bft) 95,24 %
13.10.2017 00:24 14,3 C 11,7 C 81 % 1025,7 hPa 0,0 l/m 8,5 km/h (2 Bft) W-SW 252 0 min 0,000 mm 0,0 UV-I 0 W/m 11,1 C 13,1 C 12,9 km/h (3 Bft) 97,56 %
13.10.2017 00:26 14,3 C 11,7 C 81 % 1025,7 hPa 0,0 l/m 10,2 km/h (2 Bft) W-SW 247 0 min 0,000 mm 0,0 UV-I 0 W/m 11,1 C 12,3 C 16,1 km/h (3 Bft) 98,00 %
13.10.2017 00:28 14,4 C 11,7 C 81 % 1025,7 hPa 0,0 l/m 8,9 km/h (2 Bft) W-SW 252 0 min 0,000 mm 0,0 UV-I 0 W/m 11,2 C 13,0 C 12,9 km/h (3 Bft) 96,00 %
13.10.2017 00:30 14,4 C 11,7 C 81 % 1025,7 hPa 0,0 l/m 10,3 km/h (2 Bft) SW 228 0 min 0,000 mm 0,0 UV-I 0 W/m 11,2 C 12,3 C 14,5 km/h (3 Bft) 98,00 %
13.10.2017 00:32 14,4 C 11,7 C 81 % 1025,7 hPa 0,0 l/m 8,9 km/h (2 Bft) SW 223 0 min 0,000 mm 0,0 UV-I 0 W/m 11,2 C 13,0 C 12,9 km/h (3 Bft) 97,73 %
13.10.2017 00:34 14,4 C 11,7 C 81 % 1025,6 hPa 0,0 l/m 11,7 km/h (2 Bft) SW 225 0 min 0,000 mm 0,0 UV-I 0 W/m 11,2 C 11,7 C 16,1 km/h (3 Bft) 93,18 %
13.10.2017 00:36 14,4 C 11,7 C 81 % 1025,7 hPa 0,0 l/m 10,0 km/h (2 Bft) W-SW 248 0 min 0,000 mm 0,0 UV-I 0 W/m 11,2 C 12,5 C 14,5 km/h (3 Bft) 100,00 %
13.10.2017 00:38 14,4 C 11,7 C 81 % 1025,6 hPa 0,0 l/m 10,3 km/h (2 Bft) W-SW 246 0 min 0,000 mm 0,0 UV-I 0 W/m 11,2 C 12,3 C 14,5 km/h (3 Bft) 92,45 %
13.10.2017 00:40 14,4 C 11,7 C 81 % 1025,7 hPa 0,0 l/m 10,5 km/h (2 Bft) W-SW 238 0 min 0,000 mm 0,0 UV-I 0 W/m 11,2 C 12,2 C 14,5 km/h (3 Bft) 98,11 %
13.10.2017 00:42 14,4 C 11,7 C 81 % 1025,6 hPa 0,0 l/m 9,0 km/h (2 Bft) SW 224 0 min 0,000 mm 0,0 UV-I 0 W/m 11,2 C 12,9 C 12,9 km/h (3 Bft) 95,74 %
13.10.2017 00:44 14,4 C 11,7 C 81 % 1025,6 hPa 0,0 l/m 9,9 km/h (2 Bft) SW 229 0 min 0,000 mm 0,0 UV-I 0 W/m 11,2 C 12,5 C 14,5 km/h (3 Bft) 97,37 %
13.10.2017 00:46 14,4 C 11,7 C 81 % 1025,6 hPa 0,0 l/m 9,5 km/h (2 Bft) W-SW 244 0 min 0,000 mm 0,0 UV-I 0 W/m 11,2 C 12,7 C 14,5 km/h (3 Bft) 97,73 %
13.10.2017 00:48 14,4 C 11,7 C 81 % 1025,6 hPa 0,0 l/m 9,1 km/h (2 Bft) W-SW 238 0 min 0,000 mm 0,0 UV-I 0 W/m 11,2 C 12,9 C 17,7 km/h (3 Bft) 98,21 %
13.10.2017 00:50 14,4 C 11,7 C 81 % 1025,6 hPa 0,0 l/m 7,9 km/h (2 Bft) SW 229 0 min 0,000 mm 0,0 UV-I 0 W/m 11,2 C 13,5 C 12,9 km/h (3 Bft) 95,12 %
13.10.2017 00:52 14,4 C 11,7 C 81 % 1025,6 hPa 0,0 l/m 8,6 km/h (2 Bft) W-SW 238 0 min 0,000 mm 0,0 UV-I 0 W/m 11,2 C 13,1 C 12,9 km/h (3 Bft) 98,21 %
13.10.2017 00:54 14,3 C 11,7 C 81 % 1025,6 hPa 0,0 l/m 8,4 km/h (2 Bft) W-SW 252 0 min 0,000 mm 0,0 UV-I 0 W/m 11,1 C 13,1 C 12,9 km/h (3 Bft) 93,62 %
13.10.2017 00:56 14,3 C 11,7 C 81 % 1025,6 hPa 0,0 l/m 8,6 km/h (2 Bft) SW 230 0 min 0,000 mm 0,0 UV-I 0 W/m 11,1 C 13,0 C 14,5 km/h (3 Bft) 97,14 %
13.10.2017 00:58 14,3 C 11,7 C 81 % 1025,6 hPa 0,0 l/m 10,5 km/h (2 Bft) SW 235 0 min 0,000 mm 0,0 UV-I 0 W/m 11,1 C 12,1 C 16,1 km/h (3 Bft) 94,00 %
13.10.2017 01:00 14,3 C 11,7 C 81 % 1025,6 hPa 0,0 l/m 10,2 km/h (2 Bft) W-SW 246 0 min 0,025 mm 0,0 UV-I 0 W/m 11,1 C 12,3 C 16,1 km/h (3 Bft) 98,00 %
13.10.2017 01:02 14,3 C 11,7 C 81 % 1025,6 hPa 0,0 l/m 7,7 km/h (2 Bft) SW 227 0 min 0,000 mm 0,0 UV-I 0 W/m 11,1 C 13,5 C 12,9 km/h (3 Bft) 98,00 %
13.10.2017 01:04 14,3 C 11,7 C 81 % 1025,6 hPa 0,0 l/m 8,6 km/h (2 Bft) W-SW 240 0 min 0,000 mm 0,0 UV-I 0 W/m 11,1 C 13,0 C 12,9 km/h (3 Bft) 97,78 %
13.10.2017 01:06 14,2 C 11,7 C 81 % 1025,7 hPa 0,0 l/m 10,1 km/h (2 Bft) SW 226 0 min 0,000 mm 0,0 UV-I 0 W/m 11,0 C 12,2 C 14,5 km/h (3 Bft) 97,37 %
13.10.2017 01:08 14,3 C 11,7 C 81 % 1025,7 hPa 0,0 l/m 10,2 km/h (2 Bft) W-SW 250 0 min 0,000 mm 0,0 UV-I 0 W/m 11,1 C 12,3 C 17,7 km/h (3 Bft) 96,00 %
13.10.2017 01:10 14,3 C 11,7 C 81 % 1025,7 hPa 0,0 l/m 10,9 km/h (2 Bft) W-SW 246 0 min 0,000 mm 0,0 UV-I 0 W/m 11,1 C 11,9 C 14,5 km/h (3 Bft) 97,87 %
13.10.2017 01:12 14,3 C 11,7 C 81 % 1025,7 hPa 0,0 l/m 10,7 km/h (2 Bft) W-SW 240 0 min 0,000 mm 0,0 UV-I 0 W/m 11,1 C 12,0 C 16,1 km/h (3 Bft) 92,86 %
13.10.2017 01:14 14,3 C 11,7 C 81 % 1025,7 hPa 0,0 l/m 10,8 km/h (2 Bft) SW 236 0 min 0,000 mm 0,0 UV-I 0 W/m 11,1 C 12,0 C 16,1 km/h (3 Bft) 97,37 %
13.10.2017 01:16 14,3 C 11,7 C 81 % 1025,7 hPa 0,0 l/m 8,9 km/h (2 Bft) W-SW 247 0 min 0,000 mm 0,0 UV-I 0 W/m 11,1 C 12,9 C 12,9 km/h (3 Bft) 97,73 %
13.10.2017 01:18 14,3 C 11,7 C 81 % 1025,7 hPa 0,0 l/m 8,5 km/h (2 Bft) W 263 0 min 0,000 mm 0,0 UV-I 0 W/m 11,1 C 13,1 C 12,9 km/h (3 Bft) 100,00 %
13.10.2017 01:20 14,3 C 11,7 C 81 % 1025,7 hPa 0,0 l/m 7,5 km/h (2 Bft) W-SW 250 0 min 0,000 mm 0,0 UV-I 0 W/m 11,1 C 13,7 C 11,3 km/h (2 Bft) 100,00 %
13.10.2017 01:22 14,3 C 11,7 C 81 % 1025,8 hPa 0,0 l/m 7,1 km/h (2 Bft) W 279 0 min 0,000 mm 0,0 UV-I 0 W/m 11,1 C 13,9 C 11,3 km/h (2 Bft) 100,00 %
13.10.2017 01:24 14,3 C 11,7 C 81 % 1025,7 hPa 0,0 l/m 9,6 km/h (2 Bft) W-SW 251 0 min 0,000 mm 0,0 UV-I 0 W/m 11,1 C 12,5 C 14,5 km/h (3 Bft) 100,00 %
13.10.2017 01:26 14,3 C 11,7 C 81 % 1025,7 hPa 0,0 l/m 11,3 km/h (2 Bft) W 261 0 min 0,000 mm 0,0 UV-I 0 W/m 11,1 C 11,8 C 16,1 km/h (3 Bft) 97,56 %
13.10.2017 01:28 14,3 C 11,7 C 81 % 1025,7 hPa 0,0 l/m 10,1 km/h (2 Bft) W-SW 243 0 min 0,000 mm 0,0 UV-I 0 W/m 11,1 C 12,3 C 12,9 km/h (3 Bft) 96,23 %
13.10.2017 01:30 14,3 C 11,7 C 81 % 1025,8 hPa 0,0 l/m 10,7 km/h (2 Bft) W-SW 249 0 min 0,000 mm 0,0 UV-I 0 W/m 11,1 C 12,0 C 14,5 km/h (3 Bft) 98,00 %
13.10.2017 01:32 14,3 C 11,7 C 81 % 1025,7 hPa 0,0 l/m 10,3 km/h (2 Bft) W-SW 238 0 min 0,000 mm 0,0 UV-I 0 W/m 11,1 C 12,2 C 14,5 km/h (3 Bft) 95,12 %
13.10.2017 01:34 14,3 C 11,7 C 81 % 1025,8 hPa 0,0 l/m 11,3 km/h (2 Bft) W-SW 252 0 min 0,000 mm 0,0 UV-I 0 W/m 11,1 C 11,8 C 19,3 km/h (3 Bft) 97,56 %
13.10.2017 01:36 14,4 C 11,7 C 81 % 1025,8 hPa 0,0 l/m 11,2 km/h (2 Bft) W 259 0 min 0,000 mm 0,0 UV-I 0 W/m 11,2 C 11,9 C 16,1 km/h (3 Bft) 98,11 %
13.10.2017 01:38 14,4 C 11,7 C 81 % 1025,9 hPa 0,0 l/m 12,7 km/h (3 Bft) W 259 0 min 0,000 mm 0,0 UV-I 0 W/m 11,2 C 11,3 C 17,7 km/h (3 Bft) 98,11 %
13.10.2017 01:40 14,4 C 11,7 C 80 % 1025,8 hPa 0,0 l/m 10,2 km/h (2 Bft) W 265 0 min 0,000 mm 0,0 UV-I 0 W/m 11,0 C 12,4 C 16,1 km/h (3 Bft) 95,74 %
13.10.2017 01:42 14,4 C 11,7 C 80 % 1025,8 hPa 0,0 l/m 9,6 km/h (2 Bft) W-SW 240 0 min 0,000 mm 0,0 UV-I 0 W/m 11,0 C 12,6 C 14,5 km/h (3 Bft) 100,00 %
13.10.2017 01:44 14,4 C 11,7 C 80 % 1025,8 hPa 0,0 l/m 7,6 km/h (2 Bft) W-SW 243 0 min 0,000 mm 0,0 UV-I 0 W/m 11,0 C 13,7 C 11,3 km/h (2 Bft) 94,74 %
13.10.2017 01:46 14,4 C 11,7 C 80 % 1025,9 hPa 0,0 l/m 8,2 km/h (2 Bft) W-SW 250 0 min 0,000 mm 0,0 UV-I 0 W/m 11,0 C 13,4 C 11,3 km/h (2 Bft) 96,43 %
13.10.2017 01:48 14,4 C 11,7 C 80 % 1025,9 hPa 0,0 l/m 7,2 km/h (2 Bft) W-SW 254 0 min 0,000 mm 0,0 UV-I 0 W/m 11,0 C 13,9 C 12,9 km/h (3 Bft) 98,21 %
13.10.2017 01:50 14,4 C 11,7 C 80 % 1025,9 hPa 0,0 l/m 9,3 km/h (2 Bft) W-SW 240 0 min 0,000 mm 0,0 UV-I 0 W/m 11,0 C 12,8 C 12,9 km/h (3 Bft) 97,73 %
13.10.2017 01:52 14,4 C 11,7 C 80 % 1025,8 hPa 0,0 l/m 7,9 km/h (2 Bft) W-SW 248 0 min 0,000 mm 0,0 UV-I 0 W/m 11,0 C 13,5 C 12,9 km/h (3 Bft) 97,56 %
13.10.2017 01:54 14,4 C 11,7 C 80 % 1025,9 hPa 0,0 l/m 8,4 km/h (2 Bft) W-SW 242 0 min 0,000 mm 0,0 UV-I 0 W/m 11,0 C 13,3 C 12,9 km/h (3 Bft) 98,00 %
13.10.2017 01:56 14,4 C 11,7 C 80 % 1025,9 hPa 0,0 l/m 9,0 km/h (2 Bft) W 263 0 min 0,000 mm 0,0 UV-I 0 W/m 11,0 C 12,9 C 14,5 km/h (3 Bft) 98,00 %
13.10.2017 01:58 14,4 C 11,7 C 81 % 1025,9 hPa 0,0 l/m 9,8 km/h (2 Bft) SW 236 0 min 0,000 mm 0,0 UV-I 0 W/m 11,2 C 12,5 C 12,9 km/h (3 Bft) 95,45 %
13.10.2017 02:00 14,4 C 11,7 C 81 % 1025,9 hPa 0,0 l/m 12,6 km/h (3 Bft) W-SW 241 0 min 0,026 mm 0,0 UV-I 0 W/m 11,2 C 11,3 C 16,1 km/h (3 Bft) 97,56 %
13.10.2017 02:02 14,4 C 11,7 C 81 % 1025,9 hPa 0,0 l/m 7,7 km/h (2 Bft) W 274 0 min 0,000 mm 0,0 UV-I 0 W/m 11,2 C 13,6 C 12,9 km/h (3 Bft) 90,00 %
13.10.2017 02:04 14,4 C 11,7 C 81 % 1025,9 hPa 0,0 l/m 9,4 km/h (2 Bft) W-SW 244 0 min 0,000 mm 0,0 UV-I 0 W/m 11,2 C 12,7 C 12,9 km/h (3 Bft) 97,73 %
13.10.2017 02:06 14,4 C 11,7 C 81 % 1025,8 hPa 0,0 l/m 7,4 km/h (2 Bft) W-SW 253 0 min 0,000 mm 0,0 UV-I 0 W/m 11,2 C 13,8 C 11,3 km/h (2 Bft) 100,00 %
13.10.2017 02:08 14,4 C 11,7 C 81 % 1025,8 hPa 0,0 l/m 9,2 km/h (2 Bft) W 259 0 min 0,000 mm 0,0 UV-I 0 W/m 11,2 C 12,8 C 12,9 km/h (3 Bft) 97,87 %
13.10.2017 02:10 14,4 C 11,7 C 81 % 1025,8 hPa 0,0 l/m 7,6 km/h (2 Bft) W-SW 250 0 min 0,000 mm 0,0 UV-I 0 W/m 11,2 C 13,7 C 11,3 km/h (2 Bft) 96,00 %
13.10.2017 02:12 14,4 C 11,7 C 81 % 1025,8 hPa 0,0 l/m 8,6 km/h (2 Bft) W 260 0 min 0,000 mm 0,0 UV-I 0 W/m 11,2 C 13,1 C 14,5 km/h (3 Bft) 100,00 %
13.10.2017 02:14 14,4 C 11,7 C 81 % 1025,8 hPa 0,0 l/m 9,3 km/h (2 Bft) W-SW 244 0 min 0,000 mm 0,0 UV-I 0 W/m 11,2 C 12,8 C 14,5 km/h (3 Bft) 100,00 %
13.10.2017 02:16 14,4 C 11,7 C 81 % 1025,8 hPa 0,0 l/m 9,4 km/h (2 Bft) W-SW 252 0 min 0,000 mm 0,0 UV-I 0 W/m 11,2 C 12,7 C 12,9 km/h (3 Bft) 98,31 %
13.10.2017 02:18 14,4 C 11,7 C 81 % 1025,8 hPa 0,0 l/m 7,2 km/h (2 Bft) W-SW 244 0 min 0,000 mm 0,0 UV-I 0 W/m 11,2 C 13,9 C 11,3 km/h (2 Bft) 100,00 %
13.10.2017 02:20 14,4 C 11,7 C 81 % 1025,7 hPa 0,0 l/m 7,6 km/h (2 Bft) SW 232 0 min 0,000 mm 0,0 UV-I 0 W/m 11,2 C 13,7 C 12,9 km/h (3 Bft) 97,44 %
13.10.2017 02:22 14,4 C 11,7 C 80 % 1025,8 hPa 0,0 l/m 9,7 km/h (2 Bft) W-SW 246 0 min 0,000 mm 0,0 UV-I 0 W/m 11,0 C 12,6 C 16,1 km/h (3 Bft) 98,00 %
13.10.2017 02:24 14,4 C 11,7 C 81 % 1025,8 hPa 0,0 l/m 9,3 km/h (2 Bft) W-SW 258 0 min 0,000 mm 0,0 UV-I 0 W/m 11,2 C 12,8 C 14,5 km/h (3 Bft) 100,00 %
13.10.2017 02:26 14,4 C 11,7 C 81 % 1025,7 hPa 0,0 l/m 7,7 km/h (2 Bft) W-SW 238 0 min 0,000 mm 0,0 UV-I 0 W/m 11,2 C 13,6 C 12,9 km/h (3 Bft) 97,73 %
13.10.2017 02:28 14,3 C 11,7 C 81 % 1025,8 hPa 0,0 l/m 5,7 km/h (1 Bft) W 277 0 min 0,000 mm 0,0 UV-I 0 W/m 11,1 C 14,3 C 9,7 km/h (2 Bft) 100,00 %
13.10.2017 02:30 14,3 C 11,7 C 81 % 1025,7 hPa 0,0 l/m 5,7 km/h (1 Bft) W 265 0 min 0,000 mm 0,0 UV-I 0 W/m 11,1 C 14,3 C 9,7 km/h (2 Bft) 100,00 %
13.10.2017 02:32 14,3 C 11,7 C 81 % 1025,8 hPa 0,0 l/m 5,3 km/h (1 Bft) W-SW 244 0 min 0,000 mm 0,0 UV-I 0 W/m 11,1 C 14,3 C 6,4 km/h (2 Bft) 100,00 %
13.10.2017 02:34 14,2 C 11,7 C 81 % 1025,7 hPa 0,0 l/m 4,9 km/h (1 Bft) W-SW 238 0 min 0,000 mm 0,0 UV-I 0 W/m 11,0 C 14,2 C 9,7 km/h (2 Bft) 100,00 %
13.10.2017 02:36 14,2 C 11,7 C 81 % 1025,7 hPa 0,0 l/m 4,4 km/h (1 Bft) SW 230 0 min 0,000 mm 0,0 UV-I 0 W/m 11,0 C 14,2 C 6,4 km/h (2 Bft) 98,00 %
13.10.2017 02:38 14,1 C 11,7 C 81 % 1025,8 hPa 0,0 l/m 4,7 km/h (1 Bft) W-SW 244 0 min 0,000 mm 0,0 UV-I 0 W/m 10,9 C 14,1 C 6,4 km/h (2 Bft) 100,00 %
13.10.2017 02:40 14,1 C 11,7 C 82 % 1025,8 hPa 0,0 l/m 4,7 km/h (1 Bft) W-SW 251 0 min 0,000 mm 0,0 UV-I 0 W/m 11,1 C 14,1 C 6,4 km/h (2 Bft) 100,00 %
13.10.2017 02:42 14,0 C 11,7 C 82 % 1025,8 hPa 0,0 l/m 5,0 km/h (1 Bft) SW 232 0 min 0,000 mm 0,0 UV-I 0 W/m 11,0 C 14,0 C 6,4 km/h (2 Bft) 97,87 %
13.10.2017 02:44 13,9 C 11,7 C 82 % 1025,9 hPa 0,0 l/m 5,3 km/h (1 Bft) W 271 0 min 0,000 mm 0,0 UV-I 0 W/m 10,9 C 13,9 C 8,0 km/h (2 Bft) 100,00 %
13.10.2017 02:46 13,9 C 11,7 C 82 % 1025,9 hPa 0,0 l/m 6,9 km/h (2 Bft) W 260 0 min 0,000 mm 0,0 UV-I 0 W/m 10,9 C 13,6 C 11,3 km/h (2 Bft) 100,00 %
13.10.2017 02:48 13,9 C 11,7 C 82 % 1026,0 hPa 0,0 l/m 6,2 km/h (2 Bft) W-SW 241 0 min 0,000 mm 0,0 UV-I 0 W/m 10,9 C 13,9 C 9,7 km/h (2 Bft) 100,00 %
13.10.2017 02:50 13,9 C 11,7 C 82 % 1025,9 hPa 0,0 l/m 6,8 km/h (2 Bft) SW 232 0 min 0,000 mm 0,0 UV-I 0 W/m 10,9 C 13,7 C 9,7 km/h (2 Bft) 100,00 %
13.10.2017 02:52 13,9 C 11,7 C 82 % 1026,0 hPa 0,0 l/m 8,6 km/h (2 Bft) W-SW 245 0 min 0,000 mm 0,0 UV-I 0 W/m 10,9 C 12,6 C 11,3 km/h (2 Bft) 100,00 %
13.10.2017 02:54 13,9 C 11,7 C 82 % 1025,9 hPa 0,0 l/m 7,6 km/h (2 Bft) W-SW 246 0 min 0,000 mm 0,0 UV-I 0 W/m 10,9 C 13,2 C 12,9 km/h (3 Bft) 97,87 %
13.10.2017 02:56 13,9 C 11,7 C 82 % 1026,0 hPa 0,0 l/m 6,6 km/h (2 Bft) W-SW 252 0 min 0,000 mm 0,0 UV-I 0 W/m 10,9 C 13,8 C 8,0 km/h (2 Bft) 98,00 %
13.10.2017 02:58 13,9 C 11,7 C 82 % 1025,9 hPa 0,0 l/m 5,6 km/h (1 Bft) W 263 0 min 0,000 mm 0,0 UV-I 0 W/m 10,9 C 13,9 C 8,0 km/h (2 Bft) 97,62 %
13.10.2017 03:00 13,9 C 11,7 C 82 % 1025,8 hPa 0,0 l/m 4,9 km/h (1 Bft) W-SW 249 0 min 0,025 mm 0,0 UV-I 0 W/m 10,9 C 13,9 C 8,0 km/h (2 Bft) 100,00 %
13.10.2017 03:02 13,9 C 11,7 C 82 % 1025,8 hPa 0,0 l/m 7,3 km/h (2 Bft) W-SW 257 0 min 0,000 mm 0,0 UV-I 0 W/m 10,9 C 13,4 C 12,9 km/h (3 Bft) 100,00 %
13.10.2017 03:04 13,9 C 11,7 C 82 % 1025,8 hPa 0,0 l/m 7,2 km/h (2 Bft) SW 234 0 min 0,000 mm 0,0 UV-I 0 W/m 10,9 C 13,4 C 11,3 km/h (2 Bft) 97,73 %
13.10.2017 03:06 13,9 C 11,7 C 82 % 1025,8 hPa 0,0 l/m 5,5 km/h (1 Bft) W 260 0 min 0,000 mm 0,0 UV-I 0 W/m 10,9 C 13,9 C 8,0 km/h (2 Bft) 100,00 %
13.10.2017 03:08 13,9 C 11,7 C 82 % 1025,8 hPa 0,0 l/m 7,1 km/h (2 Bft) SW 226 0 min 0,000 mm 0,0 UV-I 0 W/m 10,9 C 13,5 C 11,3 km/h (2 Bft) 100,00 %
13.10.2017 03:10 13,9 C 11,7 C 82 % 1025,9 hPa 0,0 l/m 7,9 km/h (2 Bft) W-SW 240 0 min 0,000 mm 0,0 UV-I 0 W/m 10,9 C 13,0 C 11,3 km/h (2 Bft) 100,00 %
13.10.2017 03:12 13,9 C 11,7 C 82 % 1025,8 hPa 0,0 l/m 7,5 km/h (2 Bft) SW 236 0 min 0,000 mm 0,0 UV-I 0 W/m 10,9 C 13,2 C 11,3 km/h (2 Bft) 97,37 %
13.10.2017 03:14 13,9 C 11,7 C 82 % 1025,8 hPa 0,0 l/m 7,9 km/h (2 Bft) W-SW 238 0 min 0,000 mm 0,0 UV-I 0 W/m 10,9 C 13,0 C 9,7 km/h (2 Bft) 100,00 %
13.10.2017 03:16 13,9 C 11,7 C 82 % 1025,8 hPa 0,0 l/m 8,9 km/h (2 Bft) S-SW 209 0 min 0,000 mm 0,0 UV-I 0 W/m 10,9 C 12,5 C 16,1 km/h (3 Bft) 100,00 %
13.10.2017 03:18 13,9 C 11,7 C 82 % 1025,8 hPa 0,0 l/m 7,8 km/h (2 Bft) W-SW 242 0 min 0,000 mm 0,0 UV-I 0 W/m 10,9 C 13,1 C 9,7 km/h (2 Bft) 100,00 %
13.10.2017 03:20 13,9 C 11,7 C 82 % 1025,8 hPa 0,0 l/m 7,3 km/h (2 Bft) S-SW 213 0 min 0,000 mm 0,0 UV-I 0 W/m 10,9 C 13,4 C 12,9 km/h (3 Bft) 100,00 %
13.10.2017 03:22 13,9 C 11,7 C 82 % 1025,8 hPa 0,0 l/m 8,0 km/h (2 Bft) W-SW 252 0 min 0,000 mm 0,0 UV-I 0 W/m 10,9 C 12,9 C 12,9 km/h (3 Bft) 100,00 %
13.10.2017 03:24 13,9 C 11,7 C 81 % 1025,8 hPa 0,0 l/m 7,9 km/h (2 Bft) W-SW 244 0 min 0,000 mm 0,0 UV-I 0 W/m 10,7 C 13,0 C 12,9 km/h (3 Bft) 100,00 %
13.10.2017 03:26 13,9 C 11,7 C 81 % 1025,8 hPa 0,0 l/m 7,2 km/h (2 Bft) W-NW 286 0 min 0,000 mm 0,0 UV-I 0 W/m 10,7 C 13,4 C 11,3 km/h (2 Bft) 100,00 %
13.10.2017 03:28 13,9 C 11,7 C 81 % 1025,8 hPa 0,0 l/m 8,4 km/h (2 Bft) SW 234 0 min 0,000 mm 0,0 UV-I 0 W/m 10,7 C 12,7 C 16,1 km/h (3 Bft) 100,00 %
13.10.2017 03:30 13,9 C 11,7 C 81 % 1025,8 hPa 0,0 l/m 8,0 km/h (2 Bft) W-SW 248 0 min 0,000 mm 0,0 UV-I 0 W/m 10,7 C 12,9 C 12,9 km/h (3 Bft) 96,00 %
13.10.2017 03:32 13,9 C 11,7 C 81 % 1025,8 hPa 0,0 l/m 7,5 km/h (2 Bft) W 275 0 min 0,000 mm 0,0 UV-I 0 W/m 10,7 C 13,2 C 11,3 km/h (2 Bft) 98,11 %
13.10.2017 03:34 13,9 C 11,7 C 81 % 1025,8 hPa 0,0 l/m 7,1 km/h (2 Bft) W-SW 251 0 min 0,000 mm 0,0 UV-I 0 W/m 10,7 C 13,5 C 11,3 km/h (2 Bft) 97,87 %
13.10.2017 03:36 13,8 C 11,7 C 81 % 1025,9 hPa 0,0 l/m 6,8 km/h (2 Bft) W 263 0 min 0,000 mm 0,0 UV-I 0 W/m 10,6 C 13,6 C 9,7 km/h (2 Bft) 97,44 %
13.10.2017 03:38 13,8 C 11,7 C 81 % 1025,9 hPa 0,0 l/m 6,0 km/h (2 Bft) W-SW 244 0 min 0,000 mm 0,0 UV-I 0 W/m 10,6 C 13,8 C 9,7 km/h (2 Bft) 98,08 %
13.10.2017 03:40 13,8 C 11,7 C 81 % 1025,8 hPa 0,0 l/m 6,0 km/h (2 Bft) SW 220 0 min 0,000 mm 0,0 UV-I 0 W/m 10,6 C 13,8 C 8,0 km/h (2 Bft) 97,44 %
13.10.2017 03:42 13,7 C 11,7 C 81 % 1025,9 hPa 0,0 l/m 5,9 km/h (2 Bft) SW 234 0 min 0,000 mm 0,0 UV-I 0 W/m 10,5 C 13,7 C 11,3 km/h (2 Bft) 97,87 %
13.10.2017 03:44 13,7 C 11,7 C 81 % 1025,9 hPa 0,0 l/m 7,1 km/h (2 Bft) SW 229 0 min 0,000 mm 0,0 UV-I 0 W/m 10,5 C 13,3 C 9,7 km/h (2 Bft) 98,00 %
13.10.2017 03:46 13,6 C 11,7 C 82 % 1025,9 hPa 0,0 l/m 6,8 km/h (2 Bft) SW 234 0 min 0,000 mm 0,0 UV-I 0 W/m 10,6 C 13,4 C 9,7 km/h (2 Bft) 96,23 %
13.10.2017 03:48 13,6 C 11,7 C 82 % 1025,9 hPa 0,0 l/m 6,5 km/h (2 Bft) SW 236 0 min 0,000 mm 0,0 UV-I 0 W/m 10,6 C 13,6 C 9,7 km/h (2 Bft) 94,74 %
13.10.2017 03:50 13,5 C 11,7 C 83 % 1025,9 hPa 0,0 l/m 5,2 km/h (1 Bft) W-SW 251 0 min 0,000 mm 0,0 UV-I 0 W/m 10,7 C 13,5 C 8,0 km/h (2 Bft) 98,21 %
13.10.2017 03:52 13,4 C 11,7 C 83 % 1025,9 hPa 0,0 l/m 5,9 km/h (2 Bft) W-SW 251 0 min 0,000 mm 0,0 UV-I 0 W/m 10,6 C 13,4 C 8,0 km/h (2 Bft) 93,18 %
13.10.2017 03:54 13,4 C 11,7 C 83 % 1025,9 hPa 0,0 l/m 8,0 km/h (2 Bft) W-SW 258 0 min 0,000 mm 0,0 UV-I 0 W/m 10,6 C 12,4 C 12,9 km/h (3 Bft) 92,11 %
13.10.2017 03:56 13,4 C 11,7 C 83 % 1025,9 hPa 0,0 l/m 7,2 km/h (2 Bft) W-SW 258 0 min 0,000 mm 0,0 UV-I 0 W/m 10,6 C 12,9 C 11,3 km/h (2 Bft) 98,21 %
13.10.2017 03:58 13,4 C 11,7 C 83 % 1025,9 hPa 0,0 l/m 6,6 km/h (2 Bft) SW 236 0 min 0,000 mm 0,0 UV-I 0 W/m 10,6 C 13,3 C 11,3 km/h (2 Bft) 97,73 %
13.10.2017 04:00 13,4 C 11,7 C 83 % 1025,9 hPa 0,0 l/m 5,7 km/h (1 Bft) W-SW 252 0 min 0,026 mm 0,0 UV-I 0 W/m 10,6 C 13,4 C 8,0 km/h (2 Bft) 97,73 %
13.10.2017 04:02 13,4 C 11,7 C 83 % 1025,9 hPa 0,0 l/m 8,0 km/h (2 Bft) W-SW 250 0 min 0,000 mm 0,0 UV-I 0 W/m 10,6 C 12,4 C 12,9 km/h (3 Bft) 96,97 %
13.10.2017 04:04 13,4 C 11,7 C 83 % 1025,8 hPa 0,0 l/m 9,3 km/h (2 Bft) SW 230 0 min 0,000 mm 0,0 UV-I 0 W/m 10,6 C 11,7 C 11,3 km/h (2 Bft) 100,00 %
13.10.2017 04:06 13,5 C 11,7 C 82 % 1025,8 hPa 0,0 l/m 7,7 km/h (2 Bft) SW 215 0 min 0,000 mm 0,0 UV-I 0 W/m 10,5 C 12,7 C 12,9 km/h (3 Bft) 96,92 %
13.10.2017 04:08 13,5 C 11,7 C 82 % 1025,8 hPa 0,0 l/m 9,9 km/h (2 Bft) W-SW 252 0 min 0,000 mm 0,0 UV-I 0 W/m 10,5 C 11,5 C 14,5 km/h (3 Bft) 96,00 %
13.10.2017 04:10 13,6 C 11,7 C 82 % 1025,8 hPa 0,0 l/m 8,7 km/h (2 Bft) SW 236 0 min 0,000 mm 0,0 UV-I 0 W/m 10,6 C 12,2 C 12,9 km/h (3 Bft) 98,00 %
13.10.2017 04:12 13,6 C 11,7 C 82 % 1025,8 hPa 0,0 l/m 9,2 km/h (2 Bft) W-SW 245 0 min 0,000 mm 0,0 UV-I 0 W/m 10,6 C 12,0 C 16,1 km/h (3 Bft) 100,00 %
13.10.2017 04:14 13,7 C 11,7 C 82 % 1025,7 hPa 0,0 l/m 9,8 km/h (2 Bft) SW 220 0 min 0,000 mm 0,0 UV-I 0 W/m 10,7 C 11,8 C 14,5 km/h (3 Bft) 96,23 %
13.10.2017 04:16 13,7 C 11,7 C 81 % 1025,7 hPa 0,0 l/m 9,2 km/h (2 Bft) W-SW 257 0 min 0,000 mm 0,0 UV-I 0 W/m 10,5 C 12,1 C 12,9 km/h (3 Bft) 100,00 %
13.10.2017 04:18 13,7 C 11,7 C 81 % 1025,7 hPa 0,0 l/m 10,3 km/h (2 Bft) W 261 0 min 0,000 mm 0,0 UV-I 0 W/m 10,5 C 11,5 C 16,1 km/h (3 Bft) 97,50 %
13.10.2017 04:20 13,7 C 11,7 C 81 % 1025,7 hPa 0,0 l/m 9,1 km/h (2 Bft) W 263 0 min 0,000 mm 0,0 UV-I 0 W/m 10,5 C 12,1 C 14,5 km/h (3 Bft) 97,87 %
13.10.2017 04:22 13,7 C 11,7 C 81 % 1025,7 hPa 0,0 l/m 9,6 km/h (2 Bft) W-SW 257 0 min 0,000 mm 0,0 UV-I 0 W/m 10,5 C 11,9 C 12,9 km/h (3 Bft) 97,87 %
13.10.2017 04:24 13,7 C 11,7 C 81 % 1025,7 hPa 0,0 l/m 8,7 km/h (2 Bft) SW 236 0 min 0,000 mm 0,0 UV-I 0 W/m 10,5 C 12,3 C 14,5 km/h (3 Bft) 98,11 %
13.10.2017 04:26 13,7 C 11,7 C 81 % 1025,7 hPa 0,0 l/m 8,8 km/h (2 Bft) W-SW 254 0 min 0,000 mm 0,0 UV-I 0 W/m 10,5 C 12,3 C 12,9 km/h (3 Bft) 97,62 %
13.10.2017 04:28 13,7 C 11,7 C 81 % 1025,7 hPa 0,0 l/m 7,7 km/h (2 Bft) W-SW 256 0 min 0,000 mm 0,0 UV-I 0 W/m 10,5 C 12,9 C 11,3 km/h (2 Bft) 93,62 %
13.10.2017 04:30 13,7 C 11,7 C 81 % 1025,7 hPa 0,0 l/m 7,7 km/h (2 Bft) W-SW 248 0 min 0,000 mm 0,0 UV-I 0 W/m 10,5 C 12,9 C 12,9 km/h (3 Bft) 98,00 %
13.10.2017 04:32 13,7 C 11,7 C 81 % 1025,7 hPa 0,0 l/m 7,2 km/h (2 Bft) SW 232 0 min 0,000 mm 0,0 UV-I 0 W/m 10,5 C 13,2 C 12,9 km/h (3 Bft) 97,56 %
13.10.2017 04:34 13,6 C 11,7 C 81 % 1025,7 hPa 0,0 l/m 6,7 km/h (2 Bft) SW 225 0 min 0,000 mm 0,0 UV-I 0 W/m 10,4 C 13,4 C 9,7 km/h (2 Bft) 98,00 %
13.10.2017 04:36 13,6 C 11,7 C 81 % 1025,7 hPa 0,0 l/m 7,1 km/h (2 Bft) W-SW 242 0 min 0,000 mm 0,0 UV-I 0 W/m 10,4 C 13,2 C 14,5 km/h (3 Bft) 96,00 %
13.10.2017 04:38 13,6 C 11,7 C 81 % 1025,7 hPa 0,0 l/m 6,5 km/h (2 Bft) SW 234 0 min 0,000 mm 0,0 UV-I 0 W/m 10,4 C 13,6 C 9,7 km/h (2 Bft) 97,56 %
13.10.2017 04:40 13,5 C 11,7 C 82 % 1025,7 hPa 0,0 l/m 6,3 km/h (2 Bft) SW 236 0 min 0,000 mm 0,0 UV-I 0 W/m 10,5 C 13,5 C 8,0 km/h (2 Bft) 98,11 %
13.10.2017 04:42 13,4 C 11,7 C 82 % 1025,8 hPa 0,0 l/m 6,8 km/h (2 Bft) SW 221 0 min 0,000 mm 0,0 UV-I 0 W/m 10,4 C 13,2 C 8,0 km/h (2 Bft) 97,37 %
13.10.2017 04:44 13,4 C 11,7 C 82 % 1025,8 hPa 0,0 l/m 6,1 km/h (2 Bft) SW 235 0 min 0,000 mm 0,0 UV-I 0 W/m 10,4 C 13,4 C 8,0 km/h (2 Bft) 98,11 %
13.10.2017 04:46 13,4 C 11,7 C 82 % 1025,8 hPa 0,0 l/m 4,8 km/h (1 Bft) S-SW 213 0 min 0,000 mm 0,0 UV-I 0 W/m 10,4 C 13,4 C 8,0 km/h (2 Bft) 97,56 %
13.10.2017 04:48 13,3 C 11,7 C 82 % 1025,8 hPa 0,0 l/m 5,6 km/h (1 Bft) W-SW 242 0 min 0,000 mm 0,0 UV-I 0 W/m 10,3 C 13,3 C 8,0 km/h (2 Bft) 98,00 %
13.10.2017 04:50 13,3 C 11,7 C 83 % 1025,8 hPa 0,0 l/m 5,3 km/h (1 Bft) SW 221 0 min 0,000 mm 0,0 UV-I 0 W/m 10,5 C 13,3 C 8,0 km/h (2 Bft) 96,00 %
13.10.2017 04:52 13,3 C 11,7 C 83 % 1025,8 hPa 0,0 l/m 4,8 km/h (1 Bft) SW 215 0 min 0,000 mm 0,0 UV-I 0 W/m 10,5 C 13,3 C 6,4 km/h (2 Bft) 100,00 %
13.10.2017 04:54 13,2 C 11,7 C 83 % 1025,7 hPa 0,0 l/m 5,9 km/h (2 Bft) SW 221 0 min 0,000 mm 0,0 UV-I 0 W/m 10,4 C 13,2 C 8,0 km/h (2 Bft) 95,92 %
13.10.2017 04:56 13,2 C 11,7 C 84 % 1025,7 hPa 0,0 l/m 5,5 km/h (1 Bft) SW 229 0 min 0,000 mm 0,0 UV-I 0 W/m 10,6 C 13,2 C 8,0 km/h (2 Bft) 100,00 %
13.10.2017 04:58 13,1 C 11,7 C 84 % 1025,7 hPa 0,0 l/m 5,4 km/h (1 Bft) SW 225 0 min 0,000 mm 0,0 UV-I 0 W/m 10,5 C 13,1 C 8,0 km/h (2 Bft) 94,00 %
13.10.2017 05:00 13,1 C 11,7 C 84 % 1025,7 hPa 0,0 l/m 7,4 km/h (2 Bft) W-SW 239 0 min 0,025 mm 0,0 UV-I 0 W/m 10,5 C 12,5 C 9,7 km/h (2 Bft) 96,43 %
13.10.2017 05:02 13,0 C 11,7 C 85 % 1025,7 hPa 0,0 l/m 8,7 km/h (2 Bft) SW 232 0 min 0,000 mm 0,0 UV-I 0 W/m 10,5 C 11,6 C 12,9 km/h (3 Bft) 98,00 %
13.10.2017 05:04 12,9 C 11,7 C 85 % 1025,6 hPa 0,0 l/m 9,3 km/h (2 Bft) W-SW 238 0 min 0,000 mm 0,0 UV-I 0 W/m 10,4 C 11,2 C 12,9 km/h (3 Bft) 97,87 %
13.10.2017 05:06 12,8 C 11,7 C 86 % 1025,6 hPa 0,0 l/m 9,9 km/h (2 Bft) SW 229 0 min 0,000 mm 0,0 UV-I 0 W/m 10,5 C 10,7 C 12,9 km/h (3 Bft) 97,37 %
13.10.2017 05:08 12,8 C 11,7 C 86 % 1025,6 hPa 0,0 l/m 10,6 km/h (2 Bft) SW 232 0 min 0,000 mm 0,0 UV-I 0 W/m 10,5 C 10,4 C 14,5 km/h (3 Bft) 98,21 %
13.10.2017 05:10 12,8 C 11,7 C 86 % 1025,6 hPa 0,0 l/m 10,6 km/h (2 Bft) SW 232 0 min 0,000 mm 0,0 UV-I 0 W/m 10,5 C 10,4 C 16,1 km/h (3 Bft) 97,73 %
13.10.2017 05:12 12,8 C 11,7 C 86 % 1025,6 hPa 0,0 l/m 10,2 km/h (2 Bft) SW 227 0 min 0,000 mm 0,0 UV-I 0 W/m 10,5 C 10,6 C 14,5 km/h (3 Bft) 95,12 %
13.10.2017 05:14 12,8 C 11,7 C 86 % 1025,6 hPa 0,0 l/m 10,8 km/h (2 Bft) W-SW 246 0 min 0,000 mm 0,0 UV-I 0 W/m 10,5 C 10,3 C 16,1 km/h (3 Bft) 96,23 %
13.10.2017 05:16 12,8 C 11,7 C 86 % 1025,6 hPa 0,0 l/m 9,7 km/h (2 Bft) W-SW 249 0 min 0,000 mm 0,0 UV-I 0 W/m 10,5 C 10,8 C 14,5 km/h (3 Bft) 100,00 %
13.10.2017 05:18 12,8 C 11,7 C 86 % 1025,6 hPa 0,0 l/m 10,4 km/h (2 Bft) SW 231 0 min 0,000 mm 0,0 UV-I 0 W/m 10,5 C 10,5 C 14,5 km/h (3 Bft) 96,23 %
13.10.2017 05:20 12,8 C 11,7 C 86 % 1025,6 hPa 0,0 l/m 11,2 km/h (2 Bft) SW 232 0 min 0,000 mm 0,0 UV-I 0 W/m 10,5 C 10,1 C 16,1 km/h (3 Bft) 97,73 %
13.10.2017 05:22 12,8 C 11,7 C 86 % 1025,6 hPa 0,0 l/m 9,9 km/h (2 Bft) SW 221 0 min 0,000 mm 0,0 UV-I 0 W/m 10,5 C 10,7 C 14,5 km/h (3 Bft) 98,00 %
13.10.2017 05:24 12,8 C 11,7 C 86 % 1025,7 hPa 0,0 l/m 8,9 km/h (2 Bft) SW 229 0 min 0,000 mm 0,0 UV-I 0 W/m 10,5 C 11,3 C 12,9 km/h (3 Bft) 98,00 %
13.10.2017 05:26 12,8 C 11,7 C 86 % 1025,7 hPa 0,0 l/m 8,6 km/h (2 Bft) W-SW 249 0 min 0,000 mm 0,0 UV-I 0 W/m 10,5 C 11,4 C 12,9 km/h (3 Bft) 100,00 %
13.10.2017 05:28 12,8 C 11,7 C 86 % 1025,7 hPa 0,0 l/m 8,8 km/h (2 Bft) SW 217 0 min 0,000 mm 0,0 UV-I 0 W/m 10,5 C 11,3 C 12,9 km/h (3 Bft) 100,00 %
13.10.2017 05:30 12,8 C 11,7 C 86 % 1025,7 hPa 0,0 l/m 9,2 km/h (2 Bft) S-SW 213 0 min 0,000 mm 0,0 UV-I 0 W/m 10,5 C 11,1 C 14,5 km/h (3 Bft) 96,43 %
13.10.2017 05:32 12,8 C 11,7 C 86 % 1025,8 hPa 0,0 l/m 10,3 km/h (2 Bft) SW 232 0 min 0,000 mm 0,0 UV-I 0 W/m 10,5 C 10,5 C 12,9 km/h (3 Bft) 98,00 %
13.10.2017 05:34 12,8 C 11,7 C 86 % 1025,7 hPa 0,0 l/m 9,9 km/h (2 Bft) W-SW 243 0 min 0,000 mm 0,0 UV-I 0 W/m 10,5 C 10,7 C 12,9 km/h (3 Bft) 97,44 %
13.10.2017 05:36 12,8 C 11,7 C 86 % 1025,7 hPa 0,0 l/m 11,2 km/h (2 Bft) SW 228 0 min 0,000 mm 0,0 UV-I 0 W/m 10,5 C 10,1 C 16,1 km/h (3 Bft) 100,00 %
13.10.2017 05:38 12,8 C 11,7 C 86 % 1025,7 hPa 0,0 l/m 10,8 km/h (2 Bft) W-SW 246 0 min 0,000 mm 0,0 UV-I 0 W/m 10,5 C 10,3 C 14,5 km/h (3 Bft) 100,00 %
13.10.2017 05:40 12,8 C 11,7 C 86 % 1025,7 hPa 0,0 l/m 10,8 km/h (2 Bft) S-SW 209 0 min 0,000 mm 0,0 UV-I 0 W/m 10,5 C 10,3 C 16,1 km/h (3 Bft) 98,11 %
13.10.2017 05:42 12,8 C 11,7 C 86 % 1025,7 hPa 0,0 l/m 10,1 km/h (2 Bft) W-SW 253 0 min 0,000 mm 0,0 UV-I 0 W/m 10,5 C 10,6 C 16,1 km/h (3 Bft) 95,12 %
13.10.2017 05:44 12,8 C 11,7 C 86 % 1025,7 hPa 0,0 l/m 9,3 km/h (2 Bft) SW 222 0 min 0,000 mm 0,0 UV-I 0 W/m 10,5 C 11,1 C 12,9 km/h (3 Bft) 94,34 %
13.10.2017 05:46 12,8 C 11,7 C 86 % 1025,6 hPa 0,0 l/m 8,5 km/h (2 Bft) SW 225 0 min 0,000 mm 0,0 UV-I 0 W/m 10,5 C 11,5 C 12,9 km/h (3 Bft) 97,87 %
13.10.2017 05:48 12,8 C 11,7 C 86 % 1025,7 hPa 0,0 l/m 10,6 km/h (2 Bft) SW 223 0 min 0,000 mm 0,0 UV-I 0 W/m 10,5 C 10,4 C 16,1 km/h (3 Bft) 95,45 %
13.10.2017 05:50 12,8 C 11,7 C 86 % 1025,7 hPa 0,0 l/m 8,7 km/h (2 Bft) SW 227 0 min 0,000 mm 0,0 UV-I 0 W/m 10,5 C 11,4 C 12,9 km/h (3 Bft) 94,29 %
13.10.2017 05:52 12,7 C 11,7 C 86 % 1025,7 hPa 0,0 l/m 8,4 km/h (2 Bft) SW 227 0 min 0,000 mm 0,0 UV-I 0 W/m 10,4 C 11,5 C 14,5 km/h (3 Bft) 98,21 %
13.10.2017 05:54 12,7 C 11,7 C 86 % 1025,7 hPa 0,0 l/m 9,8 km/h (2 Bft) SW 234 0 min 0,000 mm 0,0 UV-I 0 W/m 10,4 C 10,7 C 14,5 km/h (3 Bft) 98,00 %
13.10.2017 05:56 12,7 C 11,7 C 87 % 1025,7 hPa 0,0 l/m 8,5 km/h (2 Bft) SW 230 0 min 0,000 mm 0,0 UV-I 0 W/m 10,6 C 11,4 C 11,3 km/h (2 Bft) 98,00 %
13.10.2017 05:58 12,7 C 11,7 C 87 % 1025,8 hPa 0,0 l/m 7,9 km/h (2 Bft) W-SW 244 0 min 0,000 mm 0,0 UV-I 0 W/m 10,6 C 11,7 C 12,9 km/h (3 Bft) 97,37 %
13.10.2017 06:00 12,7 C 11,7 C 87 % 1025,8 hPa 0,0 l/m 8,8 km/h (2 Bft) SW 232 0 min 0,025 mm 0,0 UV-I 0 W/m 10,6 C 11,2 C 11,3 km/h (2 Bft) 98,00 %
13.10.2017 06:02 12,7 C 11,7 C 87 % 1025,7 hPa 0,0 l/m 8,8 km/h (2 Bft) W-SW 250 0 min 0,000 mm 0,0 UV-I 0 W/m 10,6 C 11,2 C 14,5 km/h (3 Bft) 96,23 %
13.10.2017 06:04 12,7 C 11,7 C 87 % 1025,8 hPa 0,0 l/m 7,0 km/h (2 Bft) W 261 0 min 0,000 mm 0,0 UV-I 0 W/m 10,6 C 12,3 C 9,7 km/h (2 Bft) 95,12 %
13.10.2017 06:06 12,7 C 11,7 C 87 % 1025,8 hPa 0,0 l/m 6,6 km/h (2 Bft) W-SW 242 0 min 0,000 mm 0,0 UV-I 0 W/m 10,6 C 12,6 C 11,3 km/h (2 Bft) 97,73 %
13.10.2017 06:08 12,7 C 11,7 C 87 % 1025,8 hPa 0,0 l/m 7,9 km/h (2 Bft) SW 220 0 min 0,000 mm 0,0 UV-I 0 W/m 10,6 C 11,7 C 11,3 km/h (2 Bft) 98,11 %
13.10.2017 06:10 12,7 C 11,7 C 87 % 1025,8 hPa 0,0 l/m 7,9 km/h (2 Bft) W-SW 238 0 min 0,000 mm 0,0 UV-I 0 W/m 10,6 C 11,7 C 11,3 km/h (2 Bft) 97,56 %
13.10.2017 06:12 12,7 C 11,7 C 87 % 1025,8 hPa 0,0 l/m 9,1 km/h (2 Bft) SW 228 0 min 0,000 mm 0,0 UV-I 0 W/m 10,6 C 11,1 C 12,9 km/h (3 Bft) 96,23 %
13.10.2017 06:14 12,7 C 11,7 C 87 % 1025,8 hPa 0,0 l/m 8,9 km/h (2 Bft) SW 228 0 min 0,000 mm 0,0 UV-I 0 W/m 10,6 C 11,2 C 12,9 km/h (3 Bft) 97,62 %
13.10.2017 06:16 12,7 C 11,7 C 87 % 1025,8 hPa 0,0 l/m 9,8 km/h (2 Bft) SW 234 0 min 0,000 mm 0,0 UV-I 0 W/m 10,6 C 10,7 C 14,5 km/h (3 Bft) 100,00 %
13.10.2017 06:18 12,7 C 11,7 C 87 % 1025,8 hPa 0,0 l/m 10,4 km/h (2 Bft) W-SW 253 0 min 0,000 mm 0,0 UV-I 0 W/m 10,6 C 10,4 C 14,5 km/h (3 Bft) 98,00 %
13.10.2017 06:20 12,7 C 11,7 C 87 % 1025,8 hPa 0,0 l/m 12,4 km/h (3 Bft) W-SW 240 0 min 0,000 mm 0,0 UV-I 0 W/m 10,6 C 9,4 C 16,1 km/h (3 Bft) 100,00 %
13.10.2017 06:22 12,7 C 11,7 C 87 % 1025,8 hPa 0,0 l/m 10,6 km/h (2 Bft) SW 233 0 min 0,000 mm 0,0 UV-I 0 W/m 10,6 C 10,3 C 16,1 km/h (3 Bft) 100,00 %
13.10.2017 06:24 12,7 C 11,7 C 87 % 1025,9 hPa 0,0 l/m 9,5 km/h (2 Bft) W-SW 247 0 min 0,000 mm 0,0 UV-I 0 W/m 10,6 C 10,8 C 12,9 km/h (3 Bft) 100,00 %
13.10.2017 06:26 12,7 C 11,7 C 87 % 1025,9 hPa 0,0 l/m 7,6 km/h (2 Bft) W 263 0 min 0,000 mm 0,0 UV-I 0 W/m 10,6 C 11,9 C 12,9 km/h (3 Bft) 100,00 %
13.10.2017 06:28 12,7 C 11,7 C 87 % 1026,0 hPa 0,0 l/m 9,9 km/h (2 Bft) W-SW 256 0 min 0,000 mm 0,0 UV-I 0 W/m 10,6 C 10,6 C 14,5 km/h (3 Bft) 100,00 %
13.10.2017 06:30 12,7 C 11,7 C 87 % 1026,0 hPa 0,0 l/m 8,6 km/h (2 Bft) W-SW 247 0 min 0,000 mm 0,0 UV-I 0 W/m 10,6 C 11,3 C 12,9 km/h (3 Bft) 100,00 %
13.10.2017 06:32 12,7 C 11,7 C 87 % 1026,0 hPa 0,0 l/m 6,9 km/h (2 Bft) SW 235 0 min 0,000 mm 0,0 UV-I 0 W/m 10,6 C 12,4 C 12,9 km/h (3 Bft) 100,00 %
13.10.2017 06:34 12,7 C 11,7 C 87 % 1026,0 hPa 0,0 l/m 8,3 km/h (2 Bft) W 271 0 min 0,000 mm 0,0 UV-I 0 W/m 10,6 C 11,5 C 12,9 km/h (3 Bft) 100,00 %
13.10.2017 06:36 12,7 C 11,7 C 87 % 1026,0 hPa 0,0 l/m 7,5 km/h (2 Bft) S-SW 202 0 min 0,000 mm 0,0 UV-I 0 W/m 10,6 C 12,0 C 11,3 km/h (2 Bft) 100,00 %
13.10.2017 06:38 12,7 C 11,7 C 87 % 1026,0 hPa 0,0 l/m 8,8 km/h (2 Bft) SW 236 0 min 0,000 mm 0,0 UV-I 0 W/m 10,6 C 11,2 C 14,5 km/h (3 Bft) 97,56 %
13.10.2017 06:40 12,7 C 11,7 C 87 % 1026,0 hPa 0,0 l/m 9,2 km/h (2 Bft) SW 234 0 min 0,000 mm 0,0 UV-I 0 W/m 10,6 C 11,0 C 16,1 km/h (3 Bft) 100,00 %
13.10.2017 06:42 12,7 C 11,7 C 87 % 1025,9 hPa 0,0 l/m 8,0 km/h (2 Bft) W-SW 247 0 min 0,000 mm 0,0 UV-I 0 W/m 10,6 C 11,7 C 14,5 km/h (3 Bft) 100,00 %
13.10.2017 06:44 12,7 C 11,7 C 87 % 1026,0 hPa 0,0 l/m 9,7 km/h (2 Bft) W-SW 250 0 min 0,000 mm 0,0 UV-I 0 W/m 10,6 C 10,7 C 12,9 km/h (3 Bft) 100,00 %
13.10.2017 06:46 12,7 C 11,7 C 87 % 1026,0 hPa 0,0 l/m 8,6 km/h (2 Bft) W-SW 250 0 min 0,000 mm 0,0 UV-I 0 W/m 10,6 C 11,3 C 11,3 km/h (2 Bft) 100,00 %
13.10.2017 06:48 12,7 C 11,7 C 87 % 1026,0 hPa 0,0 l/m 6,2 km/h (2 Bft) W-SW 248 0 min 0,000 mm 0,0 UV-I 0 W/m 10,6 C 12,7 C 8,0 km/h (2 Bft) 100,00 %
13.10.2017 06:50 12,7 C 11,7 C 87 % 1026,0 hPa 0,0 l/m 8,6 km/h (2 Bft) SW 224 0 min 0,000 mm 0,0 UV-I 0 W/m 10,6 C 11,3 C 12,9 km/h (3 Bft) 97,37 %
13.10.2017 06:52 12,7 C 11,7 C 87 % 1026,0 hPa 0,0 l/m 7,7 km/h (2 Bft) S-SW 209 0 min 0,000 mm 0,0 UV-I 0 W/m 10,6 C 11,9 C 12,9 km/h (3 Bft) 97,62 %
13.10.2017 06:54 12,7 C 11,7 C 87 % 1026,1 hPa 0,0 l/m 9,2 km/h (2 Bft) W-SW 244 0 min 0,000 mm 0,0 UV-I 0 W/m 10,6 C 11,0 C 14,5 km/h (3 Bft) 96,55 %
13.10.2017 06:56 12,7 C 11,7 C 87 % 1026,1 hPa 0,0 l/m 7,9 km/h (2 Bft) W-SW 248 0 min 0,000 mm 0,0 UV-I 0 W/m 10,6 C 11,7 C 11,3 km/h (2 Bft) 100,00 %
13.10.2017 06:58 12,6 C 11,7 C 87 % 1026,1 hPa 0,0 l/m 7,6 km/h (2 Bft) SW 227 0 min 0,000 mm 0,0 UV-I 0 W/m 10,5 C 11,8 C 11,3 km/h (2 Bft) 100,00 %
13.10.2017 07:00 12,6 C 11,7 C 87 % 1026,2 hPa 0,0 l/m 7,0 km/h (2 Bft) W 267 0 min 0,026 mm 0,0 UV-I 0 W/m 10,5 C 12,2 C 12,9 km/h (3 Bft) 97,56 %
13.10.2017 07:02 12,6 C 11,7 C 87 % 1026,2 hPa 0,0 l/m 8,5 km/h (2 Bft) SW 217 0 min 0,000 mm 0,0 UV-I 0 W/m 10,5 C 11,3 C 12,9 km/h (3 Bft) 97,87 %
13.10.2017 07:04 12,6 C 11,7 C 87 % 1026,2 hPa 0,0 l/m 8,1 km/h (2 Bft) SW 217 0 min 0,000 mm 0,0 UV-I 0 W/m 10,5 C 11,5 C 11,3 km/h (2 Bft) 98,11 %
13.10.2017 07:06 12,6 C 11,7 C 87 % 1026,2 hPa 0,0 l/m 10,2 km/h (2 Bft) W-SW 240 0 min 0,000 mm 0,0 UV-I 0 W/m 10,5 C 10,4 C 14,5 km/h (3 Bft) 100,00 %
13.10.2017 07:08 12,6 C 11,7 C 87 % 1026,2 hPa 0,0 l/m 11,5 km/h (2 Bft) SW 222 0 min 0,000 mm 0,0 UV-I 1 W/m 10,5 C 9,7 C 16,1 km/h (3 Bft) 100,00 %
13.10.2017 07:10 12,6 C 11,7 C 87 % 1026,2 hPa 0,0 l/m 10,1 km/h (2 Bft) W-SW 245 0 min 0,000 mm 0,0 UV-I 5 W/m 10,5 C 10,4 C 14,5 km/h (3 Bft) 97,56 %
13.10.2017 07:12 12,6 C 11,7 C 87 % 1026,1 hPa 0,0 l/m 9,7 km/h (2 Bft) SW 236 0 min 0,000 mm 0,0 UV-I 5 W/m 10,5 C 10,6 C 14,5 km/h (3 Bft) 100,00 %
13.10.2017 07:14 12,6 C 11,7 C 88 % 1026,2 hPa 0,0 l/m 10,5 km/h (2 Bft) S-SW 211 0 min 0,000 mm 0,0 UV-I 5 W/m 10,7 C 10,2 C 16,1 km/h (3 Bft) 100,00 %
13.10.2017 07:16 12,6 C 11,7 C 88 % 1026,2 hPa 0,0 l/m 8,8 km/h (2 Bft) SW 227 0 min 0,000 mm 0,0 UV-I 5 W/m 10,7 C 11,1 C 12,9 km/h (3 Bft) 100,00 %
13.10.2017 07:18 12,6 C 11,7 C 88 % 1026,1 hPa 0,0 l/m 8,2 km/h (2 Bft) SW 215 0 min 0,000 mm 0,0 UV-I 5 W/m 10,7 C 11,5 C 12,9 km/h (3 Bft) 100,00 %
13.10.2017 07:20 12,6 C 11,7 C 88 % 1026,2 hPa 0,0 l/m 9,7 km/h (2 Bft) W-SW 248 0 min 0,000 mm 0,0 UV-I 5 W/m 10,7 C 10,6 C 14,5 km/h (3 Bft) 100,00 %
13.10.2017 07:22 12,6 C 11,7 C 88 % 1026,3 hPa 0,0 l/m 9,2 km/h (2 Bft) W-SW 253 0 min 0,000 mm 0,0 UV-I 5 W/m 10,7 C 10,9 C 14,5 km/h (3 Bft) 100,00 %
13.10.2017 07:24 12,6 C 11,7 C 88 % 1026,3 hPa 0,0 l/m 9,1 km/h (2 Bft) SW 229 0 min 0,000 mm 0,0 UV-I 5 W/m 10,7 C 10,9 C 16,1 km/h (3 Bft) 100,00 %
13.10.2017 07:26 12,6 C 11,7 C 88 % 1026,3 hPa 0,0 l/m 8,2 km/h (2 Bft) W-SW 250 0 min 0,000 mm 0,0 UV-I 6 W/m 10,7 C 11,5 C 14,5 km/h (3 Bft) 97,56 %
13.10.2017 07:28 12,6 C 11,7 C 88 % 1026,3 hPa 0,0 l/m 11,4 km/h (2 Bft) W-SW 238 0 min 0,000 mm 0,0 UV-I 7 W/m 10,7 C 9,8 C 17,7 km/h (3 Bft) 100,00 %
13.10.2017 07:30 12,6 C 11,7 C 88 % 1026,3 hPa 0,0 l/m 10,0 km/h (2 Bft) W-SW 238 0 min 0,000 mm 0,0 UV-I 8 W/m 10,7 C 10,5 C 14,5 km/h (3 Bft) 97,87 %
13.10.2017 07:32 12,6 C 11,7 C 88 % 1026,3 hPa 0,0 l/m 8,6 km/h (2 Bft) SW 220 0 min 0,000 mm 0,0 UV-I 9 W/m 10,7 C 11,2 C 12,9 km/h (3 Bft) 98,18 %
13.10.2017 07:34 12,6 C 11,7 C 88 % 1026,3 hPa 0,0 l/m 10,3 km/h (2 Bft) W-SW 240 0 min 0,000 mm 0,0 UV-I 9 W/m 10,7 C 10,3 C 14,5 km/h (3 Bft) 100,00 %
13.10.2017 07:36 12,6 C 11,7 C 88 % 1026,3 hPa 0,0 l/m 7,9 km/h (2 Bft) W-SW 241 0 min 0,000 mm 0,0 UV-I 11 W/m 10,7 C 11,6 C 12,9 km/h (3 Bft) 96,23 %
13.10.2017 07:38 12,6 C 11,7 C 88 % 1026,4 hPa 0,0 l/m 8,8 km/h (2 Bft) S-SW 211 0 min 0,000 mm 0,0 UV-I 12 W/m 10,7 C 11,1 C 14,5 km/h (3 Bft) 100,00 %
13.10.2017 07:40 12,6 C 11,7 C 88 % 1026,4 hPa 0,0 l/m 9,8 km/h (2 Bft) SW 235 0 min 0,000 mm 0,0 UV-I 12 W/m 10,7 C 10,6 C 16,1 km/h (3 Bft) 100,00 %
13.10.2017 07:42 12,6 C 11,7 C 88 % 1026,4 hPa 0,0 l/m 8,0 km/h (2 Bft) SW 223 0 min 0,000 mm 0,0 UV-I 13 W/m 10,7 C 11,6 C 11,3 km/h (2 Bft) 100,00 %
13.10.2017 07:44 12,6 C 11,7 C 88 % 1026,4 hPa 0,0 l/m 9,4 km/h (2 Bft) SW 227 0 min 0,000 mm 0,0 UV-I 13 W/m 10,7 C 10,8 C 14,5 km/h (3 Bft) 95,12 %
13.10.2017 07:46 12,6 C 11,7 C 88 % 1026,5 hPa 0,0 l/m 11,1 km/h (2 Bft) SW 235 0 min 0,000 mm 0,0 UV-I 13 W/m 10,7 C 9,9 C 17,7 km/h (3 Bft) 96,23 %
13.10.2017 07:48 12,6 C 11,7 C 88 % 1026,5 hPa 0,0 l/m 8,0 km/h (2 Bft) SW 221 0 min 0,000 mm 0,0 UV-I 12 W/m 10,7 C 11,6 C 11,3 km/h (2 Bft) 97,73 %
13.10.2017 07:50 12,6 C 11,7 C 88 % 1026,5 hPa 0,0 l/m 10,2 km/h (2 Bft) SW 222 0 min 0,000 mm 0,0 UV-I 14 W/m 10,7 C 10,4 C 14,5 km/h (3 Bft) 98,00 %
13.10.2017 07:52 12,7 C 11,7 C 88 % 1026,5 hPa 0,0 l/m 8,5 km/h (2 Bft) W-SW 240 0 min 0,000 mm 0,0 UV-I 18 W/m 10,8 C 11,4 C 12,9 km/h (3 Bft) 97,56 %
13.10.2017 07:54 12,7 C 11,7 C 88 % 1026,5 hPa 0,0 l/m 11,4 km/h (2 Bft) SW 218 0 min 0,000 mm 0,0 UV-I 21 W/m 10,8 C 9,9 C 17,7 km/h (3 Bft) 97,37 %
13.10.2017 07:56 12,7 C 11,7 C 88 % 1026,5 hPa 0,0 l/m 12,2 km/h (2 Bft) SW 232 0 min 0,000 mm 0,0 UV-I 23 W/m 10,8 C 9,5 C 17,7 km/h (3 Bft) 98,21 %
13.10.2017 07:58 12,7 C 11,7 C 88 % 1026,5 hPa 0,0 l/m 9,9 km/h (2 Bft) SW 219 0 min 0,000 mm 0,0 UV-I 27 W/m 10,8 C 10,6 C 16,1 km/h (3 Bft) 97,73 %
13.10.2017 08:00 12,7 C 11,7 C 88 % 1026,6 hPa 0,0 l/m 10,6 km/h (2 Bft) SW 236 0 min 0,025 mm 0,0 UV-I 31 W/m 10,8 C 10,3 C 17,7 km/h (3 Bft) 95,45 %
13.10.2017 08:02 12,7 C 11,7 C 87 % 1026,5 hPa 0,0 l/m 10,8 km/h (2 Bft) S-SW 209 0 min 0,000 mm 0,0 UV-I 33 W/m 10,6 C 10,2 C 17,7 km/h (3 Bft) 97,62 %
13.10.2017 08:04 12,7 C 11,7 C 87 % 1026,6 hPa 0,0 l/m 10,4 km/h (2 Bft) SW 232 0 min 0,000 mm 0,0 UV-I 33 W/m 10,6 C 10,4 C 16,1 km/h (3 Bft) 91,80 %
13.10.2017 08:06 12,7 C 11,7 C 87 % 1026,6 hPa 0,0 l/m 11,0 km/h (2 Bft) SW 230 0 min 0,000 mm 0,0 UV-I 36 W/m 10,6 C 10,1 C 17,7 km/h (3 Bft) 98,00 %
13.10.2017 08:08 12,7 C 11,7 C 87 % 1026,7 hPa 0,0 l/m 10,9 km/h (2 Bft) SW 229 0 min 0,000 mm 0,0 UV-I 54 W/m 10,6 C 10,1 C 14,5 km/h (3 Bft) 92,11 %
13.10.2017 08:10 12,7 C 11,7 C 87 % 1026,7 hPa 0,0 l/m 11,3 km/h (2 Bft) W-SW 241 0 min 0,000 mm 0,0 UV-I 48 W/m 10,6 C 9,9 C 16,1 km/h (3 Bft) 98,15 %
13.10.2017 08:12 12,7 C 11,7 C 87 % 1026,7 hPa 0,0 l/m 8,2 km/h (2 Bft) SW 235 0 min 0,000 mm 0,0 UV-I 41 W/m 10,6 C 11,6 C 14,5 km/h (3 Bft) 97,22 %
13.10.2017 08:14 12,7 C 11,7 C 87 % 1026,7 hPa 0,0 l/m 8,2 km/h (2 Bft) SW 236 0 min 0,000 mm 0,0 UV-I 53 W/m 10,6 C 11,6 C 14,5 km/h (3 Bft) 98,00 %
13.10.2017 08:16 12,8 C 11,7 C 87 % 1026,7 hPa 0,0 l/m 11,3 km/h (2 Bft) SW 224 0 min 0,000 mm 0,0 UV-I 62 W/m 10,7 C 10,1 C 16,1 km/h (3 Bft) 95,74 %
13.10.2017 08:18 12,8 C 11,7 C 87 % 1026,8 hPa 0,0 l/m 9,5 km/h (2 Bft) S-SW 205 0 min 0,000 mm 0,0 UV-I 53 W/m 10,7 C 10,9 C 14,5 km/h (3 Bft) 100,00 %
13.10.2017 08:20 12,8 C 11,7 C 87 % 1026,8 hPa 0,0 l/m 8,9 km/h (2 Bft) W-SW 241 0 min 0,000 mm 0,0 UV-I 55 W/m 10,7 C 11,3 C 14,5 km/h (3 Bft) 98,00 %
13.10.2017 08:22 12,8 C 11,7 C 87 % 1026,9 hPa 0,0 l/m 6,4 km/h (2 Bft) W-SW 244 0 min 0,000 mm 0,0 UV-I 60 W/m 10,7 C 12,8 C 11,3 km/h (2 Bft) 98,00 %
13.10.2017 08:24 12,8 C 11,7 C 87 % 1026,9 hPa 0,0 l/m 7,0 km/h (2 Bft) W-SW 240 0 min 0,000 mm 0,0 UV-I 63 W/m 10,7 C 12,4 C 11,3 km/h (2 Bft) 94,74 %
13.10.2017 08:26 12,8 C 11,7 C 87 % 1026,9 hPa 0,0 l/m 7,9 km/h (2 Bft) W-SW 252 0 min 0,000 mm 0,0 UV-I 62 W/m 10,7 C 11,9 C 12,9 km/h (3 Bft) 97,87 %
13.10.2017 08:28 12,9 C 11,7 C 86 % 1026,9 hPa 0,0 l/m 8,3 km/h (2 Bft) SW 230 0 min 0,000 mm 0,0 UV-I 61 W/m 10,6 C 11,7 C 11,3 km/h (2 Bft) 94,00 %
13.10.2017 08:30 12,9 C 11,7 C 86 % 1026,9 hPa 0,0 l/m 7,2 km/h (2 Bft) SW 232 0 min 0,000 mm 0,0 UV-I 62 W/m 10,6 C 12,4 C 11,3 km/h (2 Bft) 98,00 %
13.10.2017 08:32 12,9 C 11,7 C 86 % 1026,9 hPa 0,0 l/m 8,5 km/h (2 Bft) S-SW 209 0 min 0,000 mm 0,0 UV-I 62 W/m 10,6 C 11,6 C 12,9 km/h (3 Bft) 96,15 %
13.10.2017 08:34 12,9 C 11,7 C 86 % 1027,0 hPa 0,0 l/m 6,4 km/h (2 Bft) W-SW 238 0 min 0,000 mm 0,0 UV-I 62 W/m 10,6 C 12,9 C 9,7 km/h (2 Bft) 96,61 %
13.10.2017 08:36 13,0 C 11,7 C 86 % 1026,9 hPa 0,0 l/m 6,2 km/h (2 Bft) W-SW 240 0 min 0,000 mm 0,0 UV-I 62 W/m 10,7 C 13,0 C 11,3 km/h (2 Bft) 98,21 %
13.10.2017 08:38 13,0 C 11,7 C 86 % 1027,0 hPa 0,0 l/m 8,2 km/h (2 Bft) S-SW 211 0 min 0,000 mm 0,0 UV-I 64 W/m 10,7 C 11,9 C 12,9 km/h (3 Bft) 98,00 %
13.10.2017 08:40 13,0 C 11,7 C 86 % 1026,9 hPa 0,0 l/m 6,4 km/h (2 Bft) S-SW 200 0 min 0,000 mm 0,0 UV-I 65 W/m 10,7 C 13,0 C 9,7 km/h (2 Bft) 97,14 %
13.10.2017 08:42 13,0 C 11,7 C 86 % 1027,0 hPa 0,0 l/m 5,0 km/h (1 Bft) S-SW 208 0 min 0,000 mm 0,0 UV-I 74 W/m 10,7 C 13,0 C 8,0 km/h (2 Bft) 97,87 %
13.10.2017 08:44 13,0 C 11,7 C 86 % 1027,0 hPa 0,0 l/m 5,5 km/h (1 Bft) SW 234 0 min 0,000 mm 0,0 UV-I 91 W/m 10,7 C 13,0 C 9,7 km/h (2 Bft) 97,87 %
13.10.2017 08:46 13,0 C 11,7 C 86 % 1027,0 hPa 0,0 l/m 8,2 km/h (2 Bft) W-SW 242 0 min 0,000 mm 0,0 UV-I 95 W/m 10,7 C 11,9 C 11,3 km/h (2 Bft) 96,43 %
13.10.2017 08:48 13,1 C 11,7 C 86 % 1027,1 hPa 0,0 l/m 8,9 km/h (2 Bft) SW 226 0 min 0,000 mm 0,0 UV-I 101 W/m 10,8 C 11,6 C 12,9 km/h (3 Bft) 97,56 %
13.10.2017 08:50 13,1 C 11,7 C 86 % 1027,1 hPa 0,0 l/m 7,1 km/h (2 Bft) SW 233 0 min 0,000 mm 0,0 UV-I 90 W/m 10,8 C 12,7 C 11,3 km/h (2 Bft) 96,00 %
13.10.2017 08:52 13,1 C 11,7 C 86 % 1027,1 hPa 0,0 l/m 7,0 km/h (2 Bft) W-SW 249 0 min 0,000 mm 0,0 UV-I 87 W/m 10,8 C 12,7 C 9,7 km/h (2 Bft) 97,44 %
13.10.2017 08:54 13,2 C 11,7 C 86 % 1027,1 hPa 0,0 l/m 8,1 km/h (2 Bft) SW 223 0 min 0,000 mm 0,0 UV-I 92 W/m 10,9 C 12,2 C 12,9 km/h (3 Bft) 98,00 %
13.10.2017 08:56 13,2 C 11,7 C 86 % 1027,1 hPa 0,0 l/m 7,1 km/h (2 Bft) W-SW 246 0 min 0,000 mm 0,0 UV-I 93 W/m 10,9 C 12,8 C 12,9 km/h (3 Bft) 97,87 %
13.10.2017 08:58 13,2 C 11,7 C 86 % 1027,1 hPa 0,0 l/m 6,3 km/h (2 Bft) SW 225 0 min 0,000 mm 0,0 UV-I 88 W/m 10,9 C 13,2 C 9,7 km/h (2 Bft) 95,45 %
13.10.2017 09:00 13,2 C 11,7 C 86 % 1027,1 hPa 0,0 l/m 7,8 km/h (2 Bft) W-SW 245 0 min 0,051 mm 0,0 UV-I 96 W/m 10,9 C 12,3 C 12,9 km/h (3 Bft) 98,31 %
13.10.2017 09:02 13,3 C 11,7 C 86 % 1027,1 hPa 0,0 l/m 6,7 km/h (2 Bft) SW 232 0 min 0,000 mm 0,0 UV-I 105 W/m 11,0 C 13,1 C 9,7 km/h (2 Bft) 96,15 %
13.10.2017 09:04 13,3 C 11,7 C 85 % 1027,1 hPa 0,0 l/m 7,9 km/h (2 Bft) SW 229 0 min 0,000 mm 0,0 UV-I 111 W/m 10,8 C 12,4 C 11,3 km/h (2 Bft) 98,11 %
13.10.2017 09:06 13,3 C 11,7 C 85 % 1027,2 hPa 0,0 l/m 6,9 km/h (2 Bft) S-SW 211 0 min 0,000 mm 0,0 UV-I 119 W/m 10,8 C 13,0 C 9,7 km/h (2 Bft) 94,64 %
13.10.2017 09:08 13,4 C 11,7 C 85 % 1027,1 hPa 0,0 l/m 6,4 km/h (2 Bft) SW 231 0 min 0,000 mm 0,0 UV-I 124 W/m 10,9 C 13,4 C 9,7 km/h (2 Bft) 97,37 %
13.10.2017 09:10 13,4 C 11,7 C 85 % 1027,2 hPa 0,0 l/m 8,5 km/h (2 Bft) W-SW 250 0 min 0,000 mm 0,0 UV-I 126 W/m 10,9 C 12,1 C 14,5 km/h (3 Bft) 98,00 %
13.10.2017 09:13 13,5 C 11,7 C 85 % 1027,2 hPa 0,0 l/m 9,0 km/h (2 Bft) SW 219 0 min 0,000 mm 0,0 UV-I 123 W/m 11,0 C 12,0 C 14,5 km/h (3 Bft) 97,40 %
13.10.2017 09:14 13,6 C 11,7 C 84 % 1027,2 hPa 0,0 l/m 12,9 km/h (3 Bft) SW 234 0 min 0,000 mm 0,0 UV-I 128 W/m 10,9 C 10,3 C 16,1 km/h (3 Bft) 95,65 %
13.10.2017 09:16 13,6 C 11,7 C 84 % 1027,2 hPa 0,0 l/m 9,9 km/h (2 Bft) W 267 0 min 0,000 mm 0,0 UV-I 135 W/m 10,9 C 11,6 C 16,1 km/h (3 Bft) 97,56 %
13.10.2017 09:18 13,6 C 11,7 C 84 % 1027,2 hPa 0,0 l/m 7,5 km/h (2 Bft) W-SW 240 0 min 0,000 mm 0,0 UV-I 122 W/m 10,9 C 12,9 C 14,5 km/h (3 Bft) 96,23 %
13.10.2017 09:20 13,6 C 11,7 C 84 % 1027,2 hPa 0,0 l/m 8,0 km/h (2 Bft) SW 236 0 min 0,000 mm 0,0 UV-I 107 W/m 10,9 C 12,6 C 14,5 km/h (3 Bft) 97,73 %
13.10.2017 09:22 13,7 C 11,7 C 84 % 1027,2 hPa 0,0 l/m 8,2 km/h (2 Bft) SW 232 0 min 0,000 mm 0,5 UV-I 120 W/m 11,0 C 12,6 C 12,9 km/h (3 Bft) 98,00 %
13.10.2017 09:24 13,7 C 11,7 C 84 % 1027,2 hPa 0,0 l/m 7,0 km/h (2 Bft) SW 235 0 min 0,000 mm 0,5 UV-I 135 W/m 11,0 C 13,3 C 11,3 km/h (2 Bft) 100,00 %
13.10.2017 09:26 13,7 C 11,7 C 84 % 1027,2 hPa 0,0 l/m 9,0 km/h (2 Bft) W-SW 245 0 min 0,000 mm 0,5 UV-I 147 W/m 11,0 C 12,2 C 12,9 km/h (3 Bft) 97,44 %
13.10.2017 09:28 13,7 C 11,7 C 84 % 1027,1 hPa 0,0 l/m 8,5 km/h (2 Bft) W 271 0 min 0,000 mm 0,5 UV-I 134 W/m 11,0 C 12,5 C 14,5 km/h (3 Bft) 100,00 %
13.10.2017 09:30 13,8 C 11,7 C 84 % 1027,1 hPa 0,0 l/m 7,7 km/h (2 Bft) SW 234 0 min 0,000 mm 0,5 UV-I 121 W/m 11,1 C 13,0 C 14,5 km/h (3 Bft) 100,00 %
13.10.2017 09:32 13,8 C 11,7 C 84 % 1027,1 hPa 0,0 l/m 7,6 km/h (2 Bft) SW 231 0 min 0,000 mm 0,5 UV-I 118 W/m 11,1 C 13,1 C 11,3 km/h (2 Bft) 100,00 %
13.10.2017 09:34 13,8 C 11,7 C 84 % 1027,2 hPa 0,0 l/m 8,8 km/h (2 Bft) W-SW 243 0 min 0,000 mm 0,6 UV-I 128 W/m 11,1 C 12,4 C 12,9 km/h (3 Bft) 100,00 %
13.10.2017 09:36 13,8 C 11,7 C 83 % 1027,2 hPa 0,0 l/m 8,6 km/h (2 Bft) W-SW 244 0 min 0,000 mm 0,6 UV-I 160 W/m 11,0 C 12,5 C 12,9 km/h (3 Bft) 97,37 %
13.10.2017 09:38 13,9 C 11,7 C 83 % 1027,1 hPa 0,0 l/m 9,3 km/h (2 Bft) S-SW 205 2 min 0,000 mm 0,7 UV-I 206 W/m 11,1 C 12,2 C 14,5 km/h (3 Bft) 100,00 %
13.10.2017 09:40 14,0 C 11,7 C 83 % 1027,1 hPa 0,0 l/m 8,0 km/h (2 Bft) SW 215 2 min 0,000 mm 0,7 UV-I 318 W/m 11,2 C 13,1 C 12,9 km/h (3 Bft) 100,00 %
13.10.2017 09:42 14,1 C 11,7 C 83 % 1027,1 hPa 0,0 l/m 8,9 km/h (2 Bft) S-SW 206 2 min 0,000 mm 0,8 UV-I 348 W/m 11,3 C 12,7 C 14,5 km/h (3 Bft) 97,87 %
13.10.2017 09:44 14,2 C 11,7 C 82 % 1027,2 hPa 0,0 l/m 9,3 km/h (2 Bft) SW 225 2 min 0,000 mm 0,8 UV-I 326 W/m 11,2 C 12,6 C 17,7 km/h (3 Bft) 97,87 %
13.10.2017 09:46 14,4 C 11,7 C 82 % 1027,1 hPa 0,0 l/m 8,4 km/h (2 Bft) W-SW 251 2 min 0,000 mm 0,8 UV-I 352 W/m 11,4 C 13,3 C 16,1 km/h (3 Bft) 97,56 %
13.10.2017 09:48 14,5 C 11,7 C 81 % 1027,1 hPa 0,0 l/m 10,2 km/h (2 Bft) W-SW 238 2 min 0,000 mm 0,8 UV-I 362 W/m 11,3 C 12,5 C 14,5 km/h (3 Bft) 96,00 %
13.10.2017 09:50 14,7 C 11,7 C 80 % 1027,2 hPa 0,0 l/m 10,3 km/h (2 Bft) S-SW 199 2 min 0,000 mm 0,9 UV-I 378 W/m 11,3 C 12,6 C 16,1 km/h (3 Bft) 96,00 %
13.10.2017 09:52 14,7 C 11,7 C 79 % 1027,1 hPa 0,0 l/m 9,9 km/h (2 Bft) S-SW 209 2 min 0,000 mm 0,9 UV-I 386 W/m 11,1 C 12,8 C 16,1 km/h (3 Bft) 95,12 %
13.10.2017 09:54 14,9 C 11,7 C 80 % 1027,0 hPa 0,0 l/m 9,4 km/h (2 Bft) W-SW 240 2 min 0,000 mm 0,9 UV-I 398 W/m 11,5 C 13,3 C 16,1 km/h (3 Bft) 98,00 %
13.10.2017 09:56 15,0 C 11,7 C 78 % 1027,1 hPa 0,0 l/m 9,8 km/h (2 Bft) W-SW 252 2 min 0,000 mm 0,9 UV-I 400 W/m 11,2 C 13,2 C 16,1 km/h (3 Bft) 97,73 %
13.10.2017 09:58 15,2 C 11,7 C 79 % 1027,1 hPa 0,0 l/m 9,7 km/h (2 Bft) SW 236 2 min 0,000 mm 0,9 UV-I 417 W/m 11,6 C 13,5 C 16,1 km/h (3 Bft) 97,73 %
13.10.2017 10:00 15,3 C 11,7 C 78 % 1027,0 hPa 0,0 l/m 8,4 km/h (2 Bft) SW 218 2 min 0,000 mm 1,0 UV-I 419 W/m 11,5 C 14,2 C 14,5 km/h (3 Bft) 97,62 %
13.10.2017 10:02 15,4 C 11,7 C 76 % 1027,1 hPa 0,0 l/m 13,3 km/h (3 Bft) W-SW 248 2 min 0,127 mm 1,0 UV-I 357 W/m 11,2 C 12,3 C 19,3 km/h (3 Bft) 98,18 %
13.10.2017 10:04 15,5 C 11,7 C 76 % 1027,0 hPa 0,0 l/m 11,9 km/h (2 Bft) SW 214 2 min 0,000 mm 1,0 UV-I 444 W/m 11,3 C 12,9 C 19,3 km/h (3 Bft) 97,62 %
13.10.2017 10:06 15,5 C 11,7 C 75 % 1027,0 hPa 0,0 l/m 9,6 km/h (2 Bft) W-SW 251 2 min 0,000 mm 0,9 UV-I 386 W/m 11,1 C 13,8 C 14,5 km/h (3 Bft) 95,74 %
13.10.2017 10:08 15,5 C 11,7 C 75 % 1027,1 hPa 0,0 l/m 10,9 km/h (2 Bft) SW 229 2 min 0,000 mm 1,1 UV-I 386 W/m 11,1 C 13,3 C 17,7 km/h (3 Bft) 94,34 %
13.10.2017 10:10 15,5 C 11,7 C 75 % 1026,9 hPa 0,0 l/m 10,3 km/h (2 Bft) W-SW 244 2 min 0,000 mm 1,0 UV-I 412 W/m 11,1 C 13,5 C 19,3 km/h (3 Bft) 100,00 %
13.10.2017 10:12 15,6 C 11,7 C 75 % 1027,1 hPa 0,0 l/m 10,3 km/h (2 Bft) SW 223 2 min 0,000 mm 1,0 UV-I 413 W/m 11,2 C 13,7 C 17,7 km/h (3 Bft) 94,87 %
13.10.2017 10:14 15,6 C 11,7 C 75 % 1027,1 hPa 0,0 l/m 11,5 km/h (2 Bft) SW 236 2 min 0,000 mm 1,0 UV-I 321 W/m 11,2 C 13,2 C 17,7 km/h (3 Bft) 98,11 %
13.10.2017 10:16 15,6 C 11,7 C 74 % 1026,9 hPa 0,0 l/m 14,0 km/h (3 Bft) SW 232 2 min 0,000 mm 1,1 UV-I 352 W/m 11,0 C 12,2 C 19,3 km/h (3 Bft) 100,00 %
13.10.2017 10:18 15,6 C 11,7 C 75 % 1027,0 hPa 0,0 l/m 10,2 km/h (2 Bft) W 267 2 min 0,000 mm 1,1 UV-I 336 W/m 11,2 C 13,7 C 16,1 km/h (3 Bft) 100,00 %
13.10.2017 10:20 15,7 C 11,7 C 75 % 1027,0 hPa 0,0 l/m 9,4 km/h (2 Bft) W-SW 241 2 min 0,000 mm 1,2 UV-I 385 W/m 11,3 C 14,2 C 17,7 km/h (3 Bft) 100,00 %
13.10.2017 10:22 15,7 C 11,7 C 75 % 1027,1 hPa 0,0 l/m 11,9 km/h (2 Bft) W-SW 252 2 min 0,000 mm 1,3 UV-I 425 W/m 11,3 C 13,1 C 19,3 km/h (3 Bft) 100,00 %
13.10.2017 10:24 15,8 C 11,7 C 74 % 1027,1 hPa 0,0 l/m 12,6 km/h (3 Bft) SW 222 2 min 0,000 mm 1,3 UV-I 472 W/m 11,2 C 13,0 C 19,3 km/h (3 Bft) 100,00 %
13.10.2017 10:26 15,8 C 11,7 C 73 % 1027,1 hPa 0,0 l/m 11,4 km/h (2 Bft) S-SW 199 2 min 0,000 mm 1,3 UV-I 460 W/m 11,0 C 13,4 C 17,7 km/h (3 Bft) 100,00 %
13.10.2017 10:28 15,9 C 11,7 C 73 % 1027,0 hPa 0,0 l/m 13,7 km/h (3 Bft) SW 225 2 min 0,000 mm 1,3 UV-I 470 W/m 11,1 C 12,7 C 19,3 km/h (3 Bft) 100,00 %
13.10.2017 10:30 15,9 C 11,7 C 73 % 1027,0 hPa 0,0 l/m 12,1 km/h (2 Bft) W 261 2 min 0,000 mm 1,4 UV-I 382 W/m 11,1 C 13,3 C 19,3 km/h (3 Bft) 98,00 %
13.10.2017 10:32 15,9 C 11,7 C 73 % 1027,1 hPa 0,0 l/m 11,2 km/h (2 Bft) W-NW 287 2 min 0,000 mm 1,3 UV-I 478 W/m 11,1 C 13,6 C 17,7 km/h (3 Bft) 97,56 %
13.10.2017 10:34 16,1 C 11,7 C 74 % 1027,0 hPa 0,0 l/m 7,0 km/h (2 Bft) SW 231 2 min 0,000 mm 1,3 UV-I 415 W/m 11,5 C 15,8 C 17,7 km/h (3 Bft) 100,00 %
13.10.2017 10:36 16,1 C 11,7 C 73 % 1027,0 hPa 0,0 l/m 11,4 km/h (2 Bft) SW 224 2 min 0,000 mm 1,3 UV-I 420 W/m 11,3 C 13,8 C 17,7 km/h (3 Bft) 100,00 %
13.10.2017 10:38 16,0 C 11,7 C 72 % 1027,1 hPa 0,0 l/m 10,1 km/h (2 Bft) SW 217 2 min 0,000 mm 1,2 UV-I 376 W/m 11,0 C 14,2 C 17,7 km/h (3 Bft) 100,00 %
13.10.2017 10:40 16,0 C 11,7 C 72 % 1027,1 hPa 0,0 l/m 11,3 km/h (2 Bft) W-SW 245 2 min 0,000 mm 1,3 UV-I 392 W/m 11,0 C 13,7 C 17,7 km/h (3 Bft) 100,00 %
13.10.2017 10:42 15,9 C 11,7 C 73 % 1027,2 hPa 0,0 l/m 11,3 km/h (2 Bft) W-SW 250 2 min 0,000 mm 1,2 UV-I 365 W/m 11,1 C 13,6 C 22,5 km/h (4 Bft) 100,00 %
13.10.2017 10:44 15,9 C 11,7 C 72 % 1027,1 hPa 0,0 l/m 12,8 km/h (3 Bft) W 271 2 min 0,000 mm 1,2 UV-I 311 W/m 10,9 C 13,0 C 19,3 km/h (3 Bft) 100,00 %
13.10.2017 10:46 15,8 C 11,7 C 73 % 1027,1 hPa 0,0 l/m 6,3 km/h (2 Bft) W 279 2 min 0,000 mm 1,2 UV-I 325 W/m 11,0 C 15,8 C 12,9 km/h (3 Bft) 100,00 %
13.10.2017 10:48 15,9 C 11,7 C 74 % 1027,1 hPa 0,0 l/m 9,3 km/h (2 Bft) W-SW 240 2 min 0,000 mm 1,2 UV-I 335 W/m 11,3 C 14,4 C 16,1 km/h (3 Bft) 100,00 %
13.10.2017 10:50 15,9 C 11,7 C 73 % 1027,1 hPa 0,0 l/m 12,2 km/h (2 Bft) W-SW 254 2 min 0,000 mm 1,1 UV-I 272 W/m 11,1 C 13,2 C 17,7 km/h (3 Bft) 100,00 %
13.10.2017 10:52 15,9 C 11,7 C 73 % 1027,2 hPa 0,0 l/m 12,9 km/h (3 Bft) W-SW 251 0 min 0,000 mm 1,0 UV-I 205 W/m 11,1 C 13,0 C 17,7 km/h (3 Bft) 100,00 %
13.10.2017 10:54 15,8 C 11,7 C 73 % 1027,2 hPa 0,0 l/m 8,0 km/h (2 Bft) W-NW 282 0 min 0,000 mm 1,1 UV-I 196 W/m 11,0 C 14,9 C 14,5 km/h (3 Bft) 97,87 %
13.10.2017 10:56 15,7 C 11,7 C 74 % 1027,2 hPa 0,0 l/m 9,9 km/h (2 Bft) W 265 0 min 0,000 mm 1,1 UV-I 214 W/m 11,1 C 13,9 C 19,3 km/h (3 Bft) 100,00 %
13.10.2017 10:58 15,7 C 11,7 C 73 % 1027,2 hPa 0,0 l/m 12,0 km/h (2 Bft) W-SW 255 2 min 0,000 mm 1,3 UV-I 325 W/m 10,9 C 13,1 C 19,3 km/h (3 Bft) 100,00 %
13.10.2017 11:00 15,8 C 11,7 C 73 % 1027,3 hPa 0,0 l/m 8,7 km/h (2 Bft) W 259 2 min 0,229 mm 1,5 UV-I 452 W/m 11,0 C 14,6 C 12,9 km/h (3 Bft) 100,00 %
13.10.2017 11:02 15,9 C 11,7 C 73 % 1027,2 hPa 0,0 l/m 7,8 km/h (2 Bft) W-SW 252 2 min 0,000 mm 1,4 UV-I 485 W/m 11,1 C 15,1 C 12,9 km/h (3 Bft) 100,00 %
13.10.2017 11:04 16,1 C 11,7 C 74 % 1027,3 hPa 0,0 l/m 11,9 km/h (2 Bft) W 274 2 min 0,000 mm 1,5 UV-I 426 W/m 11,5 C 13,6 C 19,3 km/h (3 Bft) 100,00 %
13.10.2017 11:06 16,1 C 11,7 C 73 % 1027,1 hPa 0,0 l/m 7,7 km/h (2 Bft) W-SW 248 2 min 0,000 mm 1,4 UV-I 286 W/m 11,3 C 15,4 C 14,5 km/h (3 Bft) 98,46 %
13.10.2017 11:08 16,1 C 11,7 C 72 % 1027,2 hPa 0,0 l/m 13,3 km/h (3 Bft) W-SW 244 0 min 0,000 mm 1,5 UV-I 267 W/m 11,0 C 13,1 C 20,9 km/h (4 Bft) 100,00 %
13.10.2017 11:10 16,1 C 11,7 C 72 % 1027,2 hPa 0,0 l/m 11,3 km/h (2 Bft) W-SW 242 2 min 0,000 mm 1,7 UV-I 462 W/m 11,0 C 13,8 C 17,7 km/h (3 Bft) 100,00 %
13.10.2017 11:12 16,2 C 11,7 C 72 % 1027,2 hPa 0,0 l/m 11,4 km/h (2 Bft) W 259 2 min 0,000 mm 1,7 UV-I 486 W/m 11,1 C 13,9 C 20,9 km/h (4 Bft) 98,11 %
13.10.2017 11:14 16,3 C 11,7 C 72 % 1027,2 hPa 0,0 l/m 9,1 km/h (2 Bft) W-SW 241 2 min 0,000 mm 1,8 UV-I 529 W/m 11,2 C 14,9 C 17,7 km/h (3 Bft) 100,00 %
13.10.2017 11:16 16,6 C 11,7 C 70 % 1027,2 hPa 0,0 l/m 11,5 km/h (2 Bft) W-SW 244 2 min 0,000 mm 1,9 UV-I 543 W/m 11,1 C 14,3 C 19,3 km/h (3 Bft) 100,00 %
13.10.2017 11:18 16,6 C 11,7 C 70 % 1027,2 hPa 0,0 l/m 12,4 km/h (3 Bft) W-NW 289 2 min 0,000 mm 1,9 UV-I 568 W/m 11,1 C 14,0 C 16,1 km/h (3 Bft) 100,00 %
13.10.2017 11:20 16,6 C 11,7 C 70 % 1027,2 hPa 0,0 l/m 11,7 km/h (2 Bft) W-SW 249 2 min 0,000 mm 1,9 UV-I 556 W/m 11,1 C 14,2 C 17,7 km/h (3 Bft) 100,00 %
13.10.2017 11:22 16,7 C 11,7 C 71 % 1027,2 hPa 0,0 l/m 10,0 km/h (2 Bft) SW 222 2 min 0,000 mm 1,7 UV-I 504 W/m 11,4 C 15,0 C 17,7 km/h (3 Bft) 98,00 %
13.10.2017 11:24 16,7 C 11,7 C 70 % 1027,1 hPa 0,0 l/m 12,6 km/h (3 Bft) W-SW 257 2 min 0,000 mm 1,7 UV-I 441 W/m 11,2 C 14,0 C 22,5 km/h (4 Bft) 100,00 %
13.10.2017 11:26 16,6 C 11,7 C 70 % 1027,1 hPa 0,0 l/m 10,6 km/h (2 Bft) W-NW 289 2 min 0,000 mm 1,7 UV-I 412 W/m 11,1 C 14,6 C 19,3 km/h (3 Bft) 97,44 %
13.10.2017 11:28 16,5 C 11,7 C 70 % 1027,2 hPa 0,0 l/m 14,4 km/h (3 Bft) W 270 2 min 0,000 mm 1,7 UV-I 439 W/m 11,0 C 13,2 C 19,3 km/h (3 Bft) 97,92 %
13.10.2017 11:30 16,4 C 11,7 C 70 % 1027,2 hPa 0,0 l/m 13,3 km/h (3 Bft) W 260 2 min 0,000 mm 1,8 UV-I 449 W/m 10,9 C 13,4 C 17,7 km/h (3 Bft) 97,56 %
13.10.2017 11:32 16,4 C 11,7 C 70 % 1027,2 hPa 0,0 l/m 11,1 km/h (2 Bft) W 273 2 min 0,000 mm 1,7 UV-I 438 W/m 10,9 C 14,2 C 19,3 km/h (3 Bft) 94,64 %
13.10.2017 11:34 16,4 C 11,7 C 70 % 1027,1 hPa 0,0 l/m 9,7 km/h (2 Bft) W-NW 286 2 min 0,000 mm 1,8 UV-I 435 W/m 10,9 C 14,8 C 16,1 km/h (3 Bft) 98,00 %
13.10.2017 11:36 16,4 C 11,7 C 70 % 1027,1 hPa 0,0 l/m 8,6 km/h (2 Bft) W-SW 255 2 min 0,000 mm 1,7 UV-I 420 W/m 10,9 C 15,3 C 12,9 km/h (3 Bft) 97,14 %
13.10.2017 11:38 16,4 C 11,7 C 70 % 1027,1 hPa 0,0 l/m 14,7 km/h (3 Bft) W-SW 254 2 min 0,000 mm 1,7 UV-I 432 W/m 10,9 C 13,0 C 20,9 km/h (4 Bft) 97,73 %
13.10.2017 11:40 16,4 C 11,7 C 70 % 1027,1 hPa 0,0 l/m 12,7 km/h (3 Bft) W-SW 249 2 min 0,000 mm 1,7 UV-I 383 W/m 10,9 C 13,6 C 17,7 km/h (3 Bft) 98,31 %
13.10.2017 11:42 16,4 C 11,7 C 70 % 1027,0 hPa 0,0 l/m 8,1 km/h (2 Bft) W-SW 250 2 min 0,000 mm 1,8 UV-I 327 W/m 10,9 C 15,5 C 11,3 km/h (2 Bft) 97,37 %
13.10.2017 11:44 16,5 C 11,7 C 71 % 1027,0 hPa 0,0 l/m 8,8 km/h (2 Bft) SW 223 2 min 0,000 mm 1,9 UV-I 428 W/m 11,2 C 15,3 C 12,9 km/h (3 Bft) 96,43 %
13.10.2017 11:46 16,7 C 11,7 C 71 % 1027,0 hPa 0,0 l/m 6,2 km/h (2 Bft) W-SW 246 2 min 0,000 mm 1,9 UV-I 448 W/m 11,4 C 16,7 C 16,1 km/h (3 Bft) 97,56 %
13.10.2017 11:48 16,7 C 11,7 C 70 % 1027,0 hPa 0,0 l/m 7,0 km/h (2 Bft) W 266 2 min 0,000 mm 1,9 UV-I 461 W/m 11,2 C 16,4 C 14,5 km/h (3 Bft) 96,23 %
13.10.2017 11:50 16,8 C 11,7 C 70 % 1027,0 hPa 0,0 l/m 8,9 km/h (2 Bft) SW 231 2 min 0,000 mm 1,8 UV-I 387 W/m 11,3 C 15,6 C 14,5 km/h (3 Bft) 97,87 %
13.10.2017 11:52 16,8 C 11,7 C 70 % 1027,0 hPa 0,0 l/m 11,2 km/h (2 Bft) W-NW 295 2 min 0,000 mm 2,0 UV-I 464 W/m 11,3 C 14,6 C 17,7 km/h (3 Bft) 100,00 %
13.10.2017 11:54 16,7 C 11,7 C 69 % 1027,0 hPa 0,0 l/m 8,6 km/h (2 Bft) W-NW 284 2 min 0,000 mm 1,7 UV-I 392 W/m 11,0 C 15,6 C 12,9 km/h (3 Bft) 97,01 %
13.10.2017 11:56 16,7 C 11,7 C 71 % 1027,0 hPa 0,0 l/m 6,8 km/h (2 Bft) W-SW 249 2 min 0,000 mm 1,7 UV-I 391 W/m 11,4 C 16,5 C 12,9 km/h (3 Bft) 100,00 %
13.10.2017 11:58 16,7 C 11,7 C 70 % 1027,0 hPa 0,0 l/m 11,8 km/h (2 Bft) W 260 2 min 0,000 mm 1,7 UV-I 320 W/m 11,2 C 14,3 C 16,1 km/h (3 Bft) 97,56 %
13.10.2017 12:00 16,7 C 11,7 C 70 % 1027,0 hPa 0,0 l/m 11,3 km/h (2 Bft) W-SW 254 0 min 0,000 mm 1,8 UV-I 282 W/m 11,2 C 14,5 C 17,7 km/h (3 Bft) 98,00 %
13.10.2017 12:02 16,7 C 11,7 C 69 % 1027,0 hPa 0,0 l/m 13,6 km/h (3 Bft) W-SW 252 2 min 0,279 mm 2,0 UV-I 431 W/m 11,0 C 13,7 C 17,7 km/h (3 Bft) 100,00 %
13.10.2017 12:04 16,6 C 11,7 C 70 % 1027,0 hPa 0,0 l/m 7,3 km/h (2 Bft) W 260 2 min 0,000 mm 1,8 UV-I 351 W/m 11,1 C 16,1 C 11,3 km/h (2 Bft) 100,00 %
13.10.2017 12:06 16,6 C 11,7 C 70 % 1026,9 hPa 0,0 l/m 6,5 km/h (2 Bft) W-SW 255 2 min 0,000 mm 1,9 UV-I 316 W/m 11,1 C 16,6 C 12,9 km/h (3 Bft) 100,00 %
13.10.2017 12:08 16,7 C 11,7 C 71 % 1027,0 hPa 0,0 l/m 5,9 km/h (2 Bft) SW 235 2 min 0,000 mm 2,2 UV-I 533 W/m 11,4 C 16,7 C 11,3 km/h (2 Bft) 100,00 %
13.10.2017 12:10 16,8 C 11,7 C 70 % 1026,9 hPa 0,0 l/m 9,7 km/h (2 Bft) W-SW 255 2 min 0,000 mm 2,3 UV-I 598 W/m 11,3 C 15,2 C 14,5 km/h (3 Bft) 100,00 %
13.10.2017 12:12 17,0 C 11,7 C 71 % 1026,9 hPa 0,0 l/m 2,4 km/h (1 Bft) SW 232 2 min 0,000 mm 2,3 UV-I 631 W/m 11,7 C 17,0 C 8,0 km/h (2 Bft) 100,00 %
13.10.2017 12:14 17,2 C 11,7 C 70 % 1026,9 hPa 0,0 l/m 3,1 km/h (1 Bft) W-NW 289 2 min 0,000 mm 2,4 UV-I 634 W/m 11,7 C 17,2 C 9,7 km/h (2 Bft) 100,00 %
13.10.2017 12:16 17,3 C 11,7 C 69 % 1026,9 hPa 0,0 l/m 3,0 km/h (1 Bft) SW 229 2 min 0,000 mm 2,3 UV-I 575 W/m 11,6 C 17,3 C 8,0 km/h (2 Bft) 100,00 %
13.10.2017 12:18 17,2 C 11,7 C 67 % 1026,9 hPa 0,0 l/m 3,6 km/h (1 Bft) O 84 2 min 0,000 mm 2,1 UV-I 468 W/m 11,0 C 17,2 C 9,7 km/h (2 Bft) 100,00 %
13.10.2017 12:20 17,1 C 11,7 C 68 % 1026,9 hPa 0,0 l/m 4,7 km/h (1 Bft) W-SW 240 2 min 0,000 mm 1,9 UV-I 394 W/m 11,1 C 17,1 C 12,9 km/h (3 Bft) 100,00 %
13.10.2017 12:22 16,9 C 11,7 C 69 % 1026,9 hPa 0,0 l/m 4,9 km/h (1 Bft) W 267 2 min 0,000 mm 1,8 UV-I 341 W/m 11,2 C 16,9 C 8,0 km/h (2 Bft) 98,11 %
13.10.2017 12:24 16,9 C 11,7 C 68 % 1026,9 hPa 0,0 l/m 6,2 km/h (2 Bft) SW 225 0 min 0,000 mm 1,8 UV-I 290 W/m 11,0 C 16,9 C 11,3 km/h (2 Bft) 100,00 %
13.10.2017 12:26 16,8 C 11,7 C 68 % 1027,0 hPa 0,0 l/m 11,0 km/h (2 Bft) SW 217 2 min 0,000 mm 1,9 UV-I 352 W/m 10,9 C 14,7 C 16,1 km/h (3 Bft) 100,00 %
13.10.2017 12:28 16,8 C 11,7 C 68 % 1027,0 hPa 0,0 l/m 7,4 km/h (2 Bft) SW 229 2 min 0,000 mm 2,0 UV-I 442 W/m 10,9 C 16,3 C 12,9 km/h (3 Bft) 100,00 %
13.10.2017 12:30 16,9 C 11,7 C 69 % 1026,9 hPa 0,0 l/m 5,1 km/h (1 Bft) W 278 2 min 0,000 mm 1,9 UV-I 311 W/m 11,2 C 16,9 C 11,3 km/h (2 Bft) 98,11 %
13.10.2017 12:32 17,0 C 11,7 C 69 % 1026,9 hPa 0,0 l/m 6,3 km/h (2 Bft) W-SW 245 0 min 0,000 mm 1,7 UV-I 267 W/m 11,3 C 17,0 C 12,9 km/h (3 Bft) 98,00 %
13.10.2017 12:34 16,9 C 11,7 C 68 % 1026,9 hPa 0,0 l/m 6,4 km/h (2 Bft) S-SW 206 2 min 0,000 mm 1,9 UV-I 311 W/m 11,0 C 16,9 C 9,7 km/h (2 Bft) 100,00 %
13.10.2017 12:36 16,9 C 11,7 C 68 % 1026,8 hPa 0,0 l/m 5,0 km/h (1 Bft) W 265 2 min 0,000 mm 2,2 UV-I 419 W/m 11,0 C 16,9 C 9,7 km/h (2 Bft) 100,00 %
13.10.2017 12:38 16,9 C 11,7 C 70 % 1026,8 hPa 0,0 l/m 2,8 km/h (1 Bft) W-SW 257 2 min 0,000 mm 2,4 UV-I 562 W/m 11,4 C 16,9 C 4,8 km/h (1 Bft) 100,00 %
13.10.2017 12:40 17,1 C 11,7 C 69 % 1026,8 hPa 0,0 l/m 4,7 km/h (1 Bft) SW 215 2 min 0,000 mm 2,4 UV-I 588 W/m 11,4 C 17,1 C 11,3 km/h (2 Bft) 100,00 %
13.10.2017 12:42 17,2 C 11,7 C 69 % 1026,8 hPa 0,0 l/m 10,0 km/h (2 Bft) W 278 2 min 0,000 mm 2,3 UV-I 532 W/m 11,5 C 15,5 C 17,7 km/h (3 Bft) 100,00 %
13.10.2017 12:44 17,2 C 11,7 C 67 % 1026,8 hPa 0,0 l/m 10,8 km/h (2 Bft) W 280 2 min 0,000 mm 2,4 UV-I 542 W/m 11,0 C 15,2 C 14,5 km/h (3 Bft) 96,97 %
13.10.2017 12:46 17,2 C 11,7 C 67 % 1026,7 hPa 0,0 l/m 7,9 km/h (2 Bft) NW 310 2 min 0,000 mm 2,4 UV-I 572 W/m 11,0 C 16,5 C 14,5 km/h (3 Bft) 98,51 %
13.10.2017 12:48 17,3 C 11,7 C 69 % 1026,8 hPa 0,0 l/m 6,3 km/h (2 Bft) W 271 2 min 0,000 mm 2,4 UV-I 561 W/m 11,6 C 17,3 C 12,9 km/h (3 Bft) 100,00 %
13.10.2017 12:50 17,4 C 11,7 C 68 % 1026,7 hPa 0,0 l/m 3,3 km/h (1 Bft) NW 317 2 min 0,000 mm 2,4 UV-I 566 W/m 11,4 C 17,4 C 9,7 km/h (2 Bft) 100,00 %
13.10.2017 12:52 17,4 C 11,7 C 66 % 1026,7 hPa 0,0 l/m 4,1 km/h (1 Bft) W-NW 297 2 min 0,000 mm 2,4 UV-I 575 W/m 11,0 C 17,4 C 11,3 km/h (2 Bft) 100,00 %
13.10.2017 12:54 17,4 C 11,7 C 68 % 1026,6 hPa 0,0 l/m 3,0 km/h (1 Bft) W-SW 250 2 min 0,000 mm 2,5 UV-I 571 W/m 11,4 C 17,4 C 11,3 km/h (2 Bft) 98,00 %
13.10.2017 12:56 17,4 C 11,7 C 67 % 1026,6 hPa 0,0 l/m 5,0 km/h (1 Bft) S-SW 201 2 min 0,000 mm 2,4 UV-I 508 W/m 11,2 C 17,4 C 11,3 km/h (2 Bft) 100,00 %
13.10.2017 12:58 17,4 C 11,7 C 66 % 1026,6 hPa 0,0 l/m 5,7 km/h (1 Bft) W-NW 299 2 min 0,000 mm 2,4 UV-I 533 W/m 11,0 C 17,4 C 12,9 km/h (3 Bft) 100,00 %
13.10.2017 13:00 17,4 C 11,7 C 67 % 1026,6 hPa 0,0 l/m 3,4 km/h (1 Bft) S-SW 193 2 min 0,279 mm 2,5 UV-I 557 W/m 11,2 C 17,4 C 11,3 km/h (2 Bft) 100,00 %
13.10.2017 13:02 17,5 C 11,7 C 66 % 1026,5 hPa 0,0 l/m 4,4 km/h (1 Bft) S-SW 202 2 min 0,000 mm 2,5 UV-I 580 W/m 11,1 C 17,5 C 12,9 km/h (3 Bft) 100,00 %
13.10.2017 13:04 17,8 C 11,7 C 67 % 1026,6 hPa 0,0 l/m 10,1 km/h (2 Bft) W 281 2 min 0,000 mm 2,5 UV-I 592 W/m 11,6 C 16,2 C 14,5 km/h (3 Bft) 98,11 %
13.10.2017 13:06 17,8 C 11,7 C 65 % 1026,7 hPa 0,0 l/m 11,8 km/h (2 Bft) W-SW 248 2 min 0,000 mm 2,4 UV-I 597 W/m 11,1 C 15,6 C 16,1 km/h (3 Bft) 100,00 %
13.10.2017 13:08 17,6 C 11,7 C 65 % 1026,6 hPa 0,0 l/m 10,0 km/h (2 Bft) W 271 2 min 0,000 mm 2,3 UV-I 605 W/m 10,9 C 16,0 C 16,1 km/h (3 Bft) 100,00 %
13.10.2017 13:10 17,6 C 11,7 C 64 % 1026,5 hPa 0,0 l/m 8,5 km/h (2 Bft) W-SW 257 2 min 0,000 mm 2,4 UV-I 598 W/m 10,7 C 16,6 C 12,9 km/h (3 Bft) 97,73 %
13.10.2017 13:12 17,5 C 11,7 C 65 % 1026,5 hPa 0,0 l/m 9,3 km/h (2 Bft) SW 230 2 min 0,000 mm 2,5 UV-I 562 W/m 10,8 C 16,2 C 14,5 km/h (3 Bft) 98,21 %
13.10.2017 13:14 17,6 C 11,7 C 66 % 1026,5 hPa 0,0 l/m 12,3 km/h (3 Bft) W 269 2 min 0,000 mm 2,5 UV-I 619 W/m 11,2 C 15,2 C 20,9 km/h (4 Bft) 96,30 %
13.10.2017 13:16 17,7 C 11,7 C 64 % 1026,5 hPa 0,0 l/m 11,9 km/h (2 Bft) W-SW 249 2 min 0,000 mm 2,5 UV-I 621 W/m 10,8 C 15,4 C 20,9 km/h (4 Bft) 97,14 %
13.10.2017 13:18 17,7 C 11,7 C 65 % 1026,4 hPa 0,0 l/m 10,9 km/h (2 Bft) W 268 2 min 0,000 mm 2,5 UV-I 621 W/m 11,0 C 15,8 C 17,7 km/h (3 Bft) 95,74 %
13.10.2017 13:20 17,7 C 11,7 C 65 % 1026,4 hPa 0,0 l/m 6,9 km/h (2 Bft) N-NO 19 2 min 0,000 mm 2,4 UV-I 584 W/m 11,0 C 17,5 C 12,9 km/h (3 Bft) 97,87 %
13.10.2017 13:22 17,9 C 11,7 C 66 % 1026,4 hPa 0,0 l/m 4,4 km/h (1 Bft) SW 216 2 min 0,000 mm 2,0 UV-I 547 W/m 11,5 C 17,9 C 8,0 km/h (2 Bft) 97,44 %
13.10.2017 13:24 18,0 C 11,7 C 65 % 1026,4 hPa 0,0 l/m 6,4 km/h (2 Bft) W-NW 282 2 min 0,000 mm 2,2 UV-I 496 W/m 11,3 C 18,0 C 14,5 km/h (3 Bft) 98,18 %
13.10.2017 13:26 17,9 C 11,7 C 63 % 1026,4 hPa 0,0 l/m 7,0 km/h (2 Bft) W 263 2 min 0,000 mm 2,0 UV-I 336 W/m 10,8 C 17,6 C 12,9 km/h (3 Bft) 97,62 %
13.10.2017 13:28 17,7 C 11,7 C 63 % 1026,4 hPa 0,0 l/m 11,3 km/h (2 Bft) W-NW 286 2 min 0,000 mm 2,4 UV-I 447 W/m 10,6 C 15,6 C 19,3 km/h (3 Bft) 95,12 %
13.10.2017 13:30 17,8 C 11,7 C 64 % 1026,4 hPa 0,0 l/m 9,9 km/h (2 Bft) SW 219 2 min 0,000 mm 2,2 UV-I 535 W/m 10,9 C 16,2 C 16,1 km/h (3 Bft) 96,43 %
13.10.2017 13:32 17,9 C 11,7 C 63 % 1026,3 hPa 0,0 l/m 9,9 km/h (2 Bft) W-NW 284 2 min 0,000 mm 2,2 UV-I 485 W/m 10,8 C 16,4 C 17,7 km/h (3 Bft) 96,00 %
13.10.2017 13:34 17,9 C 11,7 C 63 % 1026,3 hPa 0,0 l/m 11,4 km/h (2 Bft) W-SW 240 2 min 0,000 mm 2,4 UV-I 648 W/m 10,8 C 15,8 C 16,1 km/h (3 Bft) 97,37 %
13.10.2017 13:36 18,0 C 11,7 C 64 % 1026,3 hPa 0,0 l/m 7,9 km/h (2 Bft) W-SW 244 2 min 0,000 mm 2,4 UV-I 697 W/m 11,1 C 17,3 C 14,5 km/h (3 Bft) 96,00 %
13.10.2017 13:38 18,2 C 11,7 C 65 % 1026,3 hPa 0,0 l/m 5,7 km/h (1 Bft) W-NW 303 2 min 0,000 mm 2,2 UV-I 718 W/m 11,5 C 18,2 C 11,3 km/h (2 Bft) 97,56 %
13.10.2017 13:40 18,2 C 11,7 C 63 % 1026,4 hPa 0,0 l/m 6,6 km/h (2 Bft) W 269 2 min 0,000 mm 1,5 UV-I 345 W/m 11,0 C 18,1 C 14,5 km/h (3 Bft) 97,87 %
13.10.2017 13:42 17,9 C 11,7 C 62 % 1026,4 hPa 0,0 l/m 12,3 km/h (3 Bft) W-SW 244 0 min 0,000 mm 1,4 UV-I 201 W/m 10,5 C 15,5 C 16,1 km/h (3 Bft) 98,21 %
13.10.2017 13:44 17,7 C 11,7 C 63 % 1026,4 hPa 0,0 l/m 13,6 km/h (3 Bft) W-SW 241 0 min 0,000 mm 1,4 UV-I 199 W/m 10,6 C 14,9 C 19,3 km/h (3 Bft) 100,00 %
13.10.2017 13:46 17,6 C 11,7 C 64 % 1026,4 hPa 0,0 l/m 10,1 km/h (2 Bft) W 275 0 min 0,000 mm 1,8 UV-I 202 W/m 10,7 C 16,0 C 17,7 km/h (3 Bft) 100,00 %
13.10.2017 13:48 17,8 C 11,7 C 65 % 1026,4 hPa 0,0 l/m 7,9 km/h (2 Bft) W-SW 248 2 min 0,000 mm 2,1 UV-I 435 W/m 11,1 C 17,1 C 11,3 km/h (2 Bft) 97,56 %
13.10.2017 13:50 17,8 C 11,7 C 64 % 1026,3 hPa 0,0 l/m 7,0 km/h (2 Bft) W-SW 250 2 min 0,000 mm 1,8 UV-I 313 W/m 10,9 C 17,5 C 12,9 km/h (3 Bft) 100,00 %
13.10.2017 13:52 17,8 C 11,7 C 63 % 1026,3 hPa 0,0 l/m 11,1 km/h (2 Bft) W-SW 251 2 min 0,000 mm 1,8 UV-I 507 W/m 10,7 C 15,8 C 17,7 km/h (3 Bft) 100,00 %
13.10.2017 13:54 17,8 C 11,7 C 65 % 1026,3 hPa 0,0 l/m 4,6 km/h (1 Bft) W-SW 247 2 min 0,000 mm 1,5 UV-I 610 W/m 11,1 C 17,8 C 11,3 km/h (2 Bft) 100,00 %
13.10.2017 13:56 17,9 C 11,7 C 64 % 1026,3 hPa 0,0 l/m 3,5 km/h (1 Bft) NW 304 0 min 0,000 mm 1,3 UV-I 279 W/m 11,0 C 17,9 C 6,4 km/h (2 Bft) 100,00 %
13.10.2017 13:58 17,8 C 11,7 C 64 % 1026,3 hPa 0,0 l/m 3,8 km/h (1 Bft) W 259 0 min 0,000 mm 1,3 UV-I 262 W/m 10,9 C 17,8 C 8,0 km/h (2 Bft) 98,21 %
13.10.2017 14:00 17,7 C 11,7 C 64 % 1026,2 hPa 0,0 l/m 7,3 km/h (2 Bft) W 269 2 min 0,000 mm 1,4 UV-I 328 W/m 10,8 C 17,3 C 12,9 km/h (3 Bft) 97,56 %
13.10.2017 14:02 17,7 C 11,7 C 64 % 1026,3 hPa 0,0 l/m 6,0 km/h (2 Bft) W 273 0 min 0,305 mm 1,3 UV-I 237 W/m 10,8 C 17,7 C 12,9 km/h (3 Bft) 95,24 %
13.10.2017 14:04 17,6 C 11,7 C 64 % 1026,2 hPa 0,0 l/m 7,1 km/h (2 Bft) W-SW 254 2 min 0,000 mm 1,6 UV-I 372 W/m 10,7 C 17,3 C 14,5 km/h (3 Bft) 98,11 %
13.10.2017 14:06 17,6 C 11,7 C 65 % 1026,2 hPa 0,0 l/m 5,2 km/h (1 Bft) W-NW 290 2 min 0,000 mm 1,7 UV-I 707 W/m 10,9 C 17,6 C 11,3 km/h (2 Bft) 93,62 %
13.10.2017 14:08 17,7 C 11,7 C 64 % 1026,1 hPa 0,0 l/m 5,1 km/h (1 Bft) W 265 2 min 0,000 mm 2,1 UV-I 642 W/m 10,8 C 17,7 C 11,3 km/h (2 Bft) 95,74 %
13.10.2017 14:10 17,8 C 11,7 C 64 % 1026,1 hPa 0,0 l/m 2,9 km/h (1 Bft) W-NW 285 2 min 0,000 mm 1,9 UV-I 636 W/m 10,9 C 17,8 C 6,4 km/h (2 Bft) 97,73 %
13.10.2017 14:12 17,8 C 11,7 C 63 % 1026,1 hPa 0,0 l/m 7,4 km/h (2 Bft) NW 315 2 min 0,000 mm 1,6 UV-I 325 W/m 10,7 C 17,3 C 12,9 km/h (3 Bft) 98,00 %
13.10.2017 14:14 17,8 C 11,7 C 64 % 1026,0 hPa 0,0 l/m 2,2 km/h (1 Bft) N 9 0 min 0,000 mm 1,8 UV-I 244 W/m 10,9 C 17,8 C 9,7 km/h (2 Bft) 96,00 %
13.10.2017 14:16 18,1 C 11,7 C 66 % 1026,0 hPa 0,0 l/m 2,2 km/h (1 Bft) W-NW 297 2 min 0,000 mm 1,9 UV-I 466 W/m 11,6 C 18,1 C 4,8 km/h (1 Bft) 97,37 %
13.10.2017 14:18 18,2 C 11,7 C 63 % 1026,0 hPa 0,0 l/m 4,8 km/h (1 Bft) W-NW 289 2 min 0,000 mm 1,8 UV-I 596 W/m 11,0 C 18,2 C 12,9 km/h (3 Bft) 97,87 %
13.10.2017 14:20 18,1 C 11,7 C 62 % 1025,9 hPa 0,0 l/m 8,6 km/h (2 Bft) W-SW 253 2 min 0,000 mm 2,0 UV-I 575 W/m 10,7 C 17,1 C 14,5 km/h (3 Bft) 96,23 %
13.10.2017 14:22 18,1 C 11,7 C 62 % 1025,9 hPa 0,0 l/m 6,2 km/h (2 Bft) NW 317 2 min 0,000 mm 2,0 UV-I 571 W/m 10,7 C 18,1 C 14,5 km/h (3 Bft) 92,68 %
13.10.2017 14:24 18,1 C 11,7 C 62 % 1025,9 hPa 0,0 l/m 3,1 km/h (1 Bft) N-NW 331 2 min 0,000 mm 1,9 UV-I 571 W/m 10,7 C 18,1 C 8,0 km/h (2 Bft) 96,00 %
13.10.2017 14:26 18,2 C 11,7 C 62 % 1025,8 hPa 0,0 l/m 2,4 km/h (1 Bft) W-NW 284 2 min 0,000 mm 1,9 UV-I 592 W/m 10,8 C 18,2 C 6,4 km/h (2 Bft) 97,73 %
13.10.2017 14:28 18,1 C 11,7 C 61 % 1025,8 hPa 0,0 l/m 3,5 km/h (1 Bft) W-NW 290 2 min 0,000 mm 1,8 UV-I 594 W/m 10,5 C 18,1 C 6,4 km/h (2 Bft) 96,00 %
13.10.2017 14:30 18,1 C 11,7 C 63 % 1025,8 hPa 0,0 l/m 5,0 km/h (1 Bft) SW 236 2 min 0,000 mm 1,4 UV-I 594 W/m 10,9 C 18,1 C 9,7 km/h (2 Bft) 97,87 %
13.10.2017 14:32 17,9 C 11,7 C 62 % 1025,9 hPa 0,0 l/m 6,6 km/h (2 Bft) W-NW 286 0 min 0,000 mm 1,5 UV-I 220 W/m 10,5 C 17,8 C 12,9 km/h (3 Bft) 98,00 %
13.10.2017 14:34 17,9 C 11,7 C 63 % 1025,8 hPa 0,0 l/m 5,5 km/h (1 Bft) W 281 2 min 0,000 mm 1,8 UV-I 588 W/m 10,8 C 17,9 C 11,3 km/h (2 Bft) 97,56 %
13.10.2017 14:36 18,1 C 11,7 C 63 % 1025,8 hPa 0,0 l/m 4,0 km/h (1 Bft) SW 229 2 min 0,000 mm 1,8 UV-I 577 W/m 10,9 C 18,1 C 6,4 km/h (2 Bft) 96,00 %
13.10.2017 14:38 18,1 C 11,7 C 64 % 1025,7 hPa 0,0 l/m 1,6 km/h (1 Bft) W-NW 288 2 min 0,000 mm 1,6 UV-I 579 W/m 11,2 C 18,1 C 3,2 km/h (1 Bft) 100,00 %
13.10.2017 14:40 18,2 C 11,7 C 61 % 1025,7 hPa 0,0 l/m 7,9 km/h (2 Bft) W 280 2 min 0,000 mm 1,7 UV-I 596 W/m 10,6 C 17,5 C 14,5 km/h (3 Bft) 97,56 %
13.10.2017 14:42 18,2 C 11,7 C 60 % 1025,7 hPa 0,0 l/m 6,3 km/h (2 Bft) W 259 2 min 0,000 mm 1,7 UV-I 572 W/m 10,3 C 18,2 C 12,9 km/h (3 Bft) 97,87 %
13.10.2017 14:44 18,2 C 11,7 C 61 % 1025,7 hPa 0,0 l/m 5,9 km/h (2 Bft) W 263 2 min 0,000 mm 1,7 UV-I 533 W/m 10,6 C 18,2 C 11,3 km/h (2 Bft) 95,16 %
13.10.2017 14:46 18,2 C 11,7 C 62 % 1025,8 hPa 0,0 l/m 3,3 km/h (1 Bft) W-SW 242 2 min 0,000 mm 1,3 UV-I 308 W/m 10,8 C 18,2 C 6,4 km/h (2 Bft) 94,00 %
13.10.2017 14:48 18,3 C 11,7 C 61 % 1025,7 hPa 0,0 l/m 5,7 km/h (1 Bft) W-SW 258 2 min 0,000 mm 1,7 UV-I 491 W/m 10,6 C 18,3 C 11,3 km/h (2 Bft) 97,56 %
13.10.2017 14:50 18,4 C 11,7 C 61 % 1025,7 hPa 0,0 l/m 6,4 km/h (2 Bft) W 262 2 min 0,000 mm 1,5 UV-I 554 W/m 10,7 C 18,4 C 12,9 km/h (3 Bft) 96,55 %
13.10.2017 14:52 18,3 C 11,7 C 60 % 1025,8 hPa 0,0 l/m 7,8 km/h (2 Bft) W-NW 295 2 min 0,000 mm 1,4 UV-I 430 W/m 10,4 C 17,7 C 12,9 km/h (3 Bft) 97,06 %
13.10.2017 14:54 18,2 C 11,7 C 61 % 1025,8 hPa 0,0 l/m 3,7 km/h (1 Bft) N-NW 327 2 min 0,000 mm 1,6 UV-I 262 W/m 10,6 C 18,2 C 16,1 km/h (3 Bft) 95,65 %
13.10.2017 14:56 18,2 C 11,7 C 61 % 1025,8 hPa 0,0 l/m 4,0 km/h (1 Bft) N-NW 328 2 min 0,000 mm 1,6 UV-I 455 W/m 10,6 C 18,2 C 6,4 km/h (2 Bft) 98,59 %
13.10.2017 14:58 18,2 C 11,7 C 62 % 1025,8 hPa 0,0 l/m 3,0 km/h (1 Bft) W 274 2 min 0,000 mm 1,5 UV-I 345 W/m 10,8 C 18,2 C 9,7 km/h (2 Bft) 92,68 %
13.10.2017 15:00 18,3 C 11,7 C 59 % 1025,7 hPa 0,0 l/m 4,4 km/h (1 Bft) SW 229 2 min 0,000 mm 1,6 UV-I 488 W/m 10,1 C 18,3 C 6,4 km/h (2 Bft) 90,57 %
13.10.2017 15:02 18,2 C 11,7 C 59 % 1025,7 hPa 0,0 l/m 5,1 km/h (1 Bft) W-SW 257 2 min 0,280 mm 1,5 UV-I 465 W/m 10,1 C 18,2 C 11,3 km/h (2 Bft) 93,18 %
13.10.2017 15:04 18,3 C 11,7 C 61 % 1025,7 hPa 0,0 l/m 5,9 km/h (2 Bft) W-NW 284 2 min 0,000 mm 1,5 UV-I 467 W/m 10,6 C 18,3 C 11,3 km/h (2 Bft) 97,56 %
13.10.2017 15:06 18,3 C 11,7 C 60 % 1025,8 hPa 0,0 l/m 6,9 km/h (2 Bft) N-NW 337 2 min 0,000 mm 1,5 UV-I 427 W/m 10,4 C 18,1 C 16,1 km/h (3 Bft) 96,00 %
13.10.2017 15:08 18,4 C 11,7 C 59 % 1025,6 hPa 0,0 l/m 6,7 km/h (2 Bft) SW 236 2 min 0,000 mm 1,4 UV-I 439 W/m 10,2 C 18,3 C 14,5 km/h (3 Bft) 95,12 %
13.10.2017 15:10 18,4 C 11,7 C 58 % 1025,6 hPa 0,0 l/m 6,0 km/h (2 Bft) W-NW 293 2 min 0,000 mm 1,4 UV-I 426 W/m 10,0 C 18,4 C 11,3 km/h (2 Bft) 92,68 %
13.10.2017 15:12 18,4 C 11,7 C 59 % 1025,6 hPa 0,0 l/m 4,6 km/h (1 Bft) W 262 2 min 0,000 mm 1,4 UV-I 410 W/m 10,2 C 18,4 C 16,1 km/h (3 Bft) 96,92 %
13.10.2017 15:14 18,3 C 11,7 C 58 % 1025,5 hPa 0,0 l/m 7,2 km/h (2 Bft) SW 230 2 min 0,000 mm 1,3 UV-I 386 W/m 9,9 C 17,9 C 11,3 km/h (2 Bft) 94,74 %
13.10.2017 15:16 18,4 C 11,7 C 58 % 1025,5 hPa 0,0 l/m 5,1 km/h (1 Bft) N 360 2 min 0,000 mm 1,3 UV-I 395 W/m 10,0 C 18,4 C 8,0 km/h (2 Bft) 95,74 %
13.10.2017 15:18 18,3 C 11,7 C 58 % 1025,5 hPa 0,0 l/m 9,1 km/h (2 Bft) W-SW 250 2 min 0,000 mm 1,3 UV-I 387 W/m 9,9 C 17,1 C 16,1 km/h (3 Bft) 92,00 %
13.10.2017 15:20 18,4 C 11,7 C 59 % 1025,5 hPa 0,0 l/m 8,3 km/h (2 Bft) W-NW 302 2 min 0,000 mm 1,3 UV-I 386 W/m 10,2 C 17,5 C 14,5 km/h (3 Bft) 94,34 %
13.10.2017 15:22 18,4 C 11,7 C 57 % 1025,5 hPa 0,0 l/m 7,2 km/h (2 Bft) N-NW 327 2 min 0,000 mm 1,3 UV-I 396 W/m 9,7 C 18,0 C 12,9 km/h (3 Bft) 95,24 %
13.10.2017 15:24 18,3 C 11,7 C 58 % 1025,6 hPa 0,0 l/m 7,5 km/h (2 Bft) W-SW 245 2 min 0,000 mm 1,3 UV-I 418 W/m 9,9 C 17,8 C 16,1 km/h (3 Bft) 100,00 %
13.10.2017 15:26 18,4 C 11,7 C 59 % 1025,6 hPa 0,0 l/m 8,0 km/h (2 Bft) SW 227 2 min 0,000 mm 1,2 UV-I 388 W/m 10,2 C 17,7 C 16,1 km/h (3 Bft) 92,96 %
13.10.2017 15:28 18,4 C 11,7 C 58 % 1025,6 hPa 0,0 l/m 7,2 km/h (2 Bft) S-SW 213 2 min 0,000 mm 1,2 UV-I 382 W/m 10,0 C 18,0 C 11,3 km/h (2 Bft) 94,74 %
13.10.2017 15:30 18,4 C 11,7 C 58 % 1025,6 hPa 0,0 l/m 7,4 km/h (2 Bft) W-SW 250 2 min 0,000 mm 1,2 UV-I 381 W/m 10,0 C 17,9 C 12,9 km/h (3 Bft) 97,87 %
13.10.2017 15:32 18,6 C 11,7 C 59 % 1025,5 hPa 0,0 l/m 6,5 km/h (2 Bft) W-SW 238 2 min 0,000 mm 1,1 UV-I 343 W/m 10,4 C 18,6 C 12,9 km/h (3 Bft) 95,74 %
13.10.2017 15:34 18,6 C 11,7 C 57 % 1025,5 hPa 0,0 l/m 10,4 km/h (2 Bft) W-SW 240 2 min 0,000 mm 1,1 UV-I 361 W/m 9,9 C 17,0 C 17,7 km/h (3 Bft) 97,87 %
13.10.2017 15:36 18,4 C 11,7 C 57 % 1025,4 hPa 0,0 l/m 10,0 km/h (2 Bft) W-SW 255 2 min 0,000 mm 1,1 UV-I 371 W/m 9,7 C 16,9 C 19,3 km/h (3 Bft) 96,00 %
13.10.2017 15:38 18,3 C 11,7 C 57 % 1025,5 hPa 0,0 l/m 13,2 km/h (3 Bft) W 273 2 min 0,000 mm 1,1 UV-I 368 W/m 9,6 C 15,7 C 19,3 km/h (3 Bft) 98,00 %
13.10.2017 15:40 18,3 C 11,7 C 58 % 1025,4 hPa 0,0 l/m 10,1 km/h (2 Bft) W-SW 242 2 min 0,000 mm 1,1 UV-I 364 W/m 9,9 C 16,7 C 16,1 km/h (3 Bft) 100,00 %
13.10.2017 15:42 18,3 C 11,7 C 58 % 1025,4 hPa 0,0 l/m 11,8 km/h (2 Bft) W-SW 255 2 min 0,000 mm 1,1 UV-I 361 W/m 9,9 C 16,1 C 16,1 km/h (3 Bft) 100,00 %
13.10.2017 15:44 18,3 C 11,7 C 57 % 1025,4 hPa 0,0 l/m 9,5 km/h (2 Bft) SW 227 2 min 0,000 mm 1,0 UV-I 357 W/m 9,6 C 17,0 C 16,1 km/h (3 Bft) 97,87 %
13.10.2017 15:46 18,3 C 11,7 C 60 % 1025,4 hPa 0,0 l/m 4,6 km/h (1 Bft) W-SW 252 2 min 0,000 mm 1,0 UV-I 352 W/m 10,4 C 18,3 C 12,9 km/h (3 Bft) 100,00 %
13.10.2017 15:48 18,3 C 11,7 C 58 % 1025,4 hPa 0,0 l/m 7,8 km/h (2 Bft) W-NW 282 2 min 0,000 mm 1,0 UV-I 346 W/m 9,9 C 17,7 C 14,5 km/h (3 Bft) 98,21 %
13.10.2017 15:50 18,3 C 11,7 C 58 % 1025,3 hPa 0,0 l/m 3,1 km/h (1 Bft) SW 216 2 min 0,000 mm 0,9 UV-I 341 W/m 9,9 C 18,3 C 6,4 km/h (2 Bft) 100,00 %
13.10.2017 15:52 18,3 C 11,7 C 58 % 1025,3 hPa 0,0 l/m 4,4 km/h (1 Bft) W-SW 244 2 min 0,000 mm 0,9 UV-I 332 W/m 9,9 C 18,3 C 9,7 km/h (2 Bft) 98,31 %
13.10.2017 15:54 18,3 C 11,7 C 59 % 1025,3 hPa 0,0 l/m 2,6 km/h (1 Bft) W 262 2 min 0,000 mm 0,9 UV-I 329 W/m 10,1 C 18,3 C 8,0 km/h (2 Bft) 97,37 %
13.10.2017 15:56 18,4 C 11,7 C 58 % 1025,3 hPa 0,0 l/m 3,5 km/h (1 Bft) W-SW 257 2 min 0,000 mm 0,9 UV-I 325 W/m 10,0 C 18,4 C 11,3 km/h (2 Bft) 100,00 %
13.10.2017 15:58 18,3 C 11,7 C 58 % 1025,3 hPa 0,0 l/m 3,5 km/h (1 Bft) N-NW 333 2 min 0,000 mm 0,9 UV-I 320 W/m 9,9 C 18,3 C 6,4 km/h (2 Bft) 100,00 %
13.10.2017 16:00 18,3 C 11,7 C 59 % 1025,2 hPa 0,0 l/m 4,0 km/h (1 Bft) W-NW 288 2 min 0,000 mm 0,8 UV-I 314 W/m 10,1 C 18,3 C 9,7 km/h (2 Bft) 98,08 %
13.10.2017 16:02 18,3 C 11,7 C 59 % 1025,3 hPa 0,0 l/m 10,1 km/h (2 Bft) W 271 2 min 0,254 mm 0,8 UV-I 310 W/m 10,1 C 16,7 C 16,1 km/h (3 Bft) 100,00 %
13.10.2017 16:04 18,3 C 11,7 C 57 % 1025,2 hPa 0,0 l/m 6,7 km/h (2 Bft) W 267 2 min 0,000 mm 0,8 UV-I 306 W/m 9,6 C 18,2 C 14,5 km/h (3 Bft) 100,00 %
13.10.2017 16:06 18,3 C 11,7 C 58 % 1025,3 hPa 0,0 l/m 6,5 km/h (2 Bft) W 266 2 min 0,000 mm 0,8 UV-I 301 W/m 9,9 C 18,3 C 11,3 km/h (2 Bft) 96,00 %
13.10.2017 16:08 18,2 C 11,7 C 59 % 1025,3 hPa 0,0 l/m 6,5 km/h (2 Bft) S-SW 210 2 min 0,000 mm 0,7 UV-I 296 W/m 10,1 C 18,2 C 12,9 km/h (3 Bft) 100,00 %
13.10.2017 16:10 18,3 C 11,7 C 58 % 1025,3 hPa 0,0 l/m 10,4 km/h (2 Bft) SW 235 2 min 0,000 mm 0,7 UV-I 290 W/m 9,9 C 16,6 C 19,3 km/h (3 Bft) 100,00 %
13.10.2017 16:12 18,3 C 11,7 C 57 % 1025,3 hPa 0,0 l/m 9,1 km/h (2 Bft) W-SW 254 2 min 0,000 mm 0,7 UV-I 286 W/m 9,6 C 17,1 C 17,7 km/h (3 Bft) 100,00 %
13.10.2017 16:14 18,2 C 11,7 C 56 % 1025,3 hPa 0,0 l/m 11,0 km/h (2 Bft) W-NW 286 2 min 0,000 mm 0,7 UV-I 281 W/m 9,3 C 16,3 C 17,7 km/h (3 Bft) 100,00 %
13.10.2017 16:16 18,1 C 11,7 C 57 % 1025,3 hPa 0,0 l/m 5,8 km/h (2 Bft) W-SW 250 2 min 0,000 mm 0,7 UV-I 278 W/m 9,4 C 18,1 C 11,3 km/h (2 Bft) 100,00 %
13.10.2017 16:18 18,2 C 11,7 C 57 % 1025,3 hPa 0,0 l/m 7,2 km/h (2 Bft) W-SW 241 2 min 0,000 mm 0,6 UV-I 272 W/m 9,5 C 17,8 C 11,3 km/h (2 Bft) 96,92 %
13.10.2017 16:20 18,2 C 11,7 C 57 % 1025,3 hPa 0,0 l/m 5,6 km/h (1 Bft) W-SW 241 2 min 0,000 mm 0,6 UV-I 265 W/m 9,5 C 18,2 C 9,7 km/h (2 Bft) 100,00 %
13.10.2017 16:22 18,2 C 11,7 C 58 % 1025,3 hPa 0,0 l/m 5,4 km/h (1 Bft) N 350 2 min 0,000 mm 0,6 UV-I 254 W/m 9,8 C 18,2 C 11,3 km/h (2 Bft) 100,00 %
13.10.2017 16:24 18,2 C 11,7 C 57 % 1025,3 hPa 0,0 l/m 7,2 km/h (2 Bft) W 277 2 min 0,000 mm 0,6 UV-I 239 W/m 9,5 C 17,8 C 12,9 km/h (3 Bft) 100,00 %
13.10.2017 16:26 18,1 C 11,7 C 58 % 1025,3 hPa 0,0 l/m 6,2 km/h (2 Bft) W 265 2 min 0,000 mm 0,6 UV-I 245 W/m 9,7 C 18,1 C 11,3 km/h (2 Bft) 98,00 %
13.10.2017 16:28 18,0 C 11,7 C 58 % 1025,3 hPa 0,0 l/m 7,0 km/h (2 Bft) NW 306 2 min 0,000 mm 0,5 UV-I 250 W/m 9,6 C 17,7 C 12,9 km/h (3 Bft) 98,00 %
13.10.2017 16:30 17,9 C 11,7 C 59 % 1025,3 hPa 0,0 l/m 7,1 km/h (2 Bft) W 261 2 min 0,000 mm 0,5 UV-I 231 W/m 9,8 C 17,6 C 11,3 km/h (2 Bft) 100,00 %
13.10.2017 16:32 18,0 C 11,7 C 60 % 1025,3 hPa 0,0 l/m 3,1 km/h (1 Bft) W-NW 286 2 min 0,000 mm 0,5 UV-I 218 W/m 10,1 C 18,0 C 6,4 km/h (2 Bft) 100,00 %
13.10.2017 16:34 17,9 C 11,7 C 58 % 1025,3 hPa 0,0 l/m 9,2 km/h (2 Bft) W 261 2 min 0,000 mm 0,5 UV-I 235 W/m 9,5 C 16,6 C 19,3 km/h (3 Bft) 96,23 %
13.10.2017 16:36 17,9 C 11,7 C 59 % 1025,3 hPa 0,0 l/m 5,3 km/h (1 Bft) W-SW 237 2 min 0,000 mm 0,5 UV-I 226 W/m 9,8 C 17,9 C 11,3 km/h (2 Bft) 100,00 %
13.10.2017 16:38 17,9 C 11,7 C 59 % 1025,3 hPa 0,0 l/m 4,7 km/h (1 Bft) SW 234 2 min 0,000 mm 0,0 UV-I 190 W/m 9,8 C 17,9 C 9,7 km/h (2 Bft) 100,00 %
13.10.2017 16:40 17,8 C 11,7 C 59 % 1025,3 hPa 0,0 l/m 6,3 km/h (2 Bft) W-SW 248 2 min 0,000 mm 0,0 UV-I 177 W/m 9,7 C 17,8 C 12,9 km/h (3 Bft) 100,00 %
13.10.2017 16:42 17,8 C 11,7 C 59 % 1025,3 hPa 0,0 l/m 7,0 km/h (2 Bft) W 265 2 min 0,000 mm 0,0 UV-I 158 W/m 9,7 C 17,5 C 11,3 km/h (2 Bft) 100,00 %
13.10.2017 16:44 17,7 C 11,7 C 59 % 1025,3 hPa 0,0 l/m 7,6 km/h (2 Bft) W 279 2 min 0,000 mm 0,0 UV-I 169 W/m 9,6 C 17,1 C 16,1 km/h (3 Bft) 100,00 %
13.10.2017 16:46 17,6 C 11,7 C 60 % 1025,3 hPa 0,0 l/m 4,2 km/h (1 Bft) W-SW 244 2 min 0,000 mm 0,0 UV-I 191 W/m 9,7 C 17,6 C 8,0 km/h (2 Bft) 100,00 %
13.10.2017 16:48 17,6 C 11,7 C 60 % 1025,3 hPa 0,0 l/m 4,0 km/h (1 Bft) W 259 2 min 0,000 mm 0,0 UV-I 189 W/m 9,7 C 17,6 C 6,4 km/h (2 Bft) 100,00 %
13.10.2017 16:50 17,6 C 11,7 C 61 % 1025,3 hPa 0,0 l/m 5,4 km/h (1 Bft) SW 229 2 min 0,000 mm 0,0 UV-I 191 W/m 10,0 C 17,6 C 12,9 km/h (3 Bft) 97,14 %
13.10.2017 16:52 17,6 C 11,7 C 60 % 1025,3 hPa 0,0 l/m 3,4 km/h (1 Bft) W-NW 293 2 min 0,000 mm 0,0 UV-I 154 W/m 9,7 C 17,6 C 9,7 km/h (2 Bft) 96,30 %
13.10.2017 16:54 17,5 C 11,7 C 61 % 1025,3 hPa 0,0 l/m 1,7 km/h (1 Bft) W-NW 292 2 min 0,000 mm 0,0 UV-I 142 W/m 9,9 C 17,5 C 6,4 km/h (2 Bft) 98,00 %
13.10.2017 16:56 17,4 C 11,7 C 61 % 1025,4 hPa 0,0 l/m 4,0 km/h (1 Bft) W-NW 283 2 min 0,000 mm 0,0 UV-I 158 W/m 9,8 C 17,4 C 6,4 km/h (2 Bft) 97,87 %
13.10.2017 16:58 17,4 C 11,7 C 60 % 1025,4 hPa 0,0 l/m 8,0 km/h (2 Bft) W-SW 242 2 min 0,000 mm 0,0 UV-I 173 W/m 9,6 C 16,6 C 16,1 km/h (3 Bft) 97,56 %
13.10.2017 17:00 17,4 C 11,7 C 61 % 1025,4 hPa 0,0 l/m 2,6 km/h (1 Bft) W-NW 288 2 min 0,177 mm 0,0 UV-I 174 W/m 9,8 C 17,4 C 6,4 km/h (2 Bft) 96,23 %
13.10.2017 17:02 17,4 C 11,7 C 60 % 1025,4 hPa 0,0 l/m 4,5 km/h (1 Bft) W 264 2 min 0,000 mm 0,0 UV-I 162 W/m 9,6 C 17,4 C 11,3 km/h (2 Bft) 95,74 %
13.10.2017 17:04 17,3 C 11,7 C 60 % 1025,4 hPa 0,0 l/m 5,5 km/h (1 Bft) W-SW 244 2 min 0,000 mm 0,0 UV-I 145 W/m 9,5 C 17,3 C 12,9 km/h (3 Bft) 97,87 %
13.10.2017 17:06 17,3 C 11,7 C 61 % 1025,3 hPa 0,0 l/m 4,9 km/h (1 Bft) W-SW 253 2 min 0,000 mm 0,0 UV-I 120 W/m 9,7 C 17,3 C 8,0 km/h (2 Bft) 97,56 %
13.10.2017 17:08 17,3 C 11,7 C 61 % 1025,3 hPa 0,0 l/m 3,3 km/h (1 Bft) W-SW 249 0 min 0,000 mm 0,0 UV-I 86 W/m 9,7 C 17,3 C 4,8 km/h (1 Bft) 97,87 %
13.10.2017 17:10 17,3 C 11,7 C 62 % 1025,3 hPa 0,0 l/m 5,8 km/h (2 Bft) W 269 0 min 0,000 mm 0,0 UV-I 81 W/m 9,9 C 17,3 C 11,3 km/h (2 Bft) 96,00 %
13.10.2017 17:12 17,2 C 11,7 C 61 % 1025,4 hPa 0,0 l/m 6,0 km/h (2 Bft) W 268 0 min 0,000 mm 0,0 UV-I 74 W/m 9,6 C 17,2 C 14,5 km/h (3 Bft) 93,18 %
13.10.2017 17:14 17,2 C 11,7 C 61 % 1025,4 hPa 0,0 l/m 8,0 km/h (2 Bft) W 266 0 min 0,000 mm 0,0 UV-I 66 W/m 9,6 C 16,4 C 16,1 km/h (3 Bft) 97,78 %
13.10.2017 17:16 17,1 C 11,7 C 61 % 1025,3 hPa 0,0 l/m 5,2 km/h (1 Bft) W 265 0 min 0,000 mm 0,0 UV-I 73 W/m 9,5 C 17,1 C 12,9 km/h (3 Bft) 98,08 %
13.10.2017 17:18 17,1 C 11,7 C 61 % 1025,3 hPa 0,0 l/m 6,8 km/h (2 Bft) W-SW 258 0 min 0,000 mm 0,0 UV-I 83 W/m 9,5 C 16,9 C 14,5 km/h (3 Bft) 96,00 %
13.10.2017 17:20 17,0 C 11,7 C 62 % 1025,4 hPa 0,0 l/m 4,4 km/h (1 Bft) W 261 2 min 0,000 mm 0,0 UV-I 89 W/m 9,7 C 17,0 C 8,0 km/h (2 Bft) 100,00 %
13.10.2017 17:22 16,9 C 11,7 C 62 % 1025,3 hPa 0,0 l/m 5,1 km/h (1 Bft) W 277 2 min 0,000 mm 0,0 UV-I 97 W/m 9,6 C 16,9 C 12,9 km/h (3 Bft) 96,61 %
13.10.2017 17:24 16,9 C 11,7 C 62 % 1025,4 hPa 0,0 l/m 4,8 km/h (1 Bft) W-NW 300 2 min 0,000 mm 0,0 UV-I 95 W/m 9,6 C 16,9 C 11,3 km/h (2 Bft) 97,87 %
13.10.2017 17:26 16,9 C 11,7 C 62 % 1025,4 hPa 0,0 l/m 5,7 km/h (1 Bft) W-SW 257 2 min 0,000 mm 0,0 UV-I 81 W/m 9,6 C 16,9 C 11,3 km/h (2 Bft) 97,87 %
13.10.2017 17:28 16,8 C 11,7 C 62 % 1025,4 hPa 0,0 l/m 2,8 km/h (1 Bft) W 261 2 min 0,000 mm 0,0 UV-I 75 W/m 9,5 C 16,8 C 6,4 km/h (2 Bft) 97,14 %
13.10.2017 17:30 16,8 C 11,7 C 63 % 1025,4 hPa 0,0 l/m 3,8 km/h (1 Bft) W 272 0 min 0,000 mm 0,0 UV-I 67 W/m 9,7 C 16,8 C 6,4 km/h (2 Bft) 100,00 %
13.10.2017 17:32 16,7 C 11,7 C 63 % 1025,4 hPa 0,0 l/m 5,3 km/h (1 Bft) W-NW 294 0 min 0,000 mm 0,0 UV-I 63 W/m 9,6 C 16,7 C 11,3 km/h (2 Bft) 98,11 %
13.10.2017 17:34 16,6 C 11,7 C 63 % 1025,4 hPa 0,0 l/m 5,8 km/h (2 Bft) W 279 0 min 0,000 mm 0,0 UV-I 53 W/m 9,5 C 16,6 C 9,7 km/h (2 Bft) 100,00 %
13.10.2017 17:36 16,6 C 11,7 C 63 % 1025,5 hPa 0,0 l/m 4,0 km/h (1 Bft) W 281 0 min 0,000 mm 0,0 UV-I 50 W/m 9,5 C 16,6 C 6,4 km/h (2 Bft) 100,00 %
13.10.2017 17:38 16,5 C 11,7 C 64 % 1025,5 hPa 0,0 l/m 4,8 km/h (1 Bft) W-SW 257 0 min 0,000 mm 0,0 UV-I 41 W/m 9,7 C 16,5 C 9,7 km/h (2 Bft) 98,00 %
13.10.2017 17:40 16,4 C 11,7 C 64 % 1025,5 hPa 0,0 l/m 4,4 km/h (1 Bft) W 261 0 min 0,000 mm 0,0 UV-I 36 W/m 9,6 C 16,4 C 6,4 km/h (2 Bft) 97,37 %
13.10.2017 17:42 16,4 C 11,7 C 64 % 1025,5 hPa 0,0 l/m 4,5 km/h (1 Bft) W 271 0 min 0,000 mm 0,0 UV-I 33 W/m 9,6 C 16,4 C 6,4 km/h (2 Bft) 97,87 %
13.10.2017 17:44 16,3 C 11,7 C 65 % 1025,5 hPa 0,0 l/m 5,1 km/h (1 Bft) W 260 0 min 0,000 mm 0,0 UV-I 31 W/m 9,7 C 16,3 C 6,4 km/h (2 Bft) 100,00 %
13.10.2017 17:46 16,2 C 11,7 C 65 % 1025,5 hPa 0,0 l/m 5,6 km/h (1 Bft) W-SW 249 0 min 0,000 mm 0,0 UV-I 30 W/m 9,6 C 16,2 C 9,7 km/h (2 Bft) 100,00 %
13.10.2017 17:48 16,1 C 11,7 C 65 % 1025,6 hPa 0,0 l/m 5,4 km/h (1 Bft) W-SW 250 0 min 0,000 mm 0,0 UV-I 30 W/m 9,5 C 16,1 C 6,4 km/h (2 Bft) 98,00 %
13.10.2017 17:50 16,1 C 11,7 C 65 % 1025,5 hPa 0,0 l/m 5,5 km/h (1 Bft) W-SW 240 0 min 0,000 mm 0,0 UV-I 30 W/m 9,5 C 16,1 C 9,7 km/h (2 Bft) 100,00 %
13.10.2017 17:52 16,0 C 11,7 C 66 % 1025,5 hPa 0,0 l/m 5,3 km/h (1 Bft) W 259 0 min 0,000 mm 0,0 UV-I 32 W/m 9,7 C 16,0 C 6,4 km/h (2 Bft) 100,00 %
13.10.2017 17:54 15,9 C 11,7 C 66 % 1025,5 hPa 0,0 l/m 5,4 km/h (1 Bft) W 263 2 min 0,000 mm 0,0 UV-I 39 W/m 9,6 C 15,9 C 9,7 km/h (2 Bft) 100,00 %
13.10.2017 17:56 15,8 C 11,7 C 67 % 1025,5 hPa 0,0 l/m 5,9 km/h (2 Bft) W 262 2 min 0,000 mm 0,0 UV-I 36 W/m 9,7 C 15,8 C 9,7 km/h (2 Bft) 94,44 %
13.10.2017 17:58 15,8 C 11,7 C 67 % 1025,5 hPa 0,0 l/m 5,1 km/h (1 Bft) W-SW 254 2 min 0,000 mm 0,0 UV-I 32 W/m 9,7 C 15,8 C 6,4 km/h (2 Bft) 98,11 %
13.10.2017 18:00 15,7 C 11,7 C 67 % 1025,5 hPa 0,0 l/m 5,7 km/h (1 Bft) W 259 2 min 0,077 mm 0,0 UV-I 30 W/m 9,6 C 15,7 C 9,7 km/h (2 Bft) 100,00 %
13.10.2017 18:02 15,7 C 11,7 C 67 % 1025,5 hPa 0,0 l/m 6,0 km/h (2 Bft) W-SW 257 2 min 0,000 mm 0,0 UV-I 28 W/m 9,6 C 15,7 C 9,7 km/h (2 Bft) 100,00 %
13.10.2017 18:04 15,7 C 11,7 C 67 % 1025,5 hPa 0,0 l/m 7,0 km/h (2 Bft) W-SW 258 2 min 0,000 mm 0,0 UV-I 26 W/m 9,6 C 15,4 C 11,3 km/h (2 Bft) 98,11 %
13.10.2017 18:06 15,7 C 11,7 C 67 % 1025,5 hPa 0,0 l/m 6,3 km/h (2 Bft) W-SW 258 2 min 0,000 mm 0,0 UV-I 24 W/m 9,6 C 15,7 C 9,7 km/h (2 Bft) 100,00 %
13.10.2017 18:08 15,6 C 11,7 C 67 % 1025,5 hPa 0,0 l/m 6,8 km/h (2 Bft) W 259 2 min 0,000 mm 0,0 UV-I 21 W/m 9,5 C 15,4 C 11,3 km/h (2 Bft) 100,00 %
13.10.2017 18:10 15,6 C 11,7 C 67 % 1025,5 hPa 0,0 l/m 5,9 km/h (2 Bft) W 259 0 min 0,000 mm 0,0 UV-I 11 W/m 9,5 C 15,6 C 9,7 km/h (2 Bft) 98,00 %
13.10.2017 18:12 15,6 C 11,7 C 67 % 1025,5 hPa 0,0 l/m 7,1 km/h (2 Bft) W-SW 248 0 min 0,000 mm 0,0 UV-I 17 W/m 9,5 C 15,2 C 9,7 km/h (2 Bft) 100,00 %
13.10.2017 18:14 15,6 C 11,7 C 67 % 1025,5 hPa 0,0 l/m 6,6 km/h (2 Bft) W 259 0 min 0,000 mm 0,0 UV-I 13 W/m 9,5 C 15,5 C 9,7 km/h (2 Bft) 100,00 %
13.10.2017 18:16 15,5 C 11,7 C 67 % 1025,6 hPa 0,0 l/m 6,0 km/h (2 Bft) W-SW 252 0 min 0,000 mm 0,0 UV-I 12 W/m 9,4 C 15,5 C 9,7 km/h (2 Bft) 100,00 %
13.10.2017 18:18 15,4 C 11,7 C 67 % 1025,5 hPa 0,0 l/m 7,2 km/h (2 Bft) W-SW 249 0 min 0,000 mm 0,0 UV-I 11 W/m 9,3 C 15,0 C 11,3 km/h (2 Bft) 100,00 %
13.10.2017 18:20 15,4 C 11,7 C 67 % 1025,6 hPa 0,0 l/m 6,4 km/h (2 Bft) SW 233 0 min 0,000 mm 0,0 UV-I 9 W/m 9,3 C 15,4 C 9,7 km/h (2 Bft) 100,00 %
13.10.2017 18:22 15,4 C 11,7 C 67 % 1025,6 hPa 0,0 l/m 6,8 km/h (2 Bft) W 269 0 min 0,000 mm 0,0 UV-I 9 W/m 9,3 C 15,2 C 12,9 km/h (3 Bft) 100,00 %
13.10.2017 18:24 15,4 C 11,7 C 67 % 1025,6 hPa 0,0 l/m 6,6 km/h (2 Bft) W-SW 246 0 min 0,000 mm 0,0 UV-I 9 W/m 9,3 C 15,3 C 11,3 km/h (2 Bft) 100,00 %
13.10.2017 18:26 15,4 C 11,7 C 67 % 1025,6 hPa 0,0 l/m 7,0 km/h (2 Bft) W 259 0 min 0,000 mm 0,0 UV-I 9 W/m 9,3 C 15,1 C 11,3 km/h (2 Bft) 100,00 %
13.10.2017 18:28 15,4 C 11,7 C 67 % 1025,6 hPa 0,0 l/m 6,7 km/h (2 Bft) SW 229 0 min 0,000 mm 0,0 UV-I 9 W/m 9,3 C 15,2 C 12,9 km/h (3 Bft) 100,00 %
13.10.2017 18:30 15,4 C 11,7 C 67 % 1025,6 hPa 0,0 l/m 6,1 km/h (2 Bft) W-SW 239 0 min 0,000 mm 0,0 UV-I 11 W/m 9,3 C 15,4 C 11,3 km/h (2 Bft) 96,00 %
13.10.2017 18:32 15,3 C 11,7 C 67 % 1025,6 hPa 0,0 l/m 6,4 km/h (2 Bft) SW 215 0 min 0,000 mm 0,0 UV-I 0 W/m 9,2 C 15,3 C 11,3 km/h (2 Bft) 100,00 %
13.10.2017 18:34 15,3 C 11,7 C 67 % 1025,6 hPa 0,0 l/m 5,3 km/h (1 Bft) W-SW 240 0 min 0,000 mm 0,0 UV-I 0 W/m 9,2 C 15,3 C 6,4 km/h (2 Bft) 100,00 %
13.10.2017 18:36 15,3 C 11,7 C 68 % 1025,7 hPa 0,0 l/m 5,6 km/h (1 Bft) SW 228 0 min 0,000 mm 0,0 UV-I 0 W/m 9,4 C 15,3 C 8,0 km/h (2 Bft) 100,00 %
13.10.2017 18:38 15,2 C 11,7 C 68 % 1025,7 hPa 0,0 l/m 4,3 km/h (1 Bft) SW 232 0 min 0,000 mm 0,0 UV-I 5 W/m 9,3 C 15,2 C 6,4 km/h (2 Bft) 100,00 %
13.10.2017 18:40 15,1 C 11,7 C 68 % 1025,7 hPa 0,0 l/m 5,6 km/h (1 Bft) SW 235 0 min 0,000 mm 0,0 UV-I 5 W/m 9,2 C 15,1 C 9,7 km/h (2 Bft) 100,00 %
13.10.2017 18:42 15,1 C 11,7 C 69 % 1025,7 hPa 0,0 l/m 5,2 km/h (1 Bft) W-SW 243 0 min 0,000 mm 0,0 UV-I 3 W/m 9,5 C 15,1 C 8,0 km/h (2 Bft) 97,37 %
13.10.2017 18:44 14,9 C 11,7 C 69 % 1025,7 hPa 0,0 l/m 4,9 km/h (1 Bft) W-SW 258 0 min 0,000 mm 0,0 UV-I 0 W/m 9,3 C 14,9 C 6,4 km/h (2 Bft) 98,00 %
13.10.2017 18:46 14,9 C 11,7 C 69 % 1025,7 hPa 0,0 l/m 5,7 km/h (1 Bft) W-SW 248 0 min 0,000 mm 0,0 UV-I 0 W/m 9,3 C 14,9 C 9,7 km/h (2 Bft) 97,56 %
13.10.2017 18:48 14,8 C 11,7 C 69 % 1025,8 hPa 0,0 l/m 4,8 km/h (1 Bft) W-SW 248 0 min 0,000 mm 0,0 UV-I 0 W/m 9,2 C 14,8 C 6,4 km/h (2 Bft) 98,11 %
13.10.2017 18:50 14,8 C 11,7 C 70 % 1025,8 hPa 0,0 l/m 4,1 km/h (1 Bft) W-SW 252 0 min 0,000 mm 0,0 UV-I 0 W/m 9,4 C 14,8 C 4,8 km/h (1 Bft) 97,87 %
13.10.2017 18:52 14,7 C 11,7 C 70 % 1025,8 hPa 0,0 l/m 3,5 km/h (1 Bft) W-SW 252 0 min 0,000 mm 0,0 UV-I 0 W/m 9,3 C 14,7 C 4,8 km/h (1 Bft) 98,00 %
13.10.2017 18:54 14,7 C 11,7 C 70 % 1025,8 hPa 0,0 l/m 3,7 km/h (1 Bft) W-SW 252 0 min 0,000 mm 0,0 UV-I 0 W/m 9,3 C 14,7 C 6,4 km/h (2 Bft) 95,74 %
13.10.2017 18:56 14,6 C 11,7 C 71 % 1025,8 hPa 0,0 l/m 2,2 km/h (1 Bft) W-SW 252 0 min 0,000 mm 0,0 UV-I 0 W/m 9,4 C 14,6 C 3,2 km/h (1 Bft) 100,00 %
13.10.2017 18:58 14,6 C 11,7 C 71 % 1025,8 hPa 0,0 l/m 3,0 km/h (1 Bft) W-SW 252 0 min 0,000 mm 0,0 UV-I 0 W/m 9,4 C 14,6 C 6,4 km/h (2 Bft) 96,36 %
13.10.2017 19:00 14,5 C 11,7 C 71 % 1025,9 hPa 0,0 l/m 3,1 km/h (1 Bft) W-SW 252 0 min 0,000 mm 0,0 UV-I 0 W/m 9,3 C 14,5 C 4,8 km/h (1 Bft) 97,87 %
13.10.2017 19:02 14,5 C 11,7 C 71 % 1025,9 hPa 0,0 l/m 2,6 km/h (1 Bft) W-SW 252 0 min 0,025 mm 0,0 UV-I 0 W/m 9,3 C 14,5 C 4,8 km/h (1 Bft) 98,00 %
13.10.2017 19:04 14,4 C 11,7 C 71 % 1025,9 hPa 0,0 l/m 3,2 km/h (1 Bft) W-SW 252 0 min 0,000 mm 0,0 UV-I 0 W/m 9,2 C 14,4 C 4,8 km/h (1 Bft) 97,37 %
13.10.2017 19:06 14,4 C 11,7 C 71 % 1025,9 hPa 0,0 l/m 2,8 km/h (1 Bft) W-SW 250 0 min 0,000 mm 0,0 UV-I 0 W/m 9,2 C 14,4 C 4,8 km/h (1 Bft) 93,62 %
13.10.2017 19:08 14,3 C 11,7 C 72 % 1025,9 hPa 0,0 l/m 3,8 km/h (1 Bft) W-SW 250 0 min 0,000 mm 0,0 UV-I 0 W/m 9,3 C 14,3 C 4,8 km/h (1 Bft) 96,00 %
13.10.2017 19:10 14,2 C 11,7 C 73 % 1025,9 hPa 0,0 l/m 4,9 km/h (1 Bft) SW 232 0 min 0,000 mm 0,0 UV-I 0 W/m 9,4 C 14,2 C 6,4 km/h (2 Bft) 96,00 %
13.10.2017 19:12 14,0 C 11,7 C 73 % 1025,9 hPa 0,0 l/m 4,2 km/h (1 Bft) SW 232 0 min 0,000 mm 0,0 UV-I 0 W/m 9,2 C 14,0 C 6,4 km/h (2 Bft) 95,74 %
13.10.2017 19:14 13,9 C 11,7 C 74 % 1025,9 hPa 0,0 l/m 4,0 km/h (1 Bft) SW 232 0 min 0,000 mm 0,0 UV-I 0 W/m 9,3 C 13,9 C 4,8 km/h (1 Bft) 95,24 %
13.10.2017 19:16 13,8 C 11,7 C 74 % 1025,9 hPa 0,0 l/m 4,9 km/h (1 Bft) SW 230 0 min 0,000 mm 0,0 UV-I 0 W/m 9,2 C 13,8 C 6,4 km/h (2 Bft) 96,00 %
13.10.2017 19:18 13,6 C 11,7 C 75 % 1025,9 hPa 0,0 l/m 4,2 km/h (1 Bft) SW 230 0 min 0,000 mm 0,0 UV-I 0 W/m 9,3 C 13,6 C 6,4 km/h (2 Bft) 90,24 %
13.10.2017 19:20 13,3 C 11,7 C 75 % 1025,9 hPa 0,0 l/m 4,3 km/h (1 Bft) SW 229 0 min 0,000 mm 0,0 UV-I 0 W/m 9,0 C 13,3 C 6,4 km/h (2 Bft) 92,00 %
13.10.2017 19:22 13,1 C 11,7 C 77 % 1026,0 hPa 0,0 l/m 2,7 km/h (1 Bft) SW 229 0 min 0,000 mm 0,0 UV-I 0 W/m 9,2 C 13,1 C 4,8 km/h (1 Bft) 93,62 %
13.10.2017 19:24 12,8 C 11,7 C 77 % 1026,0 hPa 0,0 l/m 1,7 km/h (1 Bft) SW 229 0 min 0,000 mm 0,0 UV-I 0 W/m 8,9 C 12,8 C 4,8 km/h (1 Bft) 96,23 %
13.10.2017 19:26 12,6 C 11,7 C 78 % 1026,0 hPa 0,0 l/m 2,4 km/h (1 Bft) SW 227 0 min 0,000 mm 0,0 UV-I 0 W/m 8,9 C 12,6 C 4,8 km/h (1 Bft) 95,74 %
13.10.2017 19:28 12,5 C 11,7 C 79 % 1026,0 hPa 0,0 l/m 1,9 km/h (1 Bft) S-SW 202 0 min 0,000 mm 0,0 UV-I 0 W/m 9,0 C 12,5 C 3,2 km/h (1 Bft) 94,29 %
13.10.2017 19:30 12,3 C 11,7 C 80 % 1026,1 hPa 0,0 l/m 1,9 km/h (1 Bft) S-SW 201 0 min 0,000 mm 0,0 UV-I 0 W/m 8,9 C 12,3 C 4,8 km/h (1 Bft) 97,37 %
13.10.2017 19:32 12,2 C 11,7 C 80 % 1026,1 hPa 0,0 l/m 3,7 km/h (1 Bft) S-SW 200 0 min 0,000 mm 0,0 UV-I 0 W/m 8,9 C 12,2 C 6,4 km/h (2 Bft) 97,06 %
13.10.2017 19:34 12,1 C 11,7 C 81 % 1026,1 hPa 0,0 l/m 3,9 km/h (1 Bft) S-SW 201 0 min 0,000 mm 0,0 UV-I 0 W/m 8,9 C 12,1 C 6,4 km/h (2 Bft) 94,74 %
13.10.2017 19:36 11,9 C 11,7 C 81 % 1026,1 hPa 0,0 l/m 4,1 km/h (1 Bft) S-SW 200 0 min 0,000 mm 0,0 UV-I 0 W/m 8,7 C 11,9 C 8,0 km/h (2 Bft) 95,74 %
13.10.2017 19:38 11,9 C 11,7 C 82 % 1026,2 hPa 0,0 l/m 4,2 km/h (1 Bft) S 188 0 min 0,000 mm 0,0 UV-I 0 W/m 8,9 C 11,9 C 6,4 km/h (2 Bft) 92,00 %
13.10.2017 19:40 11,8 C 11,7 C 82 % 1026,2 hPa 0,0 l/m 4,2 km/h (1 Bft) S-SW 205 0 min 0,000 mm 0,0 UV-I 0 W/m 8,8 C 11,8 C 6,4 km/h (2 Bft) 93,62 %
13.10.2017 19:42 11,8 C 11,7 C 82 % 1026,2 hPa 0,0 l/m 4,0 km/h (1 Bft) S-SW 209 0 min 0,000 mm 0,0 UV-I 0 W/m 8,8 C 11,8 C 6,4 km/h (2 Bft) 98,11 %
13.10.2017 19:44 11,8 C 11,7 C 82 % 1026,2 hPa 0,0 l/m 3,1 km/h (1 Bft) S-SW 209 0 min 0,000 mm 0,0 UV-I 0 W/m 8,8 C 11,8 C 6,4 km/h (2 Bft) 97,56 %
13.10.2017 19:46 11,7 C 11,7 C 82 % 1026,2 hPa 0,0 l/m 3,3 km/h (1 Bft) S-SW 203 0 min 0,000 mm 0,0 UV-I 0 W/m 8,7 C 11,7 C 4,8 km/h (1 Bft) 96,00 %
13.10.2017 19:48 11,7 C 11,7 C 83 % 1026,2 hPa 0,0 l/m 3,1 km/h (1 Bft) S 189 0 min 0,000 mm 0,0 UV-I 0 W/m 8,9 C 11,7 C 6,4 km/h (2 Bft) 100,00 %
13.10.2017 19:50 11,7 C 11,7 C 83 % 1026,2 hPa 0,0 l/m 1,9 km/h (1 Bft) S 189 0 min 0,000 mm 0,0 UV-I 0 W/m 8,9 C 11,7 C 4,8 km/h (1 Bft) 97,87 %
13.10.2017 19:52 11,7 C 11,7 C 83 % 1026,3 hPa 0,0 l/m 2,1 km/h (1 Bft) S 189 0 min 0,000 mm 0,0 UV-I 0 W/m 8,9 C 11,7 C 4,8 km/h (1 Bft) 100,00 %
13.10.2017 19:54 11,7 C 11,7 C 83 % 1026,3 hPa 0,0 l/m 1,6 km/h (1 Bft) S 189 0 min 0,000 mm 0,0 UV-I 0 W/m 8,9 C 11,7 C 3,2 km/h (1 Bft) 100,00 %
13.10.2017 19:56 11,7 C 11,7 C 83 % 1026,3 hPa 0,0 l/m 2,3 km/h (1 Bft) S 189 0 min 0,000 mm 0,0 UV-I 0 W/m 8,9 C 11,7 C 4,8 km/h (1 Bft) 97,44 %
13.10.2017 19:58 11,6 C 11,7 C 83 % 1026,3 hPa 0,0 l/m 0,6 km/h (0 Bft) S 189 0 min 0,000 mm 0,0 UV-I 0 W/m 8,8 C 11,6 C 1,6 km/h (1 Bft) 100,00 %
13.10.2017 20:00 11,6 C 11,7 C 83 % 1026,3 hPa 0,0 l/m 0,1 km/h (0 Bft) S 189 0 min 0,000 mm 0,0 UV-I 0 W/m 8,8 C 11,6 C 1,6 km/h (1 Bft) 100,00 %
13.10.2017 20:02 11,6 C 11,7 C 84 % 1026,3 hPa 0,0 l/m 1,8 km/h (1 Bft) S 189 0 min 0,025 mm 0,0 UV-I 0 W/m 9,0 C 11,6 C 3,2 km/h (1 Bft) 100,00 %
13.10.2017 20:04 11,6 C 11,7 C 83 % 1026,3 hPa 0,0 l/m 2,7 km/h (1 Bft) S 189 0 min 0,000 mm 0,0 UV-I 0 W/m 8,8 C 11,6 C 4,8 km/h (1 Bft) 100,00 %
13.10.2017 20:06 11,4 C 11,7 C 84 % 1026,3 hPa 0,0 l/m 3,0 km/h (1 Bft) S 189 0 min 0,000 mm 0,0 UV-I 0 W/m 8,8 C 11,4 C 4,8 km/h (1 Bft) 100,00 %
13.10.2017 20:08 11,4 C 11,7 C 84 % 1026,3 hPa 0,0 l/m 2,3 km/h (1 Bft) S 189 0 min 0,000 mm 0,0 UV-I 0 W/m 8,8 C 11,4 C 3,2 km/h (1 Bft) 100,00 %
13.10.2017 20:10 11,3 C 11,7 C 84 % 1026,3 hPa 0,0 l/m 2,4 km/h (1 Bft) S 189 0 min 0,000 mm 0,0 UV-I 0 W/m 8,7 C 11,3 C 3,2 km/h (1 Bft) 100,00 %
13.10.2017 20:12 11,2 C 11,7 C 84 % 1026,3 hPa 0,0 l/m 2,7 km/h (1 Bft) S 189 0 min 0,000 mm 0,0 UV-I 0 W/m 8,6 C 11,2 C 4,8 km/h (1 Bft) 100,00 %
13.10.2017 20:14 11,2 C 11,7 C 85 % 1026,2 hPa 0,0 l/m 4,1 km/h (1 Bft) S 189 0 min 0,000 mm 0,0 UV-I 0 W/m 8,8 C 11,2 C 4,8 km/h (1 Bft) 100,00 %
13.10.2017 20:16 11,2 C 11,7 C 85 % 1026,2 hPa 0,0 l/m 3,3 km/h (1 Bft) S 189 0 min 0,000 mm 0,0 UV-I 0 W/m 8,8 C 11,2 C 4,8 km/h (1 Bft) 100,00 %
13.10.2017 20:18 11,0 C 11,7 C 85 % 1026,2 hPa 0,0 l/m 3,5 km/h (1 Bft) S 189 0 min 0,000 mm 0,0 UV-I 0 W/m 8,6 C 11,0 C 4,8 km/h (1 Bft) 100,00 %
13.10.2017 20:20 10,8 C 11,7 C 85 % 1026,2 hPa 0,0 l/m 2,9 km/h (1 Bft) S 189 0 min 0,000 mm 0,0 UV-I 0 W/m 8,4 C 10,8 C 4,8 km/h (1 Bft) 97,56 %
13.10.2017 20:22 10,7 C 11,7 C 85 % 1026,3 hPa 0,0 l/m 2,7 km/h (1 Bft) S 189 0 min 0,000 mm 0,0 UV-I 0 W/m 8,3 C 10,7 C 4,8 km/h (1 Bft) 100,00 %
13.10.2017 20:24 10,6 C 11,7 C 86 % 1026,3 hPa 0,0 l/m 2,2 km/h (1 Bft) S 189 0 min 0,000 mm 0,0 UV-I 0 W/m 8,4 C 10,6 C 3,2 km/h (1 Bft) 100,00 %
13.10.2017 20:26 10,6 C 11,7 C 87 % 1026,3 hPa 0,0 l/m 3,3 km/h (1 Bft) S 189 0 min 0,000 mm 0,0 UV-I 0 W/m 8,5 C 10,6 C 4,8 km/h (1 Bft) 100,00 %
13.10.2017 20:28 10,6 C 11,7 C 87 % 1026,2 hPa 0,0 l/m 2,8 km/h (1 Bft) S 188 0 min 0,000 mm 0,0 UV-I 0 W/m 8,5 C 10,6 C 4,8 km/h (1 Bft) 100,00 %
13.10.2017 20:30 10,7 C 11,7 C 87 % 1026,3 hPa 0,0 l/m 2,3 km/h (1 Bft) S 188 0 min 0,000 mm 0,0 UV-I 0 W/m 8,6 C 10,7 C 3,2 km/h (1 Bft) 100,00 %
13.10.2017 20:32 10,8 C 11,7 C 87 % 1026,2 hPa 0,0 l/m 2,0 km/h (1 Bft) S 188 0 min 0,000 mm 0,0 UV-I 0 W/m 8,7 C 10,8 C 3,2 km/h (1 Bft) 100,00 %
13.10.2017 20:34 10,8 C 11,7 C 86 % 1026,3 hPa 0,0 l/m 2,2 km/h (1 Bft) S 188 0 min 0,000 mm 0,0 UV-I 0 W/m 8,6 C 10,8 C 3,2 km/h (1 Bft) 100,00 %
13.10.2017 20:36 10,8 C 11,7 C 86 % 1026,3 hPa 0,0 l/m 2,4 km/h (1 Bft) S 188 0 min 0,000 mm 0,0 UV-I 0 W/m 8,6 C 10,8 C 3,2 km/h (1 Bft) 97,87 %
13.10.2017 20:38 10,8 C 11,7 C 86 % 1026,3 hPa 0,0 l/m 3,0 km/h (1 Bft) S 188 0 min 0,000 mm 0,0 UV-I 0 W/m 8,6 C 10,8 C 4,8 km/h (1 Bft) 100,00 %
13.10.2017 20:40 10,8 C 11,7 C 86 % 1026,4 hPa 0,0 l/m 3,2 km/h (1 Bft) S 188 0 min 0,000 mm 0,0 UV-I 0 W/m 8,6 C 10,8 C 4,8 km/h (1 Bft) 100,00 %
13.10.2017 20:42 10,8 C 11,7 C 86 % 1026,4 hPa 0,0 l/m 3,6 km/h (1 Bft) S 188 0 min 0,000 mm 0,0 UV-I 0 W/m 8,6 C 10,8 C 4,8 km/h (1 Bft) 100,00 %
13.10.2017 20:44 10,8 C 11,7 C 86 % 1026,4 hPa 0,0 l/m 3,6 km/h (1 Bft) S 188 0 min 0,000 mm 0,0 UV-I 0 W/m 8,6 C 10,8 C 4,8 km/h (1 Bft) 100,00 %
13.10.2017 20:46 10,8 C 11,7 C 86 % 1026,3 hPa 0,0 l/m 2,9 km/h (1 Bft) S 188 0 min 0,000 mm 0,0 UV-I 0 W/m 8,6 C 10,8 C 4,8 km/h (1 Bft) 100,00 %
13.10.2017 20:48 10,8 C 11,7 C 87 % 1026,3 hPa 0,0 l/m 4,0 km/h (1 Bft) S-SW 192 0 min 0,000 mm 0,0 UV-I 0 W/m 8,7 C 10,8 C 6,4 km/h (2 Bft) 97,87 %
13.10.2017 20:50 10,9 C 11,7 C 87 % 1026,3 hPa 0,0 l/m 3,1 km/h (1 Bft) S 189 0 min 0,000 mm 0,0 UV-I 0 W/m 8,8 C 10,9 C 4,8 km/h (1 Bft) 100,00 %
13.10.2017 20:52 10,8 C 11,7 C 86 % 1026,3 hPa 0,0 l/m 2,3 km/h (1 Bft) S 188 0 min 0,000 mm 0,0 UV-I 0 W/m 8,6 C 10,8 C 4,8 km/h (1 Bft) 97,87 %
13.10.2017 20:54 10,8 C 11,7 C 87 % 1026,4 hPa 0,0 l/m 2,9 km/h (1 Bft) S 188 0 min 0,000 mm 0,0 UV-I 0 W/m 8,7 C 10,8 C 6,4 km/h (2 Bft) 100,00 %
13.10.2017 20:56 10,8 C 11,7 C 86 % 1026,4 hPa 0,0 l/m 2,4 km/h (1 Bft) S 188 0 min 0,000 mm 0,0 UV-I 0 W/m 8,6 C 10,8 C 4,8 km/h (1 Bft) 100,00 %
13.10.2017 20:58 10,8 C 11,7 C 87 % 1026,4 hPa 0,0 l/m 2,8 km/h (1 Bft) S 186 0 min 0,000 mm 0,0 UV-I 0 W/m 8,7 C 10,8 C 4,8 km/h (1 Bft) 96,23 %
13.10.2017 21:00 10,8 C 11,7 C 87 % 1026,4 hPa 0,0 l/m 3,0 km/h (1 Bft) S 183 0 min 0,000 mm 0,0 UV-I 0 W/m 8,7 C 10,8 C 6,4 km/h (2 Bft) 100,00 %
13.10.2017 21:03 10,8 C 11,7 C 87 % 1026,6 hPa 0,0 l/m 2,8 km/h (1 Bft) S 183 0 min 0,000 mm 0,0 UV-I 0 W/m 8,7 C 10,8 C 4,8 km/h (1 Bft) 98,65 %
13.10.2017 21:04 10,9 C 11,7 C 87 % 1026,6 hPa 0,0 l/m 3,6 km/h (1 Bft) S 182 0 min 0,000 mm 0,0 UV-I 0 W/m 8,8 C 10,9 C 4,8 km/h (1 Bft) 100,00 %
13.10.2017 21:06 11,1 C 11,7 C 87 % 1026,5 hPa 0,0 l/m 3,5 km/h (1 Bft) S 182 0 min 0,000 mm 0,0 UV-I 0 W/m 9,0 C 11,1 C 6,4 km/h (2 Bft) 100,00 %
13.10.2017 21:08 11,2 C 11,7 C 87 % 1026,6 hPa 0,0 l/m 3,3 km/h (1 Bft) S 182 0 min 0,000 mm 0,0 UV-I 0 W/m 9,1 C 11,2 C 4,8 km/h (1 Bft) 100,00 %
13.10.2017 21:10 11,3 C 11,7 C 87 % 1026,7 hPa 0,0 l/m 3,5 km/h (1 Bft) S 182 0 min 0,000 mm 0,0 UV-I 0 W/m 9,2 C 11,3 C 6,4 km/h (2 Bft) 97,56 %
13.10.2017 21:12 11,3 C 11,7 C 86 % 1026,7 hPa 0,0 l/m 3,7 km/h (1 Bft) S 182 0 min 0,000 mm 0,0 UV-I 0 W/m 9,0 C 11,3 C 4,8 km/h (1 Bft) 100,00 %
13.10.2017 21:14 11,3 C 11,7 C 86 % 1026,7 hPa 0,0 l/m 4,0 km/h (1 Bft) S-SW 202 0 min 0,000 mm 0,0 UV-I 0 W/m 9,0 C 11,3 C 6,4 km/h (2 Bft) 100,00 %
13.10.2017 21:16 11,3 C 11,7 C 86 % 1026,8 hPa 0,0 l/m 3,4 km/h (1 Bft) S-SW 202 0 min 0,000 mm 0,0 UV-I 0 W/m 9,0 C 11,3 C 4,8 km/h (1 Bft) 100,00 %
13.10.2017 21:18 11,3 C 11,7 C 86 % 1026,8 hPa 0,0 l/m 3,0 km/h (1 Bft) S-SW 202 0 min 0,000 mm 0,0 UV-I 0 W/m 9,0 C 11,3 C 4,8 km/h (1 Bft) 100,00 %
13.10.2017 21:20 11,2 C 11,7 C 86 % 1026,9 hPa 0,0 l/m 2,8 km/h (1 Bft) S-SW 202 0 min 0,000 mm 0,0 UV-I 0 W/m 8,9 C 11,2 C 4,8 km/h (1 Bft) 97,14 %
13.10.2017 21:22 11,2 C 11,7 C 86 % 1026,9 hPa 0,0 l/m 1,8 km/h (1 Bft) S-SW 202 0 min 0,000 mm 0,0 UV-I 0 W/m 8,9 C 11,2 C 3,2 km/h (1 Bft) 98,11 %
13.10.2017 21:24 11,1 C 11,7 C 86 % 1026,9 hPa 0,0 l/m 0,8 km/h (0 Bft) S-SW 202 0 min 0,000 mm 0,0 UV-I 0 W/m 8,8 C 11,1 C 3,2 km/h (1 Bft) 97,73 %
13.10.2017 21:26 10,9 C 11,7 C 86 % 1026,9 hPa 0,0 l/m 1,7 km/h (1 Bft) S-SW 202 0 min 0,000 mm 0,0 UV-I 0 W/m 8,7 C 10,9 C 3,2 km/h (1 Bft) 98,18 %
13.10.2017 21:28 10,8 C 11,7 C 86 % 1026,8 hPa 0,0 l/m 2,8 km/h (1 Bft) S-SW 202 0 min 0,000 mm 0,0 UV-I 0 W/m 8,6 C 10,8 C 4,8 km/h (1 Bft) 97,37 %
13.10.2017 21:30 10,8 C 11,7 C 87 % 1026,8 hPa 0,0 l/m 2,3 km/h (1 Bft) S-SW 201 0 min 0,000 mm 0,0 UV-I 0 W/m 8,7 C 10,8 C 3,2 km/h (1 Bft) 96,23 %
13.10.2017 21:32 10,8 C 11,7 C 87 % 1026,7 hPa 0,0 l/m 3,1 km/h (1 Bft) S 190 0 min 0,000 mm 0,0 UV-I 0 W/m 8,7 C 10,8 C 4,8 km/h (1 Bft) 94,74 %
13.10.2017 21:34 10,8 C 11,7 C 87 % 1026,7 hPa 0,0 l/m 3,2 km/h (1 Bft) S 190 0 min 0,000 mm 0,0 UV-I 0 W/m 8,7 C 10,8 C 4,8 km/h (1 Bft) 97,87 %
13.10.2017 21:36 10,8 C 11,7 C 88 % 1026,7 hPa 0,0 l/m 3,7 km/h (1 Bft) S 190 0 min 0,000 mm 0,0 UV-I 0 W/m 8,9 C 10,8 C 6,4 km/h (2 Bft) 98,11 %
13.10.2017 21:38 10,8 C 11,7 C 88 % 1026,7 hPa 0,0 l/m 4,5 km/h (1 Bft) S-SW 196 0 min 0,000 mm 0,0 UV-I 0 W/m 8,9 C 10,8 C 6,4 km/h (2 Bft) 96,00 %
13.10.2017 21:40 10,9 C 11,7 C 88 % 1026,8 hPa 0,0 l/m 5,1 km/h (1 Bft) S-SW 196 0 min 0,000 mm 0,0 UV-I 0 W/m 9,0 C 10,9 C 9,7 km/h (2 Bft) 97,37 %
13.10.2017 21:42 11,0 C 11,7 C 88 % 1026,8 hPa 0,0 l/m 5,2 km/h (1 Bft) S 184 0 min 0,000 mm 0,0 UV-I 0 W/m 9,1 C 11,0 C 6,4 km/h (2 Bft) 96,00 %
13.10.2017 21:44 11,1 C 11,7 C 88 % 1026,8 hPa 0,0 l/m 5,1 km/h (1 Bft) S 190 0 min 0,000 mm 0,0 UV-I 0 W/m 9,2 C 11,1 C 6,4 km/h (2 Bft) 96,00 %
13.10.2017 21:46 11,1 C 11,7 C 87 % 1026,9 hPa 0,0 l/m 2,7 km/h (1 Bft) S 190 0 min 0,000 mm 0,0 UV-I 0 W/m 9,0 C 11,1 C 6,4 km/h (2 Bft) 97,22 %
13.10.2017 21:49 11,1 C 11,7 C 87 % 1026,9 hPa 0,0 l/m 3,2 km/h (1 Bft) S 186 0 min 0,000 mm 0,0 UV-I 0 W/m 9,0 C 11,1 C 6,4 km/h (2 Bft) 97,56 %
13.10.2017 21:50 11,1 C 11,7 C 87 % 1026,9 hPa 0,0 l/m 3,8 km/h (1 Bft) S 180 0 min 0,000 mm 0,0 UV-I 0 W/m 9,0 C 11,1 C 4,8 km/h (1 Bft) 100,00 %
13.10.2017 21:52 11,1 C 11,7 C 87 % 1026,9 hPa 0,0 l/m 4,0 km/h (1 Bft) S 179 0 min 0,000 mm 0,0 UV-I 0 W/m 9,0 C 11,1 C 6,4 km/h (2 Bft) 97,78 %
13.10.2017 21:54 11,1 C 11,7 C 88 % 1026,9 hPa 0,0 l/m 4,4 km/h (1 Bft) S-SW 194 0 min 0,000 mm 0,0 UV-I 0 W/m 9,2 C 11,1 C 6,4 km/h (2 Bft) 95,74 %
13.10.2017 21:56 11,1 C 11,7 C 88 % 1026,9 hPa 0,0 l/m 4,8 km/h (1 Bft) S 186 0 min 0,000 mm 0,0 UV-I 0 W/m 9,2 C 11,1 C 6,4 km/h (2 Bft) 96,00 %
13.10.2017 21:58 11,1 C 11,7 C 88 % 1027,0 hPa 0,0 l/m 4,4 km/h (1 Bft) S-SW 210 0 min 0,000 mm 0,0 UV-I 0 W/m 9,2 C 11,1 C 8,0 km/h (2 Bft) 100,00 %
13.10.2017 22:00 11,2 C 11,7 C 88 % 1027,0 hPa 0,0 l/m 4,6 km/h (1 Bft) S 191 0 min 0,000 mm 0,0 UV-I 0 W/m 9,3 C 11,2 C 6,4 km/h (2 Bft) 98,11 %
13.10.2017 22:02 11,2 C 11,7 C 88 % 1027,0 hPa 0,0 l/m 4,3 km/h (1 Bft) S 174 0 min 0,000 mm 0,0 UV-I 0 W/m 9,3 C 11,2 C 8,0 km/h (2 Bft) 97,56 %
13.10.2017 22:04 11,1 C 11,7 C 87 % 1027,0 hPa 0,0 l/m 3,4 km/h (1 Bft) S 188 0 min 0,000 mm 0,0 UV-I 0 W/m 9,0 C 11,1 C 4,8 km/h (1 Bft) 97,87 %
13.10.2017 22:06 11,1 C 11,7 C 88 % 1027,0 hPa 0,0 l/m 3,9 km/h (1 Bft) S 188 0 min 0,000 mm 0,0 UV-I 0 W/m 9,2 C 11,1 C 6,4 km/h (2 Bft) 98,00 %
13.10.2017 22:08 11,1 C 11,7 C 88 % 1027,0 hPa 0,0 l/m 3,6 km/h (1 Bft) S 191 0 min 0,000 mm 0,0 UV-I 0 W/m 9,2 C 11,1 C 6,4 km/h (2 Bft) 100,00 %
13.10.2017 22:10 11,1 C 11,7 C 88 % 1027,0 hPa 0,0 l/m 4,1 km/h (1 Bft) S 187 0 min 0,000 mm 0,0 UV-I 0 W/m 9,2 C 11,1 C 6,4 km/h (2 Bft) 96,00 %
13.10.2017 22:12 11,1 C 11,7 C 88 % 1027,1 hPa 0,0 l/m 4,4 km/h (1 Bft) S 188 0 min 0,000 mm 0,0 UV-I 0 W/m 9,2 C 11,1 C 6,4 km/h (2 Bft) 97,73 %
13.10.2017 22:14 11,1 C 11,7 C 88 % 1027,1 hPa 0,0 l/m 4,3 km/h (1 Bft) S 175 0 min 0,000 mm 0,0 UV-I 0 W/m 9,2 C 11,1 C 6,4 km/h (2 Bft) 100,00 %
13.10.2017 22:16 11,0 C 11,7 C 88 % 1027,1 hPa 0,0 l/m 3,2 km/h (1 Bft) S 178 0 min 0,000 mm 0,0 UV-I 0 W/m 9,1 C 11,0 C 4,8 km/h (1 Bft) 100,00 %
13.10.2017 22:18 11,0 C 11,7 C 88 % 1027,1 hPa 0,0 l/m 4,1 km/h (1 Bft) S 182 0 min 0,000 mm 0,0 UV-I 0 W/m 9,1 C 11,0 C 6,4 km/h (2 Bft) 100,00 %
13.10.2017 22:20 10,9 C 11,7 C 88 % 1027,0 hPa 0,0 l/m 5,2 km/h (1 Bft) S 173 0 min 0,000 mm 0,0 UV-I 0 W/m 9,0 C 10,9 C 8,0 km/h (2 Bft) 100,00 %
13.10.2017 22:22 10,9 C 11,7 C 89 % 1027,1 hPa 0,0 l/m 4,2 km/h (1 Bft) S-SW 199 0 min 0,000 mm 0,0 UV-I 0 W/m 9,2 C 10,9 C 6,4 km/h (2 Bft) 97,37 %
13.10.2017 22:24 10,9 C 11,7 C 89 % 1027,1 hPa 0,0 l/m 4,1 km/h (1 Bft) S 170 0 min 0,000 mm 0,0 UV-I 0 W/m 9,2 C 10,9 C 8,0 km/h (2 Bft) 96,23 %
13.10.2017 22:26 11,0 C 11,7 C 89 % 1027,1 hPa 0,0 l/m 5,1 km/h (1 Bft) S-SW 194 0 min 0,000 mm 0,0 UV-I 0 W/m 9,3 C 11,0 C 9,7 km/h (2 Bft) 95,12 %
13.10.2017 22:28 11,0 C 11,7 C 89 % 1027,1 hPa 0,0 l/m 4,1 km/h (1 Bft) S-SO 168 0 min 0,000 mm 0,0 UV-I 0 W/m 9,3 C 11,0 C 6,4 km/h (2 Bft) 97,44 %
13.10.2017 22:30 11,1 C 11,7 C 89 % 1027,1 hPa 0,0 l/m 5,4 km/h (1 Bft) S 173 0 min 0,000 mm 0,0 UV-I 0 W/m 9,4 C 11,1 C 9,7 km/h (2 Bft) 98,11 %
13.10.2017 22:32 11,1 C 11,7 C 89 % 1027,1 hPa 0,0 l/m 6,7 km/h (2 Bft) S-SW 193 0 min 0,000 mm 0,0 UV-I 0 W/m 9,4 C 10,9 C 9,7 km/h (2 Bft) 96,36 %
13.10.2017 22:34 11,1 C 11,7 C 89 % 1027,1 hPa 0,0 l/m 6,2 km/h (2 Bft) S 182 0 min 0,000 mm 0,0 UV-I 0 W/m 9,4 C 11,1 C 8,0 km/h (2 Bft) 97,44 %
13.10.2017 22:36 11,1 C 11,7 C 89 % 1027,1 hPa 0,0 l/m 5,8 km/h (2 Bft) S 178 0 min 0,000 mm 0,0 UV-I 0 W/m 9,4 C 11,1 C 11,3 km/h (2 Bft) 95,45 %
13.10.2017 22:38 11,1 C 11,7 C 89 % 1027,1 hPa 0,0 l/m 6,0 km/h (2 Bft) S 181 0 min 0,000 mm 0,0 UV-I 0 W/m 9,4 C 11,1 C 8,0 km/h (2 Bft) 98,31 %
13.10.2017 22:40 11,1 C 11,7 C 89 % 1027,1 hPa 0,0 l/m 5,7 km/h (1 Bft) S 188 0 min 0,000 mm 0,0 UV-I 0 W/m 9,4 C 11,1 C 9,7 km/h (2 Bft) 97,56 %
13.10.2017 22:42 11,1 C 11,7 C 89 % 1027,1 hPa 0,0 l/m 6,4 km/h (2 Bft) S 187 0 min 0,000 mm 0,0 UV-I 0 W/m 9,4 C 11,1 C 9,7 km/h (2 Bft) 96,00 %
13.10.2017 22:44 11,0 C 11,7 C 89 % 1027,1 hPa 0,0 l/m 5,3 km/h (1 Bft) W-SW 238 0 min 0,000 mm 0,0 UV-I 0 W/m 9,3 C 11,0 C 8,0 km/h (2 Bft) 98,00 %
13.10.2017 22:46 10,9 C 11,7 C 89 % 1027,1 hPa 0,0 l/m 5,0 km/h (1 Bft) S-SW 202 0 min 0,000 mm 0,0 UV-I 0 W/m 9,2 C 10,9 C 8,0 km/h (2 Bft) 97,30 %
13.10.2017 22:48 10,9 C 11,7 C 89 % 1027,0 hPa 0,0 l/m 5,5 km/h (1 Bft) S-SW 197 0 min 0,000 mm 0,0 UV-I 0 W/m 9,2 C 10,9 C 6,4 km/h (2 Bft) 95,74 %
13.10.2017 22:50 10,8 C 11,7 C 89 % 1027,0 hPa 0,0 l/m 5,5 km/h (1 Bft) S-SW 196 0 min 0,000 mm 0,0 UV-I 0 W/m 9,1 C 10,8 C 9,7 km/h (2 Bft) 98,00 %
13.10.2017 22:52 10,7 C 11,7 C 90 % 1027,1 hPa 0,0 l/m 5,1 km/h (1 Bft) S-SW 196 0 min 0,000 mm 0,0 UV-I 0 W/m 9,1 C 10,7 C 8,0 km/h (2 Bft) 96,08 %
13.10.2017 22:54 10,7 C 11,7 C 90 % 1027,1 hPa 0,0 l/m 5,3 km/h (1 Bft) S-SW 202 0 min 0,000 mm 0,0 UV-I 0 W/m 9,1 C 10,7 C 8,0 km/h (2 Bft) 97,96 %
13.10.2017 22:56 10,7 C 11,7 C 90 % 1027,1 hPa 0,0 l/m 6,9 km/h (2 Bft) S-SW 199 0 min 0,000 mm 0,0 UV-I 0 W/m 9,1 C 10,4 C 14,5 km/h (3 Bft) 97,37 %
13.10.2017 22:58 10,8 C 11,7 C 90 % 1027,1 hPa 0,0 l/m 5,5 km/h (1 Bft) S-SW 202 0 min 0,000 mm 0,0 UV-I 0 W/m 9,2 C 10,8 C 9,7 km/h (2 Bft) 98,11 %
13.10.2017 23:00 10,8 C 11,7 C 91 % 1027,1 hPa 0,0 l/m 5,1 km/h (1 Bft) SW 215 0 min 0,000 mm 0,0 UV-I 0 W/m 9,4 C 10,8 C 9,7 km/h (2 Bft) 97,37 %
13.10.2017 23:02 10,8 C 11,7 C 91 % 1027,2 hPa 0,0 l/m 4,9 km/h (1 Bft) S 189 0 min 0,000 mm 0,0 UV-I 0 W/m 9,4 C 10,8 C 8,0 km/h (2 Bft) 98,15 %
13.10.2017 23:04 10,9 C 11,7 C 91 % 1027,2 hPa 0,0 l/m 4,6 km/h (1 Bft) S-SO 165 0 min 0,000 mm 0,0 UV-I 0 W/m 9,5 C 10,9 C 8,0 km/h (2 Bft) 96,00 %
13.10.2017 23:06 10,9 C 11,7 C 91 % 1027,2 hPa 0,0 l/m 5,5 km/h (1 Bft) S-SW 192 0 min 0,000 mm 0,0 UV-I 0 W/m 9,5 C 10,9 C 8,0 km/h (2 Bft) 97,44 %
13.10.2017 23:08 10,9 C 11,7 C 91 % 1027,3 hPa 0,0 l/m 5,8 km/h (2 Bft) S-SW 205 0 min 0,000 mm 0,0 UV-I 0 W/m 9,5 C 10,9 C 8,0 km/h (2 Bft) 96,15 %
13.10.2017 23:10 11,0 C 11,7 C 91 % 1027,3 hPa 0,0 l/m 4,8 km/h (1 Bft) S 188 0 min 0,000 mm 0,0 UV-I 0 W/m 9,6 C 11,0 C 8,0 km/h (2 Bft) 96,00 %
13.10.2017 23:12 11,0 C 11,7 C 91 % 1027,3 hPa 0,0 l/m 5,8 km/h (2 Bft) S 172 0 min 0,000 mm 0,0 UV-I 0 W/m 9,6 C 11,0 C 8,0 km/h (2 Bft) 97,62 %
13.10.2017 23:14 11,0 C 11,7 C 91 % 1027,2 hPa 0,0 l/m 4,7 km/h (1 Bft) S-SW 198 0 min 0,000 mm 0,0 UV-I 0 W/m 9,6 C 11,0 C 9,7 km/h (2 Bft) 95,74 %
13.10.2017 23:16 10,9 C 11,7 C 91 % 1027,2 hPa 0,0 l/m 5,7 km/h (1 Bft) S-SW 206 0 min 0,000 mm 0,0 UV-I 0 W/m 9,5 C 10,9 C 8,0 km/h (2 Bft) 98,11 %
13.10.2017 23:18 10,9 C 11,7 C 90 % 1027,2 hPa 0,0 l/m 6,0 km/h (2 Bft) S-SW 203 0 min 0,000 mm 0,0 UV-I 0 W/m 9,3 C 10,9 C 8,0 km/h (2 Bft) 97,37 %
13.10.2017 23:20 10,9 C 11,7 C 90 % 1027,2 hPa 0,0 l/m 6,0 km/h (2 Bft) S-SW 193 0 min 0,000 mm 0,0 UV-I 0 W/m 9,3 C 10,9 C 8,0 km/h (2 Bft) 96,00 %
13.10.2017 23:22 10,8 C 11,7 C 90 % 1027,2 hPa 0,0 l/m 5,1 km/h (1 Bft) S-SW 202 0 min 0,000 mm 0,0 UV-I 0 W/m 9,2 C 10,8 C 8,0 km/h (2 Bft) 97,56 %
13.10.2017 23:24 10,7 C 11,7 C 90 % 1027,3 hPa 0,0 l/m 5,8 km/h (2 Bft) S-SW 199 0 min 0,000 mm 0,0 UV-I 0 W/m 9,1 C 10,7 C 11,3 km/h (2 Bft) 98,11 %
13.10.2017 23:26 10,7 C 11,7 C 91 % 1027,3 hPa 0,0 l/m 5,3 km/h (1 Bft) S-SW 197 0 min 0,000 mm 0,0 UV-I 0 W/m 9,3 C 10,7 C 8,0 km/h (2 Bft) 94,74 %
13.10.2017 23:28 10,7 C 11,7 C 91 % 1027,3 hPa 0,0 l/m 4,8 km/h (1 Bft) S-SW 194 0 min 0,000 mm 0,0 UV-I 0 W/m 9,3 C 10,7 C 8,0 km/h (2 Bft) 96,23 %
13.10.2017 23:30 10,6 C 11,7 C 91 % 1027,3 hPa 0,0 l/m 5,9 km/h (2 Bft) S-SW 193 0 min 0,000 mm 0,0 UV-I 0 W/m 9,2 C 10,6 C 8,0 km/h (2 Bft) 95,74 %
13.10.2017 23:32 10,6 C 11,7 C 91 % 1027,3 hPa 0,0 l/m 4,7 km/h (1 Bft) S-SW 196 0 min 0,000 mm 0,0 UV-I 0 W/m 9,2 C 10,6 C 8,0 km/h (2 Bft) 96,00 %
13.10.2017 23:34 10,6 C 11,7 C 91 % 1027,3 hPa 0,0 l/m 5,4 km/h (1 Bft) S 190 0 min 0,000 mm 0,0 UV-I 0 W/m 9,2 C 10,6 C 8,0 km/h (2 Bft) 94,74 %
13.10.2017 23:36 10,6 C 11,7 C 91 % 1027,2 hPa 0,0 l/m 5,7 km/h (1 Bft) S-SW 193 0 min 0,000 mm 0,0 UV-I 0 W/m 9,2 C 10,6 C 8,0 km/h (2 Bft) 94,74 %
13.10.2017 23:38 10,6 C 11,7 C 91 % 1027,2 hPa 0,0 l/m 4,5 km/h (1 Bft) S-SW 198 0 min 0,000 mm 0,0 UV-I 0 W/m 9,2 C 10,6 C 8,0 km/h (2 Bft) 96,92 %
13.10.2017 23:40 10,6 C 11,7 C 91 % 1027,3 hPa 0,0 l/m 5,1 km/h (1 Bft) S 184 0 min 0,000 mm 0,0 UV-I 0 W/m 9,2 C 10,6 C 8,0 km/h (2 Bft) 95,74 %
13.10.2017 23:42 10,7 C 11,7 C 91 % 1027,3 hPa 0,0 l/m 5,9 km/h (2 Bft) S-SW 202 0 min 0,000 mm 0,0 UV-I 0 W/m 9,3 C 10,7 C 9,7 km/h (2 Bft) 98,00 %
13.10.2017 23:44 10,7 C 11,7 C 91 % 1027,3 hPa 0,0 l/m 6,2 km/h (2 Bft) S-SW 201 0 min 0,000 mm 0,0 UV-I 0 W/m 9,3 C 10,7 C 9,7 km/h (2 Bft) 97,37 %
13.10.2017 23:46 10,7 C 11,7 C 91 % 1027,3 hPa 0,0 l/m 5,7 km/h (1 Bft) S-SW 197 0 min 0,000 mm 0,0 UV-I 0 W/m 9,3 C 10,7 C 8,0 km/h (2 Bft) 98,21 %
13.10.2017 23:48 10,7 C 11,7 C 91 % 1027,3 hPa 0,0 l/m 6,9 km/h (2 Bft) S-SW 201 0 min 0,000 mm 0,0 UV-I 0 W/m 9,3 C 10,4 C 9,7 km/h (2 Bft) 97,73 %
13.10.2017 23:50 10,7 C 11,7 C 91 % 1027,3 hPa 0,0 l/m 6,2 km/h (2 Bft) S 171 0 min 0,000 mm 0,0 UV-I 0 W/m 9,3 C 10,7 C 9,7 km/h (2 Bft) 97,62 %
13.10.2017 23:52 10,7 C 11,7 C 91 % 1027,2 hPa 0,0 l/m 6,7 km/h (2 Bft) S-SW 199 0 min 0,000 mm 0,0 UV-I 0 W/m 9,3 C 10,5 C 9,7 km/h (2 Bft) 98,11 %
13.10.2017 23:54 10,6 C 11,7 C 91 % 1027,3 hPa 0,0 l/m 5,1 km/h (1 Bft) S-SW 203 0 min 0,000 mm 0,0 UV-I 0 W/m 9,2 C 10,6 C 8,0 km/h (2 Bft) 97,56 %
13.10.2017 23:56 10,6 C 11,7 C 91 % 1027,3 hPa 0,0 l/m 6,2 km/h (2 Bft) SW 219 0 min 0,000 mm 0,0 UV-I 0 W/m 9,2 C 10,6 C 9,7 km/h (2 Bft) 96,23 %
13.10.2017 23:58 10,6 C 11,7 C 92 % 1027,3 hPa 0,0 l/m 6,0 km/h (2 Bft) S-SW 213 0 min 0,000 mm 0,0 UV-I 0 W/m 9,4 C 10,6 C 11,3 km/h (2 Bft) 97,87 %
_ Min-Zeit 20:24 00:00 16:14 16:00 - 20:00 - - - - - - 20:22 06:20 19:58 00:02
Minimum _ 10,6 C 11,7 C 56 % 1025,2 hPa - 0,1 km/h (0 Bft) - - - - - - 8,3 C 9,4 C 1,6 km/h (1 Bft) 11,76 %
_ Max-Zeit 15:32 00:00 23:58 11:00 00:00 11:38 - - 09:38 14:02 12:54 13:38 12:12 15:32 10:42 00:36
Maximum _ 18,6 C 11,7 C 92 % 1027,3 hPa 0,0 l/m 14,7 km/h
W-SW (3 Bft)
- - 2 min 0,305 mm 2,5 UV-I 718 W/m 11,7 C 18,6 C 22,5 km/h
W-SW (4 Bft)
100,00 %
Durchschnitt _ 14,4 C 11,7 C 77 % 1026,2 hPa #0,0 l/m 7,0 km/h (2 Bft) W-SW - #7:26 h #2,311 mm 1,5 UV-I 281 W/m 10,3 C 13,6 C 11,5 km/h (2 Bft) 97,81 %